<?xml version="1.0" encoding="UTF-8" standalone="no" ?>
<gpx xmlns="http://www.topografix.com/GPX/1/1" xmlns:xsi="http://www.w3.org/2001/XMLSchema-instance" xsi:schemaLocation="http://www.topografix.com/GPX/1/1 http://www.topografix.com/GPX/1/1/gpx.xsd" version="1.1" creator="VisuGPX - https://www.visugpx.com">
  <metadata>
    <name>Oisans / Trièves - Etape 5</name>
    <desc><![CDATA[Oisans Trièves
Etape 5 : De Gresse en Vercors à Chatillon en Diois par col de l'Allimas et col de Menée]]></desc>
  </metadata>
  <wpt lat="44.90227" lon="5.56743">
    <ele>1198</ele>
    <name><![CDATA[TO - Mens / Chatillon]]></name>
    <type><![CDATA[Generic]]></type>
  </wpt>
  <trk>
    <name><![CDATA[TO - Mens / Chatillon]]></name>
    <trkseg>
      <trkpt lat="44.90227" lon="5.56743">
        <ele>1198</ele>
        <time>2017-12-15T18:56:44Z</time>
      </trkpt>
      <trkpt lat="44.9021" lon="5.56703">
        <ele>1199</ele>
        <time>2017-12-15T18:57:01Z</time>
      </trkpt>
      <trkpt lat="44.90191" lon="5.56669">
        <ele>1200</ele>
        <time>2017-12-15T18:57:07Z</time>
      </trkpt>
      <trkpt lat="44.90183" lon="5.56662">
        <ele>1199</ele>
        <time>2017-12-15T18:57:22Z</time>
      </trkpt>
      <trkpt lat="44.90149" lon="5.56646">
        <ele>1203</ele>
        <time>2017-12-15T18:57:36Z</time>
      </trkpt>
      <trkpt lat="44.90119" lon="5.56638">
        <ele>1204</ele>
        <time>2017-12-15T18:57:55Z</time>
      </trkpt>
      <trkpt lat="44.90106" lon="5.56639">
        <ele>1205</ele>
        <time>2017-12-15T18:58:04Z</time>
      </trkpt>
      <trkpt lat="44.9009" lon="5.56645">
        <ele>1206</ele>
        <time>2017-12-15T18:58:14Z</time>
      </trkpt>
      <trkpt lat="44.90084" lon="5.56646">
        <ele>1206</ele>
        <time>2017-12-15T18:58:25Z</time>
      </trkpt>
      <trkpt lat="44.90053" lon="5.56643">
        <ele>1213</ele>
        <time>2017-12-15T18:58:38Z</time>
      </trkpt>
      <trkpt lat="44.90028" lon="5.56643">
        <ele>1215</ele>
        <time>2017-12-15T18:58:42Z</time>
      </trkpt>
      <trkpt lat="44.90023" lon="5.56645">
        <ele>1215</ele>
        <time>2017-12-15T18:58:51Z</time>
      </trkpt>
      <trkpt lat="44.90017" lon="5.56655">
        <ele>1216</ele>
        <time>2017-12-15T18:59:11Z</time>
      </trkpt>
      <trkpt lat="44.9" lon="5.56688">
        <ele>1224</ele>
        <time>2017-12-15T18:59:14Z</time>
      </trkpt>
      <trkpt lat="44.89992" lon="5.56696">
        <ele>1225</ele>
        <time>2017-12-15T18:59:29Z</time>
      </trkpt>
      <trkpt lat="44.89984" lon="5.567">
        <ele>1226</ele>
        <time>2017-12-15T18:59:37Z</time>
      </trkpt>
      <trkpt lat="44.89974" lon="5.567">
        <ele>1227</ele>
        <time>2017-12-15T18:59:43Z</time>
      </trkpt>
      <trkpt lat="44.89939" lon="5.56693">
        <ele>1228</ele>
        <time>2017-12-15T18:59:46Z</time>
      </trkpt>
      <trkpt lat="44.89912" lon="5.5669">
        <ele>1234</ele>
        <time>2017-12-15T18:59:58Z</time>
      </trkpt>
      <trkpt lat="44.89882" lon="5.56688">
        <ele>1235</ele>
        <time>2017-12-15T19:00:06Z</time>
      </trkpt>
      <trkpt lat="44.8982" lon="5.56692">
        <ele>1241</ele>
        <time>2017-12-15T19:00:10Z</time>
      </trkpt>
      <trkpt lat="44.8978" lon="5.56694">
        <ele>1243</ele>
        <time>2017-12-15T19:00:23Z</time>
      </trkpt>
      <trkpt lat="44.89728" lon="5.56699">
        <ele>1251</ele>
        <time>2017-12-15T19:00:34Z</time>
      </trkpt>
      <trkpt lat="44.89695" lon="5.56697">
        <ele>1254</ele>
        <time>2017-12-15T19:00:46Z</time>
      </trkpt>
      <trkpt lat="44.89662" lon="5.56687">
        <ele>1261</ele>
        <time>2017-12-15T19:01:00Z</time>
      </trkpt>
      <trkpt lat="44.89646" lon="5.56679">
        <ele>1262</ele>
        <time>2017-12-15T19:01:15Z</time>
      </trkpt>
      <trkpt lat="44.89626" lon="5.56658">
        <ele>1266</ele>
        <time>2017-12-15T19:01:24Z</time>
      </trkpt>
      <trkpt lat="44.89613" lon="5.56647">
        <ele>1268</ele>
        <time>2017-12-15T19:01:28Z</time>
      </trkpt>
      <trkpt lat="44.89605" lon="5.56648">
        <ele>1268</ele>
        <time>2017-12-15T19:01:42Z</time>
      </trkpt>
      <trkpt lat="44.89601" lon="5.56653">
        <ele>1269</ele>
        <time>2017-12-15T19:02:00Z</time>
      </trkpt>
      <trkpt lat="44.89599" lon="5.56659">
        <ele>1269</ele>
        <time>2017-12-15T19:02:11Z</time>
      </trkpt>
      <trkpt lat="44.89602" lon="5.56669">
        <ele>1267</ele>
        <time>2017-12-15T19:02:28Z</time>
      </trkpt>
      <trkpt lat="44.89611" lon="5.56681">
        <ele>1266</ele>
        <time>2017-12-15T19:02:48Z</time>
      </trkpt>
      <trkpt lat="44.8965" lon="5.56729">
        <ele>1264</ele>
        <time>2017-12-15T19:03:02Z</time>
      </trkpt>
      <trkpt lat="44.89655" lon="5.56736">
        <ele>1263</ele>
        <time>2017-12-15T19:03:13Z</time>
      </trkpt>
      <trkpt lat="44.8966" lon="5.5675">
        <ele>1263</ele>
        <time>2017-12-15T19:03:20Z</time>
      </trkpt>
      <trkpt lat="44.8966" lon="5.56767">
        <ele>1265</ele>
        <time>2017-12-15T19:03:22Z</time>
      </trkpt>
      <trkpt lat="44.89656" lon="5.5678">
        <ele>1265</ele>
        <time>2017-12-15T19:03:28Z</time>
      </trkpt>
      <trkpt lat="44.89627" lon="5.56807">
        <ele>1267</ele>
        <time>2017-12-15T19:03:35Z</time>
      </trkpt>
      <trkpt lat="44.89607" lon="5.56829">
        <ele>1268</ele>
        <time>2017-12-15T19:03:53Z</time>
      </trkpt>
      <trkpt lat="44.89592" lon="5.56847">
        <ele>1269</ele>
        <time>2017-12-15T19:04:02Z</time>
      </trkpt>
      <trkpt lat="44.89574" lon="5.56889">
        <ele>1271</ele>
        <time>2017-12-15T19:04:14Z</time>
      </trkpt>
      <trkpt lat="44.89566" lon="5.56897">
        <ele>1271</ele>
        <time>2017-12-15T19:04:34Z</time>
      </trkpt>
      <trkpt lat="44.89553" lon="5.56898">
        <ele>1272</ele>
        <time>2017-12-15T19:04:37Z</time>
      </trkpt>
      <trkpt lat="44.89492" lon="5.56878">
        <ele>1273</ele>
        <time>2017-12-15T19:04:47Z</time>
      </trkpt>
      <trkpt lat="44.89485" lon="5.56872">
        <ele>1274</ele>
        <time>2017-12-15T19:05:00Z</time>
      </trkpt>
      <trkpt lat="44.89477" lon="5.56857">
        <ele>1275</ele>
        <time>2017-12-15T19:05:03Z</time>
      </trkpt>
      <trkpt lat="44.89472" lon="5.56835">
        <ele>1276</ele>
        <time>2017-12-15T19:05:21Z</time>
      </trkpt>
      <trkpt lat="44.89466" lon="5.56803">
        <ele>1282</ele>
        <time>2017-12-15T19:05:29Z</time>
      </trkpt>
      <trkpt lat="44.89457" lon="5.56782">
        <ele>1283</ele>
        <time>2017-12-15T19:05:46Z</time>
      </trkpt>
      <trkpt lat="44.89436" lon="5.56744">
        <ele>1286</ele>
        <time>2017-12-15T19:06:01Z</time>
      </trkpt>
      <trkpt lat="44.89432" lon="5.56739">
        <ele>1287</ele>
        <time>2017-12-15T19:06:10Z</time>
      </trkpt>
      <trkpt lat="44.8942" lon="5.5674">
        <ele>1288</ele>
        <time>2017-12-15T19:06:18Z</time>
      </trkpt>
      <trkpt lat="44.89398" lon="5.56749">
        <ele>1294</ele>
        <time>2017-12-15T19:06:36Z</time>
      </trkpt>
      <trkpt lat="44.89387" lon="5.56752">
        <ele>1288</ele>
        <time>2017-12-15T19:06:49Z</time>
      </trkpt>
      <trkpt lat="44.89347" lon="5.56754">
        <ele>1292</ele>
        <time>2017-12-15T19:07:04Z</time>
      </trkpt>
      <trkpt lat="44.89326" lon="5.56757">
        <ele>1297</ele>
        <time>2017-12-15T19:07:10Z</time>
      </trkpt>
      <trkpt lat="44.89285" lon="5.56766">
        <ele>1297</ele>
        <time>2017-12-15T19:07:23Z</time>
      </trkpt>
      <trkpt lat="44.89252" lon="5.56767">
        <ele>1303</ele>
        <time>2017-12-15T19:07:34Z</time>
      </trkpt>
      <trkpt lat="44.89208" lon="5.56771">
        <ele>1306</ele>
        <time>2017-12-15T19:07:41Z</time>
      </trkpt>
      <trkpt lat="44.89153" lon="5.5678">
        <ele>1309</ele>
        <time>2017-12-15T19:07:43Z</time>
      </trkpt>
      <trkpt lat="44.89103" lon="5.56781">
        <ele>1308</ele>
        <time>2017-12-15T19:07:56Z</time>
      </trkpt>
      <trkpt lat="44.89059" lon="5.56772">
        <ele>1306</ele>
        <time>2017-12-15T19:07:58Z</time>
      </trkpt>
      <trkpt lat="44.8905" lon="5.56764">
        <ele>1306</ele>
        <time>2017-12-15T19:08:04Z</time>
      </trkpt>
      <trkpt lat="44.89032" lon="5.56721">
        <ele>1324</ele>
        <time>2017-12-15T19:08:06Z</time>
      </trkpt>
      <trkpt lat="44.89025" lon="5.56711">
        <ele>1325</ele>
        <time>2017-12-15T19:08:08Z</time>
      </trkpt>
      <trkpt lat="44.89018" lon="5.56706">
        <ele>1325</ele>
        <time>2017-12-15T19:08:16Z</time>
      </trkpt>
      <trkpt lat="44.89005" lon="5.56706">
        <ele>1325</ele>
        <time>2017-12-15T19:08:27Z</time>
      </trkpt>
      <trkpt lat="44.88995" lon="5.56719">
        <ele>1317</ele>
        <time>2017-12-15T19:08:35Z</time>
      </trkpt>
      <trkpt lat="44.88983" lon="5.56742">
        <ele>1314</ele>
        <time>2017-12-15T19:08:50Z</time>
      </trkpt>
      <trkpt lat="44.88977" lon="5.56748">
        <ele>1315</ele>
        <time>2017-12-15T19:09:04Z</time>
      </trkpt>
      <trkpt lat="44.88963" lon="5.56749">
        <ele>1315</ele>
        <time>2017-12-15T19:09:17Z</time>
      </trkpt>
      <trkpt lat="44.88919" lon="5.56744">
        <ele>1311</ele>
        <time>2017-12-15T19:09:32Z</time>
      </trkpt>
      <trkpt lat="44.88906" lon="5.56737">
        <ele>1313</ele>
        <time>2017-12-15T19:09:37Z</time>
      </trkpt>
      <trkpt lat="44.8889" lon="5.56714">
        <ele>1316</ele>
        <time>2017-12-15T19:09:40Z</time>
      </trkpt>
      <trkpt lat="44.88878" lon="5.56708">
        <ele>1316</ele>
        <time>2017-12-15T19:09:49Z</time>
      </trkpt>
      <trkpt lat="44.88864" lon="5.56709">
        <ele>1316</ele>
        <time>2017-12-15T19:10:04Z</time>
      </trkpt>
      <trkpt lat="44.88857" lon="5.56709">
        <ele>1316</ele>
        <time>2017-12-15T19:10:08Z</time>
      </trkpt>
      <trkpt lat="44.88851" lon="5.56706">
        <ele>1316</ele>
        <time>2017-12-15T19:10:21Z</time>
      </trkpt>
      <trkpt lat="44.8882" lon="5.56684">
        <ele>1322</ele>
        <time>2017-12-15T19:10:27Z</time>
      </trkpt>
      <trkpt lat="44.88816" lon="5.56678">
        <ele>1323</ele>
        <time>2017-12-15T19:10:34Z</time>
      </trkpt>
      <trkpt lat="44.88806" lon="5.56657">
        <ele>1336</ele>
        <time>2017-12-15T19:10:46Z</time>
      </trkpt>
      <trkpt lat="44.88802" lon="5.56651">
        <ele>1337</ele>
        <time>2017-12-15T19:10:55Z</time>
      </trkpt>
      <trkpt lat="44.88797" lon="5.5665">
        <ele>1338</ele>
        <time>2017-12-15T19:11:09Z</time>
      </trkpt>
      <trkpt lat="44.8879" lon="5.56654">
        <ele>1338</ele>
        <time>2017-12-15T19:11:18Z</time>
      </trkpt>
      <trkpt lat="44.88784" lon="5.56666">
        <ele>1338</ele>
        <time>2017-12-15T19:11:28Z</time>
      </trkpt>
      <trkpt lat="44.8878" lon="5.56685">
        <ele>1325</ele>
        <time>2017-12-15T19:11:44Z</time>
      </trkpt>
      <trkpt lat="44.88774" lon="5.56698">
        <ele>1324</ele>
        <time>2017-12-15T19:11:54Z</time>
      </trkpt>
      <trkpt lat="44.88755" lon="5.5672">
        <ele>1322</ele>
        <time>2017-12-15T19:12:02Z</time>
      </trkpt>
      <trkpt lat="44.88746" lon="5.56724">
        <ele>1327</ele>
        <time>2017-12-15T19:12:22Z</time>
      </trkpt>
      <trkpt lat="44.88729" lon="5.5673">
        <ele>1327</ele>
        <time>2017-12-15T19:12:36Z</time>
      </trkpt>
      <trkpt lat="44.88716" lon="5.56732">
        <ele>1328</ele>
        <time>2017-12-15T19:12:38Z</time>
      </trkpt>
      <trkpt lat="44.88709" lon="5.5673">
        <ele>1329</ele>
        <time>2017-12-15T19:12:51Z</time>
      </trkpt>
      <trkpt lat="44.88658" lon="5.56702">
        <ele>1339</ele>
        <time>2017-12-15T19:12:59Z</time>
      </trkpt>
      <trkpt lat="44.88643" lon="5.56702">
        <ele>1340</ele>
        <time>2017-12-15T19:13:14Z</time>
      </trkpt>
      <trkpt lat="44.88628" lon="5.56707">
        <ele>1340</ele>
        <time>2017-12-15T19:13:33Z</time>
      </trkpt>
      <trkpt lat="44.88606" lon="5.56716">
        <ele>1339</ele>
        <time>2017-12-15T19:13:53Z</time>
      </trkpt>
      <trkpt lat="44.88584" lon="5.56721">
        <ele>1339</ele>
        <time>2017-12-15T19:14:13Z</time>
      </trkpt>
      <trkpt lat="44.88564" lon="5.56722">
        <ele>1345</ele>
        <time>2017-12-15T19:14:15Z</time>
      </trkpt>
      <trkpt lat="44.88533" lon="5.56718">
        <ele>1349</ele>
        <time>2017-12-15T19:14:30Z</time>
      </trkpt>
      <trkpt lat="44.88435" lon="5.56699">
        <ele>1357</ele>
        <time>2017-12-15T19:14:47Z</time>
      </trkpt>
      <trkpt lat="44.88415" lon="5.567">
        <ele>1359</ele>
        <time>2017-12-15T19:15:05Z</time>
      </trkpt>
      <trkpt lat="44.88387" lon="5.56709">
        <ele>1359</ele>
        <time>2017-12-15T19:15:17Z</time>
      </trkpt>
      <trkpt lat="44.8837" lon="5.56713">
        <ele>1359</ele>
        <time>2017-12-15T19:15:34Z</time>
      </trkpt>
      <trkpt lat="44.88359" lon="5.56712">
        <ele>1359</ele>
        <time>2017-12-15T19:15:49Z</time>
      </trkpt>
      <trkpt lat="44.88295" lon="5.56701">
        <ele>1360</ele>
        <time>2017-12-15T19:16:01Z</time>
      </trkpt>
      <trkpt lat="44.88276" lon="5.56699">
        <ele>1359</ele>
        <time>2017-12-15T19:16:11Z</time>
      </trkpt>
      <trkpt lat="44.88205" lon="5.56687">
        <ele>1355</ele>
        <time>2017-12-15T19:16:31Z</time>
      </trkpt>
      <trkpt lat="44.88184" lon="5.56687">
        <ele>1354</ele>
        <time>2017-12-15T19:16:46Z</time>
      </trkpt>
      <trkpt lat="44.88166" lon="5.56698">
        <ele>1352</ele>
        <time>2017-12-15T19:17:00Z</time>
      </trkpt>
      <trkpt lat="44.88144" lon="5.56706">
        <ele>1352</ele>
        <time>2017-12-15T19:17:16Z</time>
      </trkpt>
      <trkpt lat="44.88126" lon="5.56706">
        <ele>1352</ele>
        <time>2017-12-15T19:17:21Z</time>
      </trkpt>
      <trkpt lat="44.88099" lon="5.56695">
        <ele>1349</ele>
        <time>2017-12-15T19:17:26Z</time>
      </trkpt>
      <trkpt lat="44.8808" lon="5.56696">
        <ele>1345</ele>
        <time>2017-12-15T19:17:46Z</time>
      </trkpt>
      <trkpt lat="44.88061" lon="5.56697">
        <ele>1345</ele>
        <time>2017-12-15T19:18:00Z</time>
      </trkpt>
      <trkpt lat="44.88034" lon="5.56691">
        <ele>1344</ele>
        <time>2017-12-15T19:18:19Z</time>
      </trkpt>
      <trkpt lat="44.88012" lon="5.56691">
        <ele>1342</ele>
        <time>2017-12-15T19:18:25Z</time>
      </trkpt>
      <trkpt lat="44.87984" lon="5.56679">
        <ele>1336</ele>
        <time>2017-12-15T19:18:32Z</time>
      </trkpt>
      <trkpt lat="44.87954" lon="5.56667">
        <ele>1335</ele>
        <time>2017-12-15T19:18:51Z</time>
      </trkpt>
      <trkpt lat="44.87935" lon="5.5667">
        <ele>1332</ele>
        <time>2017-12-15T19:19:01Z</time>
      </trkpt>
      <trkpt lat="44.87924" lon="5.56674">
        <ele>1330</ele>
        <time>2017-12-15T19:19:11Z</time>
      </trkpt>
      <trkpt lat="44.87916" lon="5.56682">
        <ele>1328</ele>
        <time>2017-12-15T19:19:26Z</time>
      </trkpt>
      <trkpt lat="44.87908" lon="5.5669">
        <ele>1330</ele>
        <time>2017-12-15T19:19:34Z</time>
      </trkpt>
      <trkpt lat="44.87898" lon="5.56694">
        <ele>1330</ele>
        <time>2017-12-15T19:19:42Z</time>
      </trkpt>
      <trkpt lat="44.87877" lon="5.56692">
        <ele>1330</ele>
        <time>2017-12-15T19:19:59Z</time>
      </trkpt>
      <trkpt lat="44.87876" lon="5.56692">
        <ele>1330</ele>
        <time>2017-12-15T19:20:06Z</time>
      </trkpt>
      <trkpt lat="44.87845" lon="5.56686">
        <ele>1326</ele>
        <time>2017-12-15T19:20:13Z</time>
      </trkpt>
      <trkpt lat="44.87829" lon="5.56681">
        <ele>1320</ele>
        <time>2017-12-15T19:20:28Z</time>
      </trkpt>
      <trkpt lat="44.87815" lon="5.56671">
        <ele>1320</ele>
        <time>2017-12-15T19:20:30Z</time>
      </trkpt>
      <trkpt lat="44.87804" lon="5.56665">
        <ele>1308</ele>
        <time>2017-12-15T19:20:40Z</time>
      </trkpt>
      <trkpt lat="44.87795" lon="5.56663">
        <ele>1307</ele>
        <time>2017-12-15T19:20:59Z</time>
      </trkpt>
      <trkpt lat="44.87727" lon="5.56651">
        <ele>1302</ele>
        <time>2017-12-15T19:21:15Z</time>
      </trkpt>
      <trkpt lat="44.87698" lon="5.56645">
        <ele>1300</ele>
        <time>2017-12-15T19:21:20Z</time>
      </trkpt>
      <trkpt lat="44.8764" lon="5.56616">
        <ele>1293</ele>
        <time>2017-12-15T19:21:26Z</time>
      </trkpt>
      <trkpt lat="44.87605" lon="5.56601">
        <ele>1290</ele>
        <time>2017-12-15T19:21:43Z</time>
      </trkpt>
      <trkpt lat="44.87554" lon="5.56584">
        <ele>1283</ele>
        <time>2017-12-15T19:21:48Z</time>
      </trkpt>
      <trkpt lat="44.87539" lon="5.5658">
        <ele>1273</ele>
        <time>2017-12-15T19:21:54Z</time>
      </trkpt>
      <trkpt lat="44.87528" lon="5.56582">
        <ele>1273</ele>
        <time>2017-12-15T19:22:10Z</time>
      </trkpt>
      <trkpt lat="44.87513" lon="5.56589">
        <ele>1280</ele>
        <time>2017-12-15T19:22:22Z</time>
      </trkpt>
      <trkpt lat="44.87506" lon="5.56589">
        <ele>1279</ele>
        <time>2017-12-15T19:22:24Z</time>
      </trkpt>
      <trkpt lat="44.87503" lon="5.56583">
        <ele>1276</ele>
        <time>2017-12-15T19:22:29Z</time>
      </trkpt>
      <trkpt lat="44.87504" lon="5.56576">
        <ele>1275</ele>
        <time>2017-12-15T19:22:35Z</time>
      </trkpt>
      <trkpt lat="44.87509" lon="5.56569">
        <ele>1273</ele>
        <time>2017-12-15T19:22:45Z</time>
      </trkpt>
      <trkpt lat="44.87522" lon="5.56561">
        <ele>1271</ele>
        <time>2017-12-15T19:22:51Z</time>
      </trkpt>
      <trkpt lat="44.87543" lon="5.56554">
        <ele>1270</ele>
        <time>2017-12-15T19:23:01Z</time>
      </trkpt>
      <trkpt lat="44.87595" lon="5.56544">
        <ele>1271</ele>
        <time>2017-12-15T19:23:21Z</time>
      </trkpt>
      <trkpt lat="44.87616" lon="5.56541">
        <ele>1271</ele>
        <time>2017-12-15T19:23:24Z</time>
      </trkpt>
      <trkpt lat="44.87637" lon="5.56535">
        <ele>1270</ele>
        <time>2017-12-15T19:23:36Z</time>
      </trkpt>
      <trkpt lat="44.87668" lon="5.56525">
        <ele>1270</ele>
        <time>2017-12-15T19:23:49Z</time>
      </trkpt>
      <trkpt lat="44.87692" lon="5.56514">
        <ele>1270</ele>
        <time>2017-12-15T19:23:53Z</time>
      </trkpt>
      <trkpt lat="44.87702" lon="5.56507">
        <ele>1271</ele>
        <time>2017-12-15T19:24:00Z</time>
      </trkpt>
      <trkpt lat="44.87707" lon="5.56499">
        <ele>1260</ele>
        <time>2017-12-15T19:24:07Z</time>
      </trkpt>
      <trkpt lat="44.87711" lon="5.56491">
        <ele>1260</ele>
        <time>2017-12-15T19:24:26Z</time>
      </trkpt>
      <trkpt lat="44.87714" lon="5.56448">
        <ele>1257</ele>
        <time>2017-12-15T19:24:41Z</time>
      </trkpt>
      <trkpt lat="44.87716" lon="5.56412">
        <ele>1247</ele>
        <time>2017-12-15T19:25:01Z</time>
      </trkpt>
      <trkpt lat="44.87722" lon="5.56354">
        <ele>1244</ele>
        <time>2017-12-15T19:25:08Z</time>
      </trkpt>
      <trkpt lat="44.87732" lon="5.56288">
        <ele>1238</ele>
        <time>2017-12-15T19:25:10Z</time>
      </trkpt>
      <trkpt lat="44.87732" lon="5.56271">
        <ele>1239</ele>
        <time>2017-12-15T19:25:15Z</time>
      </trkpt>
      <trkpt lat="44.87729" lon="5.56248">
        <ele>1242</ele>
        <time>2017-12-15T19:25:29Z</time>
      </trkpt>
      <trkpt lat="44.87725" lon="5.56243">
        <ele>1241</ele>
        <time>2017-12-15T19:25:36Z</time>
      </trkpt>
      <trkpt lat="44.87713" lon="5.56236">
        <ele>1240</ele>
        <time>2017-12-15T19:25:44Z</time>
      </trkpt>
      <trkpt lat="44.87678" lon="5.5622">
        <ele>1236</ele>
        <time>2017-12-15T19:25:50Z</time>
      </trkpt>
      <trkpt lat="44.87625" lon="5.56187">
        <ele>1222</ele>
        <time>2017-12-15T19:26:04Z</time>
      </trkpt>
      <trkpt lat="44.87608" lon="5.56174">
        <ele>1219</ele>
        <time>2017-12-15T19:26:10Z</time>
      </trkpt>
      <trkpt lat="44.87598" lon="5.56162">
        <ele>1222</ele>
        <time>2017-12-15T19:26:23Z</time>
      </trkpt>
      <trkpt lat="44.8759" lon="5.56146">
        <ele>1224</ele>
        <time>2017-12-15T19:26:26Z</time>
      </trkpt>
      <trkpt lat="44.87579" lon="5.56121">
        <ele>1213</ele>
        <time>2017-12-15T19:26:44Z</time>
      </trkpt>
      <trkpt lat="44.87572" lon="5.56102">
        <ele>1215</ele>
        <time>2017-12-15T19:26:46Z</time>
      </trkpt>
      <trkpt lat="44.87515" lon="5.55995">
        <ele>1209</ele>
        <time>2017-12-15T19:26:58Z</time>
      </trkpt>
      <trkpt lat="44.87507" lon="5.5598">
        <ele>1210</ele>
        <time>2017-12-15T19:27:11Z</time>
      </trkpt>
      <trkpt lat="44.87503" lon="5.55963">
        <ele>1213</ele>
        <time>2017-12-15T19:27:26Z</time>
      </trkpt>
      <trkpt lat="44.87499" lon="5.55933">
        <ele>1201</ele>
        <time>2017-12-15T19:27:31Z</time>
      </trkpt>
      <trkpt lat="44.87495" lon="5.55925">
        <ele>1202</ele>
        <time>2017-12-15T19:27:48Z</time>
      </trkpt>
      <trkpt lat="44.87487" lon="5.55918">
        <ele>1202</ele>
        <time>2017-12-15T19:27:50Z</time>
      </trkpt>
      <trkpt lat="44.87466" lon="5.5591">
        <ele>1209</ele>
        <time>2017-12-15T19:28:03Z</time>
      </trkpt>
      <trkpt lat="44.87454" lon="5.5591">
        <ele>1208</ele>
        <time>2017-12-15T19:28:21Z</time>
      </trkpt>
      <trkpt lat="44.87431" lon="5.55917">
        <ele>1197</ele>
        <time>2017-12-15T19:28:39Z</time>
      </trkpt>
      <trkpt lat="44.87395" lon="5.55935">
        <ele>1190</ele>
        <time>2017-12-15T19:28:44Z</time>
      </trkpt>
      <trkpt lat="44.87367" lon="5.55946">
        <ele>1188</ele>
        <time>2017-12-15T19:28:54Z</time>
      </trkpt>
      <trkpt lat="44.87333" lon="5.55954">
        <ele>1177</ele>
        <time>2017-12-15T19:29:08Z</time>
      </trkpt>
      <trkpt lat="44.8732" lon="5.55954">
        <ele>1176</ele>
        <time>2017-12-15T19:29:25Z</time>
      </trkpt>
      <trkpt lat="44.87301" lon="5.55951">
        <ele>1174</ele>
        <time>2017-12-15T19:29:41Z</time>
      </trkpt>
      <trkpt lat="44.87284" lon="5.55943">
        <ele>1172</ele>
        <time>2017-12-15T19:29:49Z</time>
      </trkpt>
      <trkpt lat="44.8727" lon="5.55932">
        <ele>1171</ele>
        <time>2017-12-15T19:30:04Z</time>
      </trkpt>
      <trkpt lat="44.87261" lon="5.55918">
        <ele>1170</ele>
        <time>2017-12-15T19:30:16Z</time>
      </trkpt>
      <trkpt lat="44.87243" lon="5.55864">
        <ele>1168</ele>
        <time>2017-12-15T19:30:34Z</time>
      </trkpt>
      <trkpt lat="44.87236" lon="5.55849">
        <ele>1171</ele>
        <time>2017-12-15T19:30:36Z</time>
      </trkpt>
      <trkpt lat="44.87229" lon="5.55846">
        <ele>1170</ele>
        <time>2017-12-15T19:30:44Z</time>
      </trkpt>
      <trkpt lat="44.87224" lon="5.55844">
        <ele>1168</ele>
        <time>2017-12-15T19:30:51Z</time>
      </trkpt>
      <trkpt lat="44.87211" lon="5.55844">
        <ele>1165</ele>
        <time>2017-12-15T19:30:58Z</time>
      </trkpt>
      <trkpt lat="44.87193" lon="5.55847">
        <ele>1162</ele>
        <time>2017-12-15T19:31:17Z</time>
      </trkpt>
      <trkpt lat="44.87185" lon="5.55847">
        <ele>1161</ele>
        <time>2017-12-15T19:31:32Z</time>
      </trkpt>
      <trkpt lat="44.87166" lon="5.55833">
        <ele>1158</ele>
        <time>2017-12-15T19:31:44Z</time>
      </trkpt>
      <trkpt lat="44.87154" lon="5.55824">
        <ele>1159</ele>
        <time>2017-12-15T19:32:00Z</time>
      </trkpt>
      <trkpt lat="44.8713" lon="5.55814">
        <ele>1159</ele>
        <time>2017-12-15T19:32:06Z</time>
      </trkpt>
      <trkpt lat="44.87108" lon="5.55807">
        <ele>1157</ele>
        <time>2017-12-15T19:32:09Z</time>
      </trkpt>
      <trkpt lat="44.87093" lon="5.55804">
        <ele>1156</ele>
        <time>2017-12-15T19:32:19Z</time>
      </trkpt>
      <trkpt lat="44.87066" lon="5.55809">
        <ele>1148</ele>
        <time>2017-12-15T19:32:22Z</time>
      </trkpt>
      <trkpt lat="44.87035" lon="5.55827">
        <ele>1145</ele>
        <time>2017-12-15T19:32:39Z</time>
      </trkpt>
      <trkpt lat="44.87021" lon="5.55834">
        <ele>1133</ele>
        <time>2017-12-15T19:32:45Z</time>
      </trkpt>
      <trkpt lat="44.87007" lon="5.55836">
        <ele>1133</ele>
        <time>2017-12-15T19:32:58Z</time>
      </trkpt>
      <trkpt lat="44.8699" lon="5.55833">
        <ele>1134</ele>
        <time>2017-12-15T19:33:06Z</time>
      </trkpt>
      <trkpt lat="44.86978" lon="5.55824">
        <ele>1134</ele>
        <time>2017-12-15T19:33:12Z</time>
      </trkpt>
      <trkpt lat="44.86966" lon="5.55813">
        <ele>1134</ele>
        <time>2017-12-15T19:33:19Z</time>
      </trkpt>
      <trkpt lat="44.86939" lon="5.5578">
        <ele>1135</ele>
        <time>2017-12-15T19:33:34Z</time>
      </trkpt>
      <trkpt lat="44.86925" lon="5.55764">
        <ele>1135</ele>
        <time>2017-12-15T19:33:43Z</time>
      </trkpt>
      <trkpt lat="44.86891" lon="5.55739">
        <ele>1132</ele>
        <time>2017-12-15T19:33:58Z</time>
      </trkpt>
      <trkpt lat="44.86869" lon="5.55715">
        <ele>1131</ele>
        <time>2017-12-15T19:34:18Z</time>
      </trkpt>
      <trkpt lat="44.86852" lon="5.55689">
        <ele>1130</ele>
        <time>2017-12-15T19:34:22Z</time>
      </trkpt>
      <trkpt lat="44.86844" lon="5.5567">
        <ele>1129</ele>
        <time>2017-12-15T19:34:39Z</time>
      </trkpt>
      <trkpt lat="44.86837" lon="5.55662">
        <ele>1128</ele>
        <time>2017-12-15T19:34:44Z</time>
      </trkpt>
      <trkpt lat="44.86825" lon="5.55657">
        <ele>1132</ele>
        <time>2017-12-15T19:34:50Z</time>
      </trkpt>
      <trkpt lat="44.86815" lon="5.55662">
        <ele>1134</ele>
        <time>2017-12-15T19:35:05Z</time>
      </trkpt>
      <trkpt lat="44.86812" lon="5.55667">
        <ele>1135</ele>
        <time>2017-12-15T19:35:21Z</time>
      </trkpt>
      <trkpt lat="44.86808" lon="5.55675">
        <ele>1136</ele>
        <time>2017-12-15T19:35:25Z</time>
      </trkpt>
      <trkpt lat="44.86799" lon="5.55746">
        <ele>1137</ele>
        <time>2017-12-15T19:35:42Z</time>
      </trkpt>
      <trkpt lat="44.86796" lon="5.55792">
        <ele>1133</ele>
        <time>2017-12-15T19:36:01Z</time>
      </trkpt>
      <trkpt lat="44.86803" lon="5.5584">
        <ele>1124</ele>
        <time>2017-12-15T19:36:16Z</time>
      </trkpt>
      <trkpt lat="44.86802" lon="5.55852">
        <ele>1124</ele>
        <time>2017-12-15T19:36:32Z</time>
      </trkpt>
      <trkpt lat="44.868" lon="5.5586">
        <ele>1124</ele>
        <time>2017-12-15T19:36:51Z</time>
      </trkpt>
      <trkpt lat="44.86792" lon="5.5587">
        <ele>1125</ele>
        <time>2017-12-15T19:37:00Z</time>
      </trkpt>
      <trkpt lat="44.86785" lon="5.55873">
        <ele>1126</ele>
        <time>2017-12-15T19:37:04Z</time>
      </trkpt>
      <trkpt lat="44.86767" lon="5.55872">
        <ele>1128</ele>
        <time>2017-12-15T19:37:16Z</time>
      </trkpt>
      <trkpt lat="44.86675" lon="5.55865">
        <ele>1143</ele>
        <time>2017-12-15T19:37:20Z</time>
      </trkpt>
      <trkpt lat="44.86662" lon="5.55868">
        <ele>1150</ele>
        <time>2017-12-15T19:37:33Z</time>
      </trkpt>
      <trkpt lat="44.86654" lon="5.5588">
        <ele>1149</ele>
        <time>2017-12-15T19:37:45Z</time>
      </trkpt>
      <trkpt lat="44.86645" lon="5.5592">
        <ele>1144</ele>
        <time>2017-12-15T19:37:51Z</time>
      </trkpt>
      <trkpt lat="44.86634" lon="5.55955">
        <ele>1147</ele>
        <time>2017-12-15T19:37:57Z</time>
      </trkpt>
      <trkpt lat="44.86621" lon="5.55974">
        <ele>1148</ele>
        <time>2017-12-15T19:37:59Z</time>
      </trkpt>
      <trkpt lat="44.86612" lon="5.55982">
        <ele>1149</ele>
        <time>2017-12-15T19:38:03Z</time>
      </trkpt>
      <trkpt lat="44.86601" lon="5.55988">
        <ele>1151</ele>
        <time>2017-12-15T19:38:16Z</time>
      </trkpt>
      <trkpt lat="44.8659" lon="5.55991">
        <ele>1152</ele>
        <time>2017-12-15T19:38:30Z</time>
      </trkpt>
      <trkpt lat="44.8658" lon="5.5599">
        <ele>1156</ele>
        <time>2017-12-15T19:38:43Z</time>
      </trkpt>
      <trkpt lat="44.86572" lon="5.55985">
        <ele>1156</ele>
        <time>2017-12-15T19:38:46Z</time>
      </trkpt>
      <trkpt lat="44.86565" lon="5.55977">
        <ele>1157</ele>
        <time>2017-12-15T19:39:06Z</time>
      </trkpt>
      <trkpt lat="44.86549" lon="5.55951">
        <ele>1158</ele>
        <time>2017-12-15T19:39:13Z</time>
      </trkpt>
      <trkpt lat="44.86545" lon="5.55938">
        <ele>1158</ele>
        <time>2017-12-15T19:39:29Z</time>
      </trkpt>
      <trkpt lat="44.86542" lon="5.55922">
        <ele>1159</ele>
        <time>2017-12-15T19:39:31Z</time>
      </trkpt>
      <trkpt lat="44.86544" lon="5.5589">
        <ele>1162</ele>
        <time>2017-12-15T19:39:34Z</time>
      </trkpt>
      <trkpt lat="44.86549" lon="5.55877">
        <ele>1162</ele>
        <time>2017-12-15T19:39:53Z</time>
      </trkpt>
      <trkpt lat="44.86553" lon="5.55871">
        <ele>1162</ele>
        <time>2017-12-15T19:40:02Z</time>
      </trkpt>
      <trkpt lat="44.86568" lon="5.55856">
        <ele>1161</ele>
        <time>2017-12-15T19:40:06Z</time>
      </trkpt>
      <trkpt lat="44.86569" lon="5.55848">
        <ele>1161</ele>
        <time>2017-12-15T19:40:11Z</time>
      </trkpt>
      <trkpt lat="44.86565" lon="5.5584">
        <ele>1161</ele>
        <time>2017-12-15T19:40:30Z</time>
      </trkpt>
      <trkpt lat="44.86552" lon="5.5584">
        <ele>1162</ele>
        <time>2017-12-15T19:40:39Z</time>
      </trkpt>
      <trkpt lat="44.86523" lon="5.55849">
        <ele>1165</ele>
        <time>2017-12-15T19:40:41Z</time>
      </trkpt>
      <trkpt lat="44.86514" lon="5.55855">
        <ele>1165</ele>
        <time>2017-12-15T19:40:46Z</time>
      </trkpt>
      <trkpt lat="44.86495" lon="5.55881">
        <ele>1169</ele>
        <time>2017-12-15T19:40:58Z</time>
      </trkpt>
      <trkpt lat="44.86489" lon="5.55887">
        <ele>1169</ele>
        <time>2017-12-15T19:41:14Z</time>
      </trkpt>
      <trkpt lat="44.86476" lon="5.5589">
        <ele>1169</ele>
        <time>2017-12-15T19:41:17Z</time>
      </trkpt>
      <trkpt lat="44.86399" lon="5.55879">
        <ele>1164</ele>
        <time>2017-12-15T19:41:28Z</time>
      </trkpt>
      <trkpt lat="44.86386" lon="5.55874">
        <ele>1163</ele>
        <time>2017-12-15T19:41:45Z</time>
      </trkpt>
      <trkpt lat="44.8638" lon="5.55867">
        <ele>1163</ele>
        <time>2017-12-15T19:41:49Z</time>
      </trkpt>
      <trkpt lat="44.86335" lon="5.55801">
        <ele>1167</ele>
        <time>2017-12-15T19:42:02Z</time>
      </trkpt>
      <trkpt lat="44.86297" lon="5.5575">
        <ele>1151</ele>
        <time>2017-12-15T19:42:05Z</time>
      </trkpt>
      <trkpt lat="44.86247" lon="5.55702">
        <ele>1147</ele>
        <time>2017-12-15T19:42:15Z</time>
      </trkpt>
      <trkpt lat="44.8623" lon="5.55688">
        <ele>1149</ele>
        <time>2017-12-15T19:42:33Z</time>
      </trkpt>
      <trkpt lat="44.86215" lon="5.55679">
        <ele>1148</ele>
        <time>2017-12-15T19:42:52Z</time>
      </trkpt>
      <trkpt lat="44.86184" lon="5.55667">
        <ele>1147</ele>
        <time>2017-12-15T19:43:12Z</time>
      </trkpt>
      <trkpt lat="44.8617" lon="5.55667">
        <ele>1148</ele>
        <time>2017-12-15T19:43:22Z</time>
      </trkpt>
      <trkpt lat="44.8616" lon="5.55672">
        <ele>1150</ele>
        <time>2017-12-15T19:43:32Z</time>
      </trkpt>
      <trkpt lat="44.86153" lon="5.55681">
        <ele>1151</ele>
        <time>2017-12-15T19:43:37Z</time>
      </trkpt>
      <trkpt lat="44.86148" lon="5.55697">
        <ele>1150</ele>
        <time>2017-12-15T19:43:57Z</time>
      </trkpt>
      <trkpt lat="44.86145" lon="5.55741">
        <ele>1144</ele>
        <time>2017-12-15T19:44:11Z</time>
      </trkpt>
      <trkpt lat="44.86141" lon="5.55766">
        <ele>1132</ele>
        <time>2017-12-15T19:44:27Z</time>
      </trkpt>
      <trkpt lat="44.86136" lon="5.55785">
        <ele>1130</ele>
        <time>2017-12-15T19:44:29Z</time>
      </trkpt>
      <trkpt lat="44.86129" lon="5.55804">
        <ele>1128</ele>
        <time>2017-12-15T19:44:34Z</time>
      </trkpt>
      <trkpt lat="44.86121" lon="5.55815">
        <ele>1127</ele>
        <time>2017-12-15T19:44:47Z</time>
      </trkpt>
      <trkpt lat="44.86112" lon="5.55823">
        <ele>1126</ele>
        <time>2017-12-15T19:44:52Z</time>
      </trkpt>
      <trkpt lat="44.86096" lon="5.55831">
        <ele>1125</ele>
        <time>2017-12-15T19:45:06Z</time>
      </trkpt>
      <trkpt lat="44.86082" lon="5.55833">
        <ele>1123</ele>
        <time>2017-12-15T19:45:26Z</time>
      </trkpt>
      <trkpt lat="44.86053" lon="5.55828">
        <ele>1129</ele>
        <time>2017-12-15T19:45:40Z</time>
      </trkpt>
      <trkpt lat="44.86018" lon="5.55818">
        <ele>1127</ele>
        <time>2017-12-15T19:45:59Z</time>
      </trkpt>
      <trkpt lat="44.86008" lon="5.55817">
        <ele>1125</ele>
        <time>2017-12-15T19:46:16Z</time>
      </trkpt>
      <trkpt lat="44.85997" lon="5.5582">
        <ele>1119</ele>
        <time>2017-12-15T19:46:27Z</time>
      </trkpt>
      <trkpt lat="44.85984" lon="5.55828">
        <ele>1119</ele>
        <time>2017-12-15T19:46:33Z</time>
      </trkpt>
      <trkpt lat="44.85971" lon="5.55839">
        <ele>1111</ele>
        <time>2017-12-15T19:46:35Z</time>
      </trkpt>
      <trkpt lat="44.85963" lon="5.55848">
        <ele>1110</ele>
        <time>2017-12-15T19:46:49Z</time>
      </trkpt>
      <trkpt lat="44.85968" lon="5.55856">
        <ele>1110</ele>
        <time>2017-12-15T19:46:59Z</time>
      </trkpt>
      <trkpt lat="44.85975" lon="5.55867">
        <ele>1109</ele>
        <time>2017-12-15T19:47:11Z</time>
      </trkpt>
      <trkpt lat="44.85986" lon="5.5588">
        <ele>1107</ele>
        <time>2017-12-15T19:47:19Z</time>
      </trkpt>
      <trkpt lat="44.86011" lon="5.55904">
        <ele>1102</ele>
        <time>2017-12-15T19:47:35Z</time>
      </trkpt>
      <trkpt lat="44.8603" lon="5.55916">
        <ele>1103</ele>
        <time>2017-12-15T19:47:51Z</time>
      </trkpt>
      <trkpt lat="44.86051" lon="5.55923">
        <ele>1098</ele>
        <time>2017-12-15T19:48:09Z</time>
      </trkpt>
      <trkpt lat="44.86094" lon="5.55927">
        <ele>1094</ele>
        <time>2017-12-15T19:48:22Z</time>
      </trkpt>
      <trkpt lat="44.86137" lon="5.55933">
        <ele>1092</ele>
        <time>2017-12-15T19:48:30Z</time>
      </trkpt>
      <trkpt lat="44.86156" lon="5.55938">
        <ele>1092</ele>
        <time>2017-12-15T19:48:32Z</time>
      </trkpt>
      <trkpt lat="44.86174" lon="5.55948">
        <ele>1093</ele>
        <time>2017-12-15T19:48:37Z</time>
      </trkpt>
      <trkpt lat="44.86206" lon="5.55971">
        <ele>1094</ele>
        <time>2017-12-15T19:48:40Z</time>
      </trkpt>
      <trkpt lat="44.86248" lon="5.56005">
        <ele>1093</ele>
        <time>2017-12-15T19:48:45Z</time>
      </trkpt>
      <trkpt lat="44.86269" lon="5.56026">
        <ele>1095</ele>
        <time>2017-12-15T19:48:55Z</time>
      </trkpt>
      <trkpt lat="44.86357" lon="5.56133">
        <ele>1082</ele>
        <time>2017-12-15T19:49:06Z</time>
      </trkpt>
      <trkpt lat="44.86369" lon="5.56142">
        <ele>1082</ele>
        <time>2017-12-15T19:49:21Z</time>
      </trkpt>
      <trkpt lat="44.86382" lon="5.5615">
        <ele>1081</ele>
        <time>2017-12-15T19:49:23Z</time>
      </trkpt>
      <trkpt lat="44.86392" lon="5.56161">
        <ele>1080</ele>
        <time>2017-12-15T19:49:39Z</time>
      </trkpt>
      <trkpt lat="44.86395" lon="5.5617">
        <ele>1076</ele>
        <time>2017-12-15T19:49:41Z</time>
      </trkpt>
      <trkpt lat="44.86412" lon="5.56213">
        <ele>1077</ele>
        <time>2017-12-15T19:49:48Z</time>
      </trkpt>
      <trkpt lat="44.86424" lon="5.56223">
        <ele>1075</ele>
        <time>2017-12-15T19:50:06Z</time>
      </trkpt>
      <trkpt lat="44.86448" lon="5.56233">
        <ele>1075</ele>
        <time>2017-12-15T19:50:21Z</time>
      </trkpt>
      <trkpt lat="44.86471" lon="5.56245">
        <ele>1074</ele>
        <time>2017-12-15T19:50:29Z</time>
      </trkpt>
      <trkpt lat="44.86481" lon="5.56253">
        <ele>1073</ele>
        <time>2017-12-15T19:50:43Z</time>
      </trkpt>
      <trkpt lat="44.86491" lon="5.56268">
        <ele>1073</ele>
        <time>2017-12-15T19:50:57Z</time>
      </trkpt>
      <trkpt lat="44.86499" lon="5.56284">
        <ele>1074</ele>
        <time>2017-12-15T19:51:01Z</time>
      </trkpt>
      <trkpt lat="44.86524" lon="5.56357">
        <ele>1071</ele>
        <time>2017-12-15T19:51:19Z</time>
      </trkpt>
      <trkpt lat="44.8653" lon="5.56367">
        <ele>1072</ele>
        <time>2017-12-15T19:51:27Z</time>
      </trkpt>
      <trkpt lat="44.86553" lon="5.56395">
        <ele>1071</ele>
        <time>2017-12-15T19:51:46Z</time>
      </trkpt>
      <trkpt lat="44.8657" lon="5.56416">
        <ele>1068</ele>
        <time>2017-12-15T19:51:53Z</time>
      </trkpt>
      <trkpt lat="44.86579" lon="5.56419">
        <ele>1071</ele>
        <time>2017-12-15T19:52:03Z</time>
      </trkpt>
      <trkpt lat="44.86589" lon="5.56417">
        <ele>1066</ele>
        <time>2017-12-15T19:52:08Z</time>
      </trkpt>
      <trkpt lat="44.86602" lon="5.56408">
        <ele>1059</ele>
        <time>2017-12-15T19:52:13Z</time>
      </trkpt>
      <trkpt lat="44.86616" lon="5.56399">
        <ele>1056</ele>
        <time>2017-12-15T19:52:24Z</time>
      </trkpt>
      <trkpt lat="44.86626" lon="5.56397">
        <ele>1055</ele>
        <time>2017-12-15T19:52:31Z</time>
      </trkpt>
      <trkpt lat="44.86638" lon="5.564">
        <ele>1053</ele>
        <time>2017-12-15T19:52:42Z</time>
      </trkpt>
      <trkpt lat="44.86654" lon="5.56411">
        <ele>1049</ele>
        <time>2017-12-15T19:52:46Z</time>
      </trkpt>
      <trkpt lat="44.86676" lon="5.5643">
        <ele>1048</ele>
        <time>2017-12-15T19:52:56Z</time>
      </trkpt>
      <trkpt lat="44.86685" lon="5.56446">
        <ele>1050</ele>
        <time>2017-12-15T19:53:14Z</time>
      </trkpt>
      <trkpt lat="44.86709" lon="5.56517">
        <ele>1058</ele>
        <time>2017-12-15T19:53:31Z</time>
      </trkpt>
      <trkpt lat="44.86723" lon="5.56536">
        <ele>1057</ele>
        <time>2017-12-15T19:53:45Z</time>
      </trkpt>
      <trkpt lat="44.86742" lon="5.56557">
        <ele>1055</ele>
        <time>2017-12-15T19:53:50Z</time>
      </trkpt>
      <trkpt lat="44.86758" lon="5.5657">
        <ele>1039</ele>
        <time>2017-12-15T19:53:57Z</time>
      </trkpt>
      <trkpt lat="44.86804" lon="5.56597">
        <ele>1037</ele>
        <time>2017-12-15T19:54:11Z</time>
      </trkpt>
      <trkpt lat="44.86814" lon="5.566">
        <ele>1034</ele>
        <time>2017-12-15T19:54:29Z</time>
      </trkpt>
      <trkpt lat="44.86824" lon="5.566">
        <ele>1031</ele>
        <time>2017-12-15T19:54:43Z</time>
      </trkpt>
      <trkpt lat="44.86832" lon="5.566">
        <ele>1029</ele>
        <time>2017-12-15T19:54:57Z</time>
      </trkpt>
      <trkpt lat="44.86843" lon="5.56607">
        <ele>1016</ele>
        <time>2017-12-15T19:55:03Z</time>
      </trkpt>
      <trkpt lat="44.86869" lon="5.56646">
        <ele>1019</ele>
        <time>2017-12-15T19:55:17Z</time>
      </trkpt>
      <trkpt lat="44.86889" lon="5.56663">
        <ele>1014</ele>
        <time>2017-12-15T19:55:20Z</time>
      </trkpt>
      <trkpt lat="44.869" lon="5.5668">
        <ele>1020</ele>
        <time>2017-12-15T19:55:38Z</time>
      </trkpt>
      <trkpt lat="44.86913" lon="5.56715">
        <ele>1026</ele>
        <time>2017-12-15T19:55:44Z</time>
      </trkpt>
      <trkpt lat="44.8692" lon="5.56779">
        <ele>1004</ele>
        <time>2017-12-15T19:55:53Z</time>
      </trkpt>
      <trkpt lat="44.86917" lon="5.56827">
        <ele>1014</ele>
        <time>2017-12-15T19:56:11Z</time>
      </trkpt>
      <trkpt lat="44.86916" lon="5.56866">
        <ele>1037</ele>
        <time>2017-12-15T19:56:14Z</time>
      </trkpt>
      <trkpt lat="44.86916" lon="5.56906">
        <ele>1026</ele>
        <time>2017-12-15T19:56:16Z</time>
      </trkpt>
      <trkpt lat="44.86914" lon="5.56917">
        <ele>1016</ele>
        <time>2017-12-15T19:56:25Z</time>
      </trkpt>
      <trkpt lat="44.86906" lon="5.5695">
        <ele>1026</ele>
        <time>2017-12-15T19:56:29Z</time>
      </trkpt>
      <trkpt lat="44.86899" lon="5.56975">
        <ele>1023</ele>
        <time>2017-12-15T19:56:44Z</time>
      </trkpt>
      <trkpt lat="44.86879" lon="5.57026">
        <ele>1015</ele>
        <time>2017-12-15T19:56:47Z</time>
      </trkpt>
      <trkpt lat="44.86871" lon="5.57052">
        <ele>1014</ele>
        <time>2017-12-15T19:56:55Z</time>
      </trkpt>
      <trkpt lat="44.86858" lon="5.57081">
        <ele>1017</ele>
        <time>2017-12-15T19:57:08Z</time>
      </trkpt>
      <trkpt lat="44.86857" lon="5.57094">
        <ele>1007</ele>
        <time>2017-12-15T19:57:10Z</time>
      </trkpt>
      <trkpt lat="44.86862" lon="5.57101">
        <ele>1004</ele>
        <time>2017-12-15T19:57:12Z</time>
      </trkpt>
      <trkpt lat="44.86867" lon="5.57099">
        <ele>1002</ele>
        <time>2017-12-15T19:57:26Z</time>
      </trkpt>
      <trkpt lat="44.86874" lon="5.57087">
        <ele>1000</ele>
        <time>2017-12-15T19:57:29Z</time>
      </trkpt>
      <trkpt lat="44.86891" lon="5.57031">
        <ele>1010</ele>
        <time>2017-12-15T19:57:39Z</time>
      </trkpt>
      <trkpt lat="44.86899" lon="5.57013">
        <ele>1008</ele>
        <time>2017-12-15T19:57:45Z</time>
      </trkpt>
      <trkpt lat="44.86912" lon="5.56995">
        <ele>1007</ele>
        <time>2017-12-15T19:57:50Z</time>
      </trkpt>
      <trkpt lat="44.86943" lon="5.56931">
        <ele>995</ele>
        <time>2017-12-15T19:58:02Z</time>
      </trkpt>
      <trkpt lat="44.8695" lon="5.56912">
        <ele>997</ele>
        <time>2017-12-15T19:58:21Z</time>
      </trkpt>
      <trkpt lat="44.86953" lon="5.56888">
        <ele>995</ele>
        <time>2017-12-15T19:58:28Z</time>
      </trkpt>
      <trkpt lat="44.86962" lon="5.56807">
        <ele>993</ele>
        <time>2017-12-15T19:58:40Z</time>
      </trkpt>
      <trkpt lat="44.86976" lon="5.56724">
        <ele>990</ele>
        <time>2017-12-15T19:58:59Z</time>
      </trkpt>
      <trkpt lat="44.86984" lon="5.56706">
        <ele>991</ele>
        <time>2017-12-15T19:59:16Z</time>
      </trkpt>
      <trkpt lat="44.86998" lon="5.56687">
        <ele>990</ele>
        <time>2017-12-15T19:59:31Z</time>
      </trkpt>
      <trkpt lat="44.87003" lon="5.56684">
        <ele>991</ele>
        <time>2017-12-15T19:59:39Z</time>
      </trkpt>
      <trkpt lat="44.87011" lon="5.56687">
        <ele>992</ele>
        <time>2017-12-15T19:59:52Z</time>
      </trkpt>
      <trkpt lat="44.8702" lon="5.567">
        <ele>992</ele>
        <time>2017-12-15T20:00:07Z</time>
      </trkpt>
      <trkpt lat="44.87035" lon="5.56725">
        <ele>992</ele>
        <time>2017-12-15T20:00:12Z</time>
      </trkpt>
      <trkpt lat="44.8705" lon="5.56753">
        <ele>986</ele>
        <time>2017-12-15T20:00:16Z</time>
      </trkpt>
      <trkpt lat="44.87055" lon="5.56769">
        <ele>986</ele>
        <time>2017-12-15T20:00:33Z</time>
      </trkpt>
      <trkpt lat="44.87053" lon="5.56779">
        <ele>986</ele>
        <time>2017-12-15T20:00:53Z</time>
      </trkpt>
      <trkpt lat="44.87047" lon="5.56785">
        <ele>985</ele>
        <time>2017-12-15T20:01:05Z</time>
      </trkpt>
      <trkpt lat="44.8704" lon="5.56795">
        <ele>984</ele>
        <time>2017-12-15T20:01:16Z</time>
      </trkpt>
      <trkpt lat="44.87038" lon="5.56808">
        <ele>984</ele>
        <time>2017-12-15T20:01:19Z</time>
      </trkpt>
      <trkpt lat="44.87035" lon="5.56839">
        <ele>986</ele>
        <time>2017-12-15T20:01:35Z</time>
      </trkpt>
      <trkpt lat="44.87024" lon="5.56875">
        <ele>986</ele>
        <time>2017-12-15T20:01:55Z</time>
      </trkpt>
      <trkpt lat="44.87026" lon="5.56916">
        <ele>986</ele>
        <time>2017-12-15T20:02:10Z</time>
      </trkpt>
      <trkpt lat="44.87026" lon="5.56937">
        <ele>990</ele>
        <time>2017-12-15T20:02:18Z</time>
      </trkpt>
      <trkpt lat="44.87023" lon="5.56951">
        <ele>990</ele>
        <time>2017-12-15T20:02:29Z</time>
      </trkpt>
      <trkpt lat="44.87009" lon="5.56979">
        <ele>985</ele>
        <time>2017-12-15T20:02:33Z</time>
      </trkpt>
      <trkpt lat="44.87006" lon="5.56996">
        <ele>978</ele>
        <time>2017-12-15T20:02:46Z</time>
      </trkpt>
      <trkpt lat="44.87007" lon="5.57025">
        <ele>986</ele>
        <time>2017-12-15T20:03:00Z</time>
      </trkpt>
      <trkpt lat="44.87007" lon="5.57041">
        <ele>988</ele>
        <time>2017-12-15T20:03:17Z</time>
      </trkpt>
      <trkpt lat="44.87004" lon="5.57058">
        <ele>986</ele>
        <time>2017-12-15T20:03:32Z</time>
      </trkpt>
      <trkpt lat="44.86992" lon="5.57094">
        <ele>971</ele>
        <time>2017-12-15T20:03:35Z</time>
      </trkpt>
      <trkpt lat="44.8699" lon="5.57107">
        <ele>971</ele>
        <time>2017-12-15T20:03:39Z</time>
      </trkpt>
      <trkpt lat="44.86993" lon="5.57121">
        <ele>970</ele>
        <time>2017-12-15T20:03:54Z</time>
      </trkpt>
      <trkpt lat="44.87008" lon="5.57174">
        <ele>972</ele>
        <time>2017-12-15T20:04:02Z</time>
      </trkpt>
      <trkpt lat="44.87014" lon="5.57217">
        <ele>976</ele>
        <time>2017-12-15T20:04:21Z</time>
      </trkpt>
      <trkpt lat="44.87015" lon="5.57234">
        <ele>970</ele>
        <time>2017-12-15T20:04:36Z</time>
      </trkpt>
      <trkpt lat="44.87012" lon="5.57252">
        <ele>959</ele>
        <time>2017-12-15T20:04:52Z</time>
      </trkpt>
      <trkpt lat="44.87009" lon="5.57272">
        <ele>965</ele>
        <time>2017-12-15T20:05:04Z</time>
      </trkpt>
      <trkpt lat="44.87008" lon="5.57294">
        <ele>967</ele>
        <time>2017-12-15T20:05:10Z</time>
      </trkpt>
      <trkpt lat="44.87006" lon="5.57334">
        <ele>951</ele>
        <time>2017-12-15T20:05:24Z</time>
      </trkpt>
      <trkpt lat="44.87003" lon="5.57347">
        <ele>958</ele>
        <time>2017-12-15T20:05:27Z</time>
      </trkpt>
      <trkpt lat="44.86999" lon="5.57357">
        <ele>939</ele>
        <time>2017-12-15T20:05:46Z</time>
      </trkpt>
      <trkpt lat="44.86991" lon="5.57368">
        <ele>938</ele>
        <time>2017-12-15T20:06:05Z</time>
      </trkpt>
      <trkpt lat="44.86987" lon="5.5738">
        <ele>938</ele>
        <time>2017-12-15T20:06:19Z</time>
      </trkpt>
      <trkpt lat="44.86987" lon="5.57405">
        <ele>941</ele>
        <time>2017-12-15T20:06:22Z</time>
      </trkpt>
      <trkpt lat="44.8698" lon="5.5742">
        <ele>940</ele>
        <time>2017-12-15T20:06:39Z</time>
      </trkpt>
      <trkpt lat="44.86972" lon="5.57431">
        <ele>937</ele>
        <time>2017-12-15T20:06:54Z</time>
      </trkpt>
      <trkpt lat="44.86961" lon="5.57452">
        <ele>934</ele>
        <time>2017-12-15T20:07:11Z</time>
      </trkpt>
      <trkpt lat="44.86953" lon="5.57475">
        <ele>932</ele>
        <time>2017-12-15T20:07:27Z</time>
      </trkpt>
      <trkpt lat="44.86947" lon="5.57502">
        <ele>932</ele>
        <time>2017-12-15T20:07:33Z</time>
      </trkpt>
      <trkpt lat="44.86943" lon="5.57526">
        <ele>933</ele>
        <time>2017-12-15T20:07:39Z</time>
      </trkpt>
      <trkpt lat="44.86941" lon="5.57546">
        <ele>933</ele>
        <time>2017-12-15T20:07:54Z</time>
      </trkpt>
      <trkpt lat="44.86947" lon="5.57588">
        <ele>939</ele>
        <time>2017-12-15T20:08:01Z</time>
      </trkpt>
      <trkpt lat="44.86943" lon="5.57604">
        <ele>939</ele>
        <time>2017-12-15T20:08:14Z</time>
      </trkpt>
      <trkpt lat="44.86923" lon="5.57626">
        <ele>936</ele>
        <time>2017-12-15T20:08:28Z</time>
      </trkpt>
      <trkpt lat="44.86911" lon="5.57639">
        <ele>915</ele>
        <time>2017-12-15T20:08:46Z</time>
      </trkpt>
      <trkpt lat="44.86906" lon="5.57652">
        <ele>916</ele>
        <time>2017-12-15T20:09:06Z</time>
      </trkpt>
      <trkpt lat="44.86905" lon="5.57667">
        <ele>918</ele>
        <time>2017-12-15T20:09:08Z</time>
      </trkpt>
      <trkpt lat="44.86906" lon="5.57685">
        <ele>917</ele>
        <time>2017-12-15T20:09:25Z</time>
      </trkpt>
      <trkpt lat="44.86907" lon="5.57698">
        <ele>916</ele>
        <time>2017-12-15T20:09:33Z</time>
      </trkpt>
      <trkpt lat="44.86906" lon="5.57707">
        <ele>916</ele>
        <time>2017-12-15T20:09:50Z</time>
      </trkpt>
      <trkpt lat="44.86901" lon="5.5772">
        <ele>917</ele>
        <time>2017-12-15T20:09:54Z</time>
      </trkpt>
      <trkpt lat="44.86896" lon="5.57738">
        <ele>918</ele>
        <time>2017-12-15T20:09:58Z</time>
      </trkpt>
      <trkpt lat="44.86894" lon="5.57757">
        <ele>922</ele>
        <time>2017-12-15T20:10:13Z</time>
      </trkpt>
      <trkpt lat="44.86888" lon="5.5777">
        <ele>920</ele>
        <time>2017-12-15T20:10:32Z</time>
      </trkpt>
      <trkpt lat="44.86877" lon="5.57784">
        <ele>917</ele>
        <time>2017-12-15T20:10:42Z</time>
      </trkpt>
      <trkpt lat="44.86868" lon="5.57797">
        <ele>915</ele>
        <time>2017-12-15T20:10:58Z</time>
      </trkpt>
      <trkpt lat="44.86854" lon="5.57844">
        <ele>917</ele>
        <time>2017-12-15T20:11:16Z</time>
      </trkpt>
      <trkpt lat="44.86842" lon="5.57874">
        <ele>921</ele>
        <time>2017-12-15T20:11:30Z</time>
      </trkpt>
      <trkpt lat="44.86829" lon="5.579">
        <ele>902</ele>
        <time>2017-12-15T20:11:33Z</time>
      </trkpt>
      <trkpt lat="44.8681" lon="5.57928">
        <ele>908</ele>
        <time>2017-12-15T20:11:53Z</time>
      </trkpt>
      <trkpt lat="44.86791" lon="5.57951">
        <ele>906</ele>
        <time>2017-12-15T20:11:57Z</time>
      </trkpt>
      <trkpt lat="44.86761" lon="5.5798">
        <ele>905</ele>
        <time>2017-12-15T20:12:15Z</time>
      </trkpt>
      <trkpt lat="44.86749" lon="5.57988">
        <ele>894</ele>
        <time>2017-12-15T20:12:34Z</time>
      </trkpt>
      <trkpt lat="44.86734" lon="5.57993">
        <ele>892</ele>
        <time>2017-12-15T20:12:42Z</time>
      </trkpt>
      <trkpt lat="44.86721" lon="5.57999">
        <ele>888</ele>
        <time>2017-12-15T20:12:58Z</time>
      </trkpt>
      <trkpt lat="44.86708" lon="5.58008">
        <ele>898</ele>
        <time>2017-12-15T20:13:08Z</time>
      </trkpt>
      <trkpt lat="44.86694" lon="5.58017">
        <ele>895</ele>
        <time>2017-12-15T20:13:25Z</time>
      </trkpt>
      <trkpt lat="44.86681" lon="5.58022">
        <ele>893</ele>
        <time>2017-12-15T20:13:37Z</time>
      </trkpt>
      <trkpt lat="44.86657" lon="5.58027">
        <ele>877</ele>
        <time>2017-12-15T20:13:52Z</time>
      </trkpt>
      <trkpt lat="44.86649" lon="5.58031">
        <ele>876</ele>
        <time>2017-12-15T20:14:07Z</time>
      </trkpt>
      <trkpt lat="44.86641" lon="5.58041">
        <ele>876</ele>
        <time>2017-12-15T20:14:23Z</time>
      </trkpt>
      <trkpt lat="44.86631" lon="5.58062">
        <ele>877</ele>
        <time>2017-12-15T20:14:25Z</time>
      </trkpt>
      <trkpt lat="44.86617" lon="5.58101">
        <ele>883</ele>
        <time>2017-12-15T20:14:29Z</time>
      </trkpt>
      <trkpt lat="44.86603" lon="5.58142">
        <ele>883</ele>
        <time>2017-12-15T20:14:35Z</time>
      </trkpt>
      <trkpt lat="44.86589" lon="5.58199">
        <ele>889</ele>
        <time>2017-12-15T20:14:53Z</time>
      </trkpt>
      <trkpt lat="44.86578" lon="5.58254">
        <ele>878</ele>
        <time>2017-12-15T20:14:58Z</time>
      </trkpt>
      <trkpt lat="44.86577" lon="5.58273">
        <ele>872</ele>
        <time>2017-12-15T20:15:14Z</time>
      </trkpt>
      <trkpt lat="44.86583" lon="5.58357">
        <ele>868</ele>
        <time>2017-12-15T20:15:21Z</time>
      </trkpt>
      <trkpt lat="44.86586" lon="5.58377">
        <ele>885</ele>
        <time>2017-12-15T20:15:23Z</time>
      </trkpt>
      <trkpt lat="44.86601" lon="5.58405">
        <ele>882</ele>
        <time>2017-12-15T20:15:30Z</time>
      </trkpt>
      <trkpt lat="44.86643" lon="5.5847">
        <ele>879</ele>
        <time>2017-12-15T20:15:39Z</time>
      </trkpt>
      <trkpt lat="44.86652" lon="5.58492">
        <ele>880</ele>
        <time>2017-12-15T20:15:50Z</time>
      </trkpt>
      <trkpt lat="44.86656" lon="5.58506">
        <ele>876</ele>
        <time>2017-12-15T20:16:06Z</time>
      </trkpt>
      <trkpt lat="44.86658" lon="5.5854">
        <ele>872</ele>
        <time>2017-12-15T20:16:23Z</time>
      </trkpt>
      <trkpt lat="44.86661" lon="5.58621">
        <ele>865</ele>
        <time>2017-12-15T20:16:42Z</time>
      </trkpt>
      <trkpt lat="44.86664" lon="5.58637">
        <ele>865</ele>
        <time>2017-12-15T20:16:45Z</time>
      </trkpt>
      <trkpt lat="44.86669" lon="5.58648">
        <ele>879</ele>
        <time>2017-12-15T20:16:49Z</time>
      </trkpt>
      <trkpt lat="44.86679" lon="5.58662">
        <ele>878</ele>
        <time>2017-12-15T20:16:55Z</time>
      </trkpt>
      <trkpt lat="44.86705" lon="5.58693">
        <ele>879</ele>
        <time>2017-12-15T20:17:11Z</time>
      </trkpt>
      <trkpt lat="44.86715" lon="5.58713">
        <ele>879</ele>
        <time>2017-12-15T20:17:28Z</time>
      </trkpt>
      <trkpt lat="44.86724" lon="5.58737">
        <ele>879</ele>
        <time>2017-12-15T20:17:42Z</time>
      </trkpt>
      <trkpt lat="44.86728" lon="5.58761">
        <ele>875</ele>
        <time>2017-12-15T20:17:48Z</time>
      </trkpt>
      <trkpt lat="44.86727" lon="5.58803">
        <ele>871</ele>
        <time>2017-12-15T20:17:51Z</time>
      </trkpt>
      <trkpt lat="44.86711" lon="5.58876">
        <ele>869</ele>
        <time>2017-12-15T20:18:04Z</time>
      </trkpt>
      <trkpt lat="44.86703" lon="5.58901">
        <ele>868</ele>
        <time>2017-12-15T20:18:13Z</time>
      </trkpt>
      <trkpt lat="44.86696" lon="5.58915">
        <ele>867</ele>
        <time>2017-12-15T20:18:31Z</time>
      </trkpt>
      <trkpt lat="44.8667" lon="5.58941">
        <ele>870</ele>
        <time>2017-12-15T20:18:40Z</time>
      </trkpt>
      <trkpt lat="44.86662" lon="5.58952">
        <ele>854</ele>
        <time>2017-12-15T20:18:55Z</time>
      </trkpt>
      <trkpt lat="44.86659" lon="5.5897">
        <ele>855</ele>
        <time>2017-12-15T20:19:09Z</time>
      </trkpt>
      <trkpt lat="44.8666" lon="5.59008">
        <ele>864</ele>
        <time>2017-12-15T20:19:11Z</time>
      </trkpt>
      <trkpt lat="44.86661" lon="5.59062">
        <ele>861</ele>
        <time>2017-12-15T20:19:19Z</time>
      </trkpt>
      <trkpt lat="44.86666" lon="5.59085">
        <ele>871</ele>
        <time>2017-12-15T20:19:34Z</time>
      </trkpt>
      <trkpt lat="44.86675" lon="5.59115">
        <ele>881</ele>
        <time>2017-12-15T20:19:46Z</time>
      </trkpt>
      <trkpt lat="44.86677" lon="5.59126">
        <ele>881</ele>
        <time>2017-12-15T20:19:57Z</time>
      </trkpt>
      <trkpt lat="44.86695" lon="5.59224">
        <ele>872</ele>
        <time>2017-12-15T20:20:00Z</time>
      </trkpt>
      <trkpt lat="44.867" lon="5.59233">
        <ele>872</ele>
        <time>2017-12-15T20:20:02Z</time>
      </trkpt>
      <trkpt lat="44.86707" lon="5.5924">
        <ele>873</ele>
        <time>2017-12-15T20:20:22Z</time>
      </trkpt>
      <trkpt lat="44.86718" lon="5.59247">
        <ele>876</ele>
        <time>2017-12-15T20:20:26Z</time>
      </trkpt>
      <trkpt lat="44.86791" lon="5.59276">
        <ele>886</ele>
        <time>2017-12-15T20:20:30Z</time>
      </trkpt>
      <trkpt lat="44.86799" lon="5.59284">
        <ele>886</ele>
        <time>2017-12-15T20:20:41Z</time>
      </trkpt>
      <trkpt lat="44.86825" lon="5.5934">
        <ele>886</ele>
        <time>2017-12-15T20:20:45Z</time>
      </trkpt>
      <trkpt lat="44.86835" lon="5.5937">
        <ele>895</ele>
        <time>2017-12-15T20:21:01Z</time>
      </trkpt>
      <trkpt lat="44.86835" lon="5.59384">
        <ele>895</ele>
        <time>2017-12-15T20:21:20Z</time>
      </trkpt>
      <trkpt lat="44.8683" lon="5.594">
        <ele>885</ele>
        <time>2017-12-15T20:21:36Z</time>
      </trkpt>
      <trkpt lat="44.86815" lon="5.59424">
        <ele>885</ele>
        <time>2017-12-15T20:21:40Z</time>
      </trkpt>
      <trkpt lat="44.86811" lon="5.59435">
        <ele>884</ele>
        <time>2017-12-15T20:21:45Z</time>
      </trkpt>
      <trkpt lat="44.86813" lon="5.59443">
        <ele>883</ele>
        <time>2017-12-15T20:22:03Z</time>
      </trkpt>
      <trkpt lat="44.86824" lon="5.59466">
        <ele>883</ele>
        <time>2017-12-15T20:22:15Z</time>
      </trkpt>
      <trkpt lat="44.86827" lon="5.59468">
        <ele>884</ele>
        <time>2017-12-15T20:22:31Z</time>
      </trkpt>
      <trkpt lat="44.86832" lon="5.59467">
        <ele>884</ele>
        <time>2017-12-15T20:22:45Z</time>
      </trkpt>
      <trkpt lat="44.86851" lon="5.59455">
        <ele>892</ele>
        <time>2017-12-15T20:22:53Z</time>
      </trkpt>
      <trkpt lat="44.86871" lon="5.59455">
        <ele>893</ele>
        <time>2017-12-15T20:23:05Z</time>
      </trkpt>
      <trkpt lat="44.86901" lon="5.59467">
        <ele>894</ele>
        <time>2017-12-15T20:23:17Z</time>
      </trkpt>
      <trkpt lat="44.86905" lon="5.59469">
        <ele>894</ele>
        <time>2017-12-15T20:23:36Z</time>
      </trkpt>
      <trkpt lat="44.86913" lon="5.59481">
        <ele>894</ele>
        <time>2017-12-15T20:23:42Z</time>
      </trkpt>
      <trkpt lat="44.8694" lon="5.5956">
        <ele>889</ele>
        <time>2017-12-15T20:23:58Z</time>
      </trkpt>
      <trkpt lat="44.8695" lon="5.59577">
        <ele>889</ele>
        <time>2017-12-15T20:24:09Z</time>
      </trkpt>
      <trkpt lat="44.86965" lon="5.59596">
        <ele>882</ele>
        <time>2017-12-15T20:24:26Z</time>
      </trkpt>
      <trkpt lat="44.86993" lon="5.59635">
        <ele>882</ele>
        <time>2017-12-15T20:24:45Z</time>
      </trkpt>
      <trkpt lat="44.87009" lon="5.59672">
        <ele>886</ele>
        <time>2017-12-15T20:24:59Z</time>
      </trkpt>
      <trkpt lat="44.8701" lon="5.59677">
        <ele>887</ele>
        <time>2017-12-15T20:25:18Z</time>
      </trkpt>
      <trkpt lat="44.87" lon="5.59685">
        <ele>878</ele>
        <time>2017-12-15T20:25:20Z</time>
      </trkpt>
      <trkpt lat="44.8698" lon="5.59698">
        <ele>875</ele>
        <time>2017-12-15T20:25:38Z</time>
      </trkpt>
      <trkpt lat="44.86964" lon="5.59713">
        <ele>872</ele>
        <time>2017-12-15T20:25:40Z</time>
      </trkpt>
      <trkpt lat="44.86953" lon="5.59726">
        <ele>871</ele>
        <time>2017-12-15T20:25:53Z</time>
      </trkpt>
      <trkpt lat="44.86946" lon="5.59738">
        <ele>869</ele>
        <time>2017-12-15T20:25:59Z</time>
      </trkpt>
      <trkpt lat="44.86941" lon="5.59773">
        <ele>867</ele>
        <time>2017-12-15T20:26:19Z</time>
      </trkpt>
      <trkpt lat="44.86942" lon="5.59845">
        <ele>863</ele>
        <time>2017-12-15T20:26:32Z</time>
      </trkpt>
      <trkpt lat="44.8694" lon="5.59877">
        <ele>862</ele>
        <time>2017-12-15T20:26:35Z</time>
      </trkpt>
      <trkpt lat="44.86935" lon="5.59904">
        <ele>859</ele>
        <time>2017-12-15T20:26:46Z</time>
      </trkpt>
      <trkpt lat="44.86927" lon="5.59936">
        <ele>854</ele>
        <time>2017-12-15T20:27:05Z</time>
      </trkpt>
      <trkpt lat="44.86914" lon="5.5997">
        <ele>846</ele>
        <time>2017-12-15T20:27:22Z</time>
      </trkpt>
      <trkpt lat="44.86883" lon="5.60043">
        <ele>840</ele>
        <time>2017-12-15T20:27:30Z</time>
      </trkpt>
      <trkpt lat="44.86856" lon="5.60101">
        <ele>836</ele>
        <time>2017-12-15T20:27:41Z</time>
      </trkpt>
      <trkpt lat="44.86849" lon="5.60139">
        <ele>835</ele>
        <time>2017-12-15T20:27:45Z</time>
      </trkpt>
      <trkpt lat="44.86844" lon="5.6017">
        <ele>833</ele>
        <time>2017-12-15T20:27:55Z</time>
      </trkpt>
      <trkpt lat="44.86839" lon="5.60189">
        <ele>836</ele>
        <time>2017-12-15T20:28:14Z</time>
      </trkpt>
      <trkpt lat="44.86833" lon="5.60198">
        <ele>824</ele>
        <time>2017-12-15T20:28:31Z</time>
      </trkpt>
      <trkpt lat="44.86824" lon="5.60205">
        <ele>824</ele>
        <time>2017-12-15T20:28:37Z</time>
      </trkpt>
      <trkpt lat="44.868" lon="5.60221">
        <ele>822</ele>
        <time>2017-12-15T20:28:52Z</time>
      </trkpt>
      <trkpt lat="44.86764" lon="5.60254">
        <ele>816</ele>
        <time>2017-12-15T20:28:59Z</time>
      </trkpt>
      <trkpt lat="44.86751" lon="5.60274">
        <ele>817</ele>
        <time>2017-12-15T20:29:05Z</time>
      </trkpt>
      <trkpt lat="44.86743" lon="5.60296">
        <ele>806</ele>
        <time>2017-12-15T20:29:25Z</time>
      </trkpt>
      <trkpt lat="44.86737" lon="5.60321">
        <ele>807</ele>
        <time>2017-12-15T20:29:40Z</time>
      </trkpt>
      <trkpt lat="44.86735" lon="5.6035">
        <ele>809</ele>
        <time>2017-12-15T20:29:44Z</time>
      </trkpt>
      <trkpt lat="44.86741" lon="5.60402">
        <ele>809</ele>
        <time>2017-12-15T20:29:57Z</time>
      </trkpt>
      <trkpt lat="44.86751" lon="5.60469">
        <ele>812</ele>
        <time>2017-12-15T20:30:01Z</time>
      </trkpt>
      <trkpt lat="44.86762" lon="5.60551">
        <ele>810</ele>
        <time>2017-12-15T20:30:07Z</time>
      </trkpt>
      <trkpt lat="44.86762" lon="5.60573">
        <ele>808</ele>
        <time>2017-12-15T20:30:21Z</time>
      </trkpt>
      <trkpt lat="44.8676" lon="5.60577">
        <ele>808</ele>
        <time>2017-12-15T20:30:41Z</time>
      </trkpt>
      <trkpt lat="44.86754" lon="5.60582">
        <ele>806</ele>
        <time>2017-12-15T20:30:47Z</time>
      </trkpt>
      <trkpt lat="44.86753" lon="5.60578">
        <ele>806</ele>
        <time>2017-12-15T20:31:05Z</time>
      </trkpt>
      <trkpt lat="44.86743" lon="5.60554">
        <ele>806</ele>
        <time>2017-12-15T20:31:17Z</time>
      </trkpt>
      <trkpt lat="44.86725" lon="5.60509">
        <ele>807</ele>
        <time>2017-12-15T20:31:34Z</time>
      </trkpt>
      <trkpt lat="44.86706" lon="5.60461">
        <ele>810</ele>
        <time>2017-12-15T20:31:45Z</time>
      </trkpt>
      <trkpt lat="44.86701" lon="5.60445">
        <ele>810</ele>
        <time>2017-12-15T20:32:00Z</time>
      </trkpt>
      <trkpt lat="44.86694" lon="5.60411">
        <ele>809</ele>
        <time>2017-12-15T20:32:12Z</time>
      </trkpt>
      <trkpt lat="44.8669" lon="5.6037">
        <ele>807</ele>
        <time>2017-12-15T20:32:19Z</time>
      </trkpt>
      <trkpt lat="44.86691" lon="5.60283">
        <ele>800</ele>
        <time>2017-12-15T20:32:21Z</time>
      </trkpt>
      <trkpt lat="44.86696" lon="5.60185">
        <ele>794</ele>
        <time>2017-12-15T20:32:35Z</time>
      </trkpt>
      <trkpt lat="44.8669" lon="5.60116">
        <ele>796</ele>
        <time>2017-12-15T20:32:37Z</time>
      </trkpt>
      <trkpt lat="44.86682" lon="5.60078">
        <ele>796</ele>
        <time>2017-12-15T20:32:56Z</time>
      </trkpt>
      <trkpt lat="44.86673" lon="5.60043">
        <ele>800</ele>
        <time>2017-12-15T20:33:07Z</time>
      </trkpt>
      <trkpt lat="44.86661" lon="5.60008">
        <ele>788</ele>
        <time>2017-12-15T20:33:10Z</time>
      </trkpt>
      <trkpt lat="44.86638" lon="5.59964">
        <ele>782</ele>
        <time>2017-12-15T20:33:29Z</time>
      </trkpt>
      <trkpt lat="44.86617" lon="5.59935">
        <ele>778</ele>
        <time>2017-12-15T20:33:46Z</time>
      </trkpt>
      <trkpt lat="44.86582" lon="5.59898">
        <ele>767</ele>
        <time>2017-12-15T20:34:04Z</time>
      </trkpt>
      <trkpt lat="44.8654" lon="5.59872">
        <ele>765</ele>
        <time>2017-12-15T20:34:20Z</time>
      </trkpt>
      <trkpt lat="44.865" lon="5.59858">
        <ele>767</ele>
        <time>2017-12-15T20:34:25Z</time>
      </trkpt>
      <trkpt lat="44.86469" lon="5.59853">
        <ele>774</ele>
        <time>2017-12-15T20:34:37Z</time>
      </trkpt>
      <trkpt lat="44.86431" lon="5.59856">
        <ele>780</ele>
        <time>2017-12-15T20:34:40Z</time>
      </trkpt>
      <trkpt lat="44.86397" lon="5.59866">
        <ele>787</ele>
        <time>2017-12-15T20:34:59Z</time>
      </trkpt>
      <trkpt lat="44.86369" lon="5.59879">
        <ele>787</ele>
        <time>2017-12-15T20:35:11Z</time>
      </trkpt>
      <trkpt lat="44.86345" lon="5.59894">
        <ele>785</ele>
        <time>2017-12-15T20:35:20Z</time>
      </trkpt>
      <trkpt lat="44.86323" lon="5.5991">
        <ele>789</ele>
        <time>2017-12-15T20:35:36Z</time>
      </trkpt>
      <trkpt lat="44.86296" lon="5.59936">
        <ele>787</ele>
        <time>2017-12-15T20:35:53Z</time>
      </trkpt>
      <trkpt lat="44.8625" lon="5.59995">
        <ele>794</ele>
        <time>2017-12-15T20:36:00Z</time>
      </trkpt>
      <trkpt lat="44.86214" lon="5.60064">
        <ele>802</ele>
        <time>2017-12-15T20:36:10Z</time>
      </trkpt>
      <trkpt lat="44.8613" lon="5.60281">
        <ele>800</ele>
        <time>2017-12-15T20:36:30Z</time>
      </trkpt>
      <trkpt lat="44.86005" lon="5.60604">
        <ele>795</ele>
        <time>2017-12-15T20:36:35Z</time>
      </trkpt>
      <trkpt lat="44.85982" lon="5.60665">
        <ele>799</ele>
        <time>2017-12-15T20:36:44Z</time>
      </trkpt>
      <trkpt lat="44.85967" lon="5.60703">
        <ele>796</ele>
        <time>2017-12-15T20:36:51Z</time>
      </trkpt>
      <trkpt lat="44.85944" lon="5.60748">
        <ele>796</ele>
        <time>2017-12-15T20:36:53Z</time>
      </trkpt>
      <trkpt lat="44.85893" lon="5.6084">
        <ele>793</ele>
        <time>2017-12-15T20:36:56Z</time>
      </trkpt>
      <trkpt lat="44.85866" lon="5.60878">
        <ele>793</ele>
        <time>2017-12-15T20:37:00Z</time>
      </trkpt>
      <trkpt lat="44.85806" lon="5.60954">
        <ele>788</ele>
        <time>2017-12-15T20:37:02Z</time>
      </trkpt>
      <trkpt lat="44.85772" lon="5.60991">
        <ele>788</ele>
        <time>2017-12-15T20:37:22Z</time>
      </trkpt>
      <trkpt lat="44.85707" lon="5.61063">
        <ele>788</ele>
        <time>2017-12-15T20:37:28Z</time>
      </trkpt>
      <trkpt lat="44.85661" lon="5.61118">
        <ele>790</ele>
        <time>2017-12-15T20:37:48Z</time>
      </trkpt>
      <trkpt lat="44.85629" lon="5.61172">
        <ele>782</ele>
        <time>2017-12-15T20:37:50Z</time>
      </trkpt>
      <trkpt lat="44.85587" lon="5.61264">
        <ele>778</ele>
        <time>2017-12-15T20:37:53Z</time>
      </trkpt>
      <trkpt lat="44.85503" lon="5.61448">
        <ele>763</ele>
        <time>2017-12-15T20:38:02Z</time>
      </trkpt>
      <trkpt lat="44.85441" lon="5.61581">
        <ele>760</ele>
        <time>2017-12-15T20:38:21Z</time>
      </trkpt>
      <trkpt lat="44.85414" lon="5.6164">
        <ele>758</ele>
        <time>2017-12-15T20:38:30Z</time>
      </trkpt>
      <trkpt lat="44.85386" lon="5.61723">
        <ele>755</ele>
        <time>2017-12-15T20:38:35Z</time>
      </trkpt>
      <trkpt lat="44.85347" lon="5.61851">
        <ele>751</ele>
        <time>2017-12-15T20:38:53Z</time>
      </trkpt>
      <trkpt lat="44.85338" lon="5.61878">
        <ele>750</ele>
        <time>2017-12-15T20:39:12Z</time>
      </trkpt>
      <trkpt lat="44.85327" lon="5.61901">
        <ele>752</ele>
        <time>2017-12-15T20:39:23Z</time>
      </trkpt>
      <trkpt lat="44.85306" lon="5.61945">
        <ele>750</ele>
        <time>2017-12-15T20:39:25Z</time>
      </trkpt>
      <trkpt lat="44.85282" lon="5.61985">
        <ele>749</ele>
        <time>2017-12-15T20:39:39Z</time>
      </trkpt>
      <trkpt lat="44.85277" lon="5.61987">
        <ele>749</ele>
        <time>2017-12-15T20:39:57Z</time>
      </trkpt>
      <trkpt lat="44.85265" lon="5.62003">
        <ele>747</ele>
        <time>2017-12-15T20:40:10Z</time>
      </trkpt>
      <trkpt lat="44.85244" lon="5.62022">
        <ele>747</ele>
        <time>2017-12-15T20:40:14Z</time>
      </trkpt>
      <trkpt lat="44.85214" lon="5.62043">
        <ele>746</ele>
        <time>2017-12-15T20:40:28Z</time>
      </trkpt>
      <trkpt lat="44.85181" lon="5.62062">
        <ele>746</ele>
        <time>2017-12-15T20:40:47Z</time>
      </trkpt>
      <trkpt lat="44.85152" lon="5.62072">
        <ele>748</ele>
        <time>2017-12-15T20:40:54Z</time>
      </trkpt>
      <trkpt lat="44.8511" lon="5.62082">
        <ele>750</ele>
        <time>2017-12-15T20:40:57Z</time>
      </trkpt>
      <trkpt lat="44.85073" lon="5.62082">
        <ele>753</ele>
        <time>2017-12-15T20:41:16Z</time>
      </trkpt>
      <trkpt lat="44.85064" lon="5.62084">
        <ele>750</ele>
        <time>2017-12-15T20:41:28Z</time>
      </trkpt>
      <trkpt lat="44.85012" lon="5.62065">
        <ele>756</ele>
        <time>2017-12-15T20:41:37Z</time>
      </trkpt>
      <trkpt lat="44.84981" lon="5.62047">
        <ele>753</ele>
        <time>2017-12-15T20:41:54Z</time>
      </trkpt>
      <trkpt lat="44.84951" lon="5.62025">
        <ele>751</ele>
        <time>2017-12-15T20:42:04Z</time>
      </trkpt>
      <trkpt lat="44.84924" lon="5.61995">
        <ele>753</ele>
        <time>2017-12-15T20:42:18Z</time>
      </trkpt>
      <trkpt lat="44.84895" lon="5.61954">
        <ele>748</ele>
        <time>2017-12-15T20:42:26Z</time>
      </trkpt>
      <trkpt lat="44.84868" lon="5.61914">
        <ele>754</ele>
        <time>2017-12-15T20:42:36Z</time>
      </trkpt>
      <trkpt lat="44.84849" lon="5.61891">
        <ele>753</ele>
        <time>2017-12-15T20:42:50Z</time>
      </trkpt>
      <trkpt lat="44.84826" lon="5.6187">
        <ele>747</ele>
        <time>2017-12-15T20:42:54Z</time>
      </trkpt>
      <trkpt lat="44.84805" lon="5.61857">
        <ele>747</ele>
        <time>2017-12-15T20:43:12Z</time>
      </trkpt>
      <trkpt lat="44.84778" lon="5.61846">
        <ele>746</ele>
        <time>2017-12-15T20:43:27Z</time>
      </trkpt>
      <trkpt lat="44.8475" lon="5.6184">
        <ele>747</ele>
        <time>2017-12-15T20:43:47Z</time>
      </trkpt>
      <trkpt lat="44.84725" lon="5.61839">
        <ele>747</ele>
        <time>2017-12-15T20:44:06Z</time>
      </trkpt>
      <trkpt lat="44.84695" lon="5.61846">
        <ele>750</ele>
        <time>2017-12-15T20:44:14Z</time>
      </trkpt>
      <trkpt lat="44.84667" lon="5.61853">
        <ele>753</ele>
        <time>2017-12-15T20:44:29Z</time>
      </trkpt>
      <trkpt lat="44.84638" lon="5.61856">
        <ele>753</ele>
        <time>2017-12-15T20:44:43Z</time>
      </trkpt>
      <trkpt lat="44.84607" lon="5.61853">
        <ele>754</ele>
        <time>2017-12-15T20:45:01Z</time>
      </trkpt>
      <trkpt lat="44.84578" lon="5.61843">
        <ele>756</ele>
        <time>2017-12-15T20:45:03Z</time>
      </trkpt>
      <trkpt lat="44.8455" lon="5.61829">
        <ele>764</ele>
        <time>2017-12-15T20:45:20Z</time>
      </trkpt>
      <trkpt lat="44.84526" lon="5.61808">
        <ele>763</ele>
        <time>2017-12-15T20:45:28Z</time>
      </trkpt>
      <trkpt lat="44.84469" lon="5.61759">
        <ele>757</ele>
        <time>2017-12-15T20:45:43Z</time>
      </trkpt>
      <trkpt lat="44.84456" lon="5.61751">
        <ele>756</ele>
        <time>2017-12-15T20:45:57Z</time>
      </trkpt>
      <trkpt lat="44.84433" lon="5.61742">
        <ele>765</ele>
        <time>2017-12-15T20:46:08Z</time>
      </trkpt>
      <trkpt lat="44.8441" lon="5.61739">
        <ele>762</ele>
        <time>2017-12-15T20:46:26Z</time>
      </trkpt>
      <trkpt lat="44.84402" lon="5.61738">
        <ele>764</ele>
        <time>2017-12-15T20:46:34Z</time>
      </trkpt>
      <trkpt lat="44.84392" lon="5.6174">
        <ele>766</ele>
        <time>2017-12-15T20:46:52Z</time>
      </trkpt>
      <trkpt lat="44.84376" lon="5.61745">
        <ele>767</ele>
        <time>2017-12-15T20:47:06Z</time>
      </trkpt>
      <trkpt lat="44.8436" lon="5.61756">
        <ele>756</ele>
        <time>2017-12-15T20:47:18Z</time>
      </trkpt>
      <trkpt lat="44.84314" lon="5.61789">
        <ele>760</ele>
        <time>2017-12-15T20:47:24Z</time>
      </trkpt>
      <trkpt lat="44.84286" lon="5.61806">
        <ele>759</ele>
        <time>2017-12-15T20:47:26Z</time>
      </trkpt>
      <trkpt lat="44.84262" lon="5.61814">
        <ele>759</ele>
        <time>2017-12-15T20:47:34Z</time>
      </trkpt>
      <trkpt lat="44.84237" lon="5.61816">
        <ele>760</ele>
        <time>2017-12-15T20:47:48Z</time>
      </trkpt>
      <trkpt lat="44.84215" lon="5.61812">
        <ele>760</ele>
        <time>2017-12-15T20:48:06Z</time>
      </trkpt>
      <trkpt lat="44.84195" lon="5.61803">
        <ele>759</ele>
        <time>2017-12-15T20:48:24Z</time>
      </trkpt>
      <trkpt lat="44.84176" lon="5.61788">
        <ele>761</ele>
        <time>2017-12-15T20:48:32Z</time>
      </trkpt>
      <trkpt lat="44.84157" lon="5.61769">
        <ele>753</ele>
        <time>2017-12-15T20:48:51Z</time>
      </trkpt>
      <trkpt lat="44.84138" lon="5.61739">
        <ele>761</ele>
        <time>2017-12-15T20:49:02Z</time>
      </trkpt>
      <trkpt lat="44.84099" lon="5.61663">
        <ele>765</ele>
        <time>2017-12-15T20:49:22Z</time>
      </trkpt>
      <trkpt lat="44.84069" lon="5.61606">
        <ele>757</ele>
        <time>2017-12-15T20:49:38Z</time>
      </trkpt>
      <trkpt lat="44.84059" lon="5.61583">
        <ele>765</ele>
        <time>2017-12-15T20:49:40Z</time>
      </trkpt>
      <trkpt lat="44.84045" lon="5.61537">
        <ele>762</ele>
        <time>2017-12-15T20:49:45Z</time>
      </trkpt>
      <trkpt lat="44.84036" lon="5.61495">
        <ele>766</ele>
        <time>2017-12-15T20:49:51Z</time>
      </trkpt>
      <trkpt lat="44.8403" lon="5.61429">
        <ele>766</ele>
        <time>2017-12-15T20:49:55Z</time>
      </trkpt>
      <trkpt lat="44.84023" lon="5.61373">
        <ele>768</ele>
        <time>2017-12-15T20:50:03Z</time>
      </trkpt>
      <trkpt lat="44.84016" lon="5.61336">
        <ele>766</ele>
        <time>2017-12-15T20:50:19Z</time>
      </trkpt>
      <trkpt lat="44.83988" lon="5.61248">
        <ele>764</ele>
        <time>2017-12-15T20:50:24Z</time>
      </trkpt>
      <trkpt lat="44.83962" lon="5.61196">
        <ele>763</ele>
        <time>2017-12-15T20:50:36Z</time>
      </trkpt>
      <trkpt lat="44.83954" lon="5.61179">
        <ele>763</ele>
        <time>2017-12-15T20:50:42Z</time>
      </trkpt>
      <trkpt lat="44.83917" lon="5.61131">
        <ele>771</ele>
        <time>2017-12-15T20:50:44Z</time>
      </trkpt>
      <trkpt lat="44.8384" lon="5.61037">
        <ele>775</ele>
        <time>2017-12-15T20:50:48Z</time>
      </trkpt>
      <trkpt lat="44.83819" lon="5.61011">
        <ele>765</ele>
        <time>2017-12-15T20:50:52Z</time>
      </trkpt>
      <trkpt lat="44.83811" lon="5.61">
        <ele>763</ele>
        <time>2017-12-15T20:51:04Z</time>
      </trkpt>
      <trkpt lat="44.83804" lon="5.60987">
        <ele>769</ele>
        <time>2017-12-15T20:51:17Z</time>
      </trkpt>
      <trkpt lat="44.8379" lon="5.60961">
        <ele>769</ele>
        <time>2017-12-15T20:51:33Z</time>
      </trkpt>
      <trkpt lat="44.83781" lon="5.60941">
        <ele>769</ele>
        <time>2017-12-15T20:51:46Z</time>
      </trkpt>
      <trkpt lat="44.83772" lon="5.60913">
        <ele>776</ele>
        <time>2017-12-15T20:51:52Z</time>
      </trkpt>
      <trkpt lat="44.83763" lon="5.60873">
        <ele>779</ele>
        <time>2017-12-15T20:52:04Z</time>
      </trkpt>
      <trkpt lat="44.83754" lon="5.60793">
        <ele>788</ele>
        <time>2017-12-15T20:52:20Z</time>
      </trkpt>
      <trkpt lat="44.83751" lon="5.60764">
        <ele>786</ele>
        <time>2017-12-15T20:52:38Z</time>
      </trkpt>
      <trkpt lat="44.83742" lon="5.60728">
        <ele>777</ele>
        <time>2017-12-15T20:52:55Z</time>
      </trkpt>
      <trkpt lat="44.8373" lon="5.60701">
        <ele>778</ele>
        <time>2017-12-15T20:52:59Z</time>
      </trkpt>
      <trkpt lat="44.83712" lon="5.6067">
        <ele>778</ele>
        <time>2017-12-15T20:53:18Z</time>
      </trkpt>
      <trkpt lat="44.83661" lon="5.60601">
        <ele>773</ele>
        <time>2017-12-15T20:53:21Z</time>
      </trkpt>
      <trkpt lat="44.83652" lon="5.60589">
        <ele>774</ele>
        <time>2017-12-15T20:53:33Z</time>
      </trkpt>
      <trkpt lat="44.83641" lon="5.60571">
        <ele>777</ele>
        <time>2017-12-15T20:53:47Z</time>
      </trkpt>
      <trkpt lat="44.8363" lon="5.60549">
        <ele>776</ele>
        <time>2017-12-15T20:53:59Z</time>
      </trkpt>
      <trkpt lat="44.83622" lon="5.60535">
        <ele>775</ele>
        <time>2017-12-15T20:54:07Z</time>
      </trkpt>
      <trkpt lat="44.83613" lon="5.60515">
        <ele>775</ele>
        <time>2017-12-15T20:54:20Z</time>
      </trkpt>
      <trkpt lat="44.83592" lon="5.60444">
        <ele>783</ele>
        <time>2017-12-15T20:54:25Z</time>
      </trkpt>
      <trkpt lat="44.83584" lon="5.604">
        <ele>787</ele>
        <time>2017-12-15T20:54:37Z</time>
      </trkpt>
      <trkpt lat="44.83581" lon="5.60356">
        <ele>779</ele>
        <time>2017-12-15T20:54:49Z</time>
      </trkpt>
      <trkpt lat="44.83576" lon="5.60272">
        <ele>777</ele>
        <time>2017-12-15T20:55:02Z</time>
      </trkpt>
      <trkpt lat="44.8357" lon="5.60219">
        <ele>775</ele>
        <time>2017-12-15T20:55:20Z</time>
      </trkpt>
      <trkpt lat="44.8356" lon="5.60177">
        <ele>775</ele>
        <time>2017-12-15T20:55:36Z</time>
      </trkpt>
      <trkpt lat="44.83548" lon="5.60141">
        <ele>780</ele>
        <time>2017-12-15T20:55:48Z</time>
      </trkpt>
      <trkpt lat="44.83533" lon="5.60106">
        <ele>781</ele>
        <time>2017-12-15T20:55:55Z</time>
      </trkpt>
      <trkpt lat="44.83518" lon="5.60082">
        <ele>790</ele>
        <time>2017-12-15T20:56:08Z</time>
      </trkpt>
      <trkpt lat="44.83445" lon="5.59988">
        <ele>793</ele>
        <time>2017-12-15T20:56:25Z</time>
      </trkpt>
      <trkpt lat="44.83426" lon="5.59963">
        <ele>794</ele>
        <time>2017-12-15T20:56:44Z</time>
      </trkpt>
      <trkpt lat="44.83405" lon="5.5993">
        <ele>786</ele>
        <time>2017-12-15T20:56:55Z</time>
      </trkpt>
      <trkpt lat="44.83387" lon="5.59898">
        <ele>795</ele>
        <time>2017-12-15T20:57:10Z</time>
      </trkpt>
      <trkpt lat="44.83368" lon="5.59872">
        <ele>795</ele>
        <time>2017-12-15T20:57:27Z</time>
      </trkpt>
      <trkpt lat="44.83348" lon="5.59852">
        <ele>795</ele>
        <time>2017-12-15T20:57:40Z</time>
      </trkpt>
      <trkpt lat="44.83325" lon="5.59834">
        <ele>790</ele>
        <time>2017-12-15T20:57:45Z</time>
      </trkpt>
      <trkpt lat="44.83278" lon="5.59785">
        <ele>795</ele>
        <time>2017-12-15T20:57:57Z</time>
      </trkpt>
      <trkpt lat="44.83267" lon="5.59775">
        <ele>795</ele>
        <time>2017-12-15T20:58:10Z</time>
      </trkpt>
      <trkpt lat="44.83256" lon="5.59769">
        <ele>794</ele>
        <time>2017-12-15T20:58:14Z</time>
      </trkpt>
      <trkpt lat="44.83244" lon="5.59767">
        <ele>793</ele>
        <time>2017-12-15T20:58:31Z</time>
      </trkpt>
      <trkpt lat="44.83224" lon="5.5977">
        <ele>793</ele>
        <time>2017-12-15T20:58:47Z</time>
      </trkpt>
      <trkpt lat="44.83206" lon="5.5978">
        <ele>794</ele>
        <time>2017-12-15T20:59:03Z</time>
      </trkpt>
      <trkpt lat="44.83198" lon="5.59789">
        <ele>794</ele>
        <time>2017-12-15T20:59:17Z</time>
      </trkpt>
      <trkpt lat="44.83191" lon="5.59799">
        <ele>795</ele>
        <time>2017-12-15T20:59:29Z</time>
      </trkpt>
      <trkpt lat="44.83182" lon="5.59824">
        <ele>798</ele>
        <time>2017-12-15T20:59:36Z</time>
      </trkpt>
      <trkpt lat="44.83178" lon="5.59847">
        <ele>799</ele>
        <time>2017-12-15T20:59:46Z</time>
      </trkpt>
      <trkpt lat="44.83178" lon="5.5987">
        <ele>798</ele>
        <time>2017-12-15T20:59:53Z</time>
      </trkpt>
      <trkpt lat="44.83183" lon="5.59892">
        <ele>800</ele>
        <time>2017-12-15T20:59:56Z</time>
      </trkpt>
      <trkpt lat="44.83193" lon="5.59917">
        <ele>805</ele>
        <time>2017-12-15T21:00:14Z</time>
      </trkpt>
      <trkpt lat="44.83212" lon="5.5995">
        <ele>802</ele>
        <time>2017-12-15T21:00:22Z</time>
      </trkpt>
      <trkpt lat="44.8323" lon="5.5997">
        <ele>803</ele>
        <time>2017-12-15T21:00:36Z</time>
      </trkpt>
      <trkpt lat="44.83268" lon="5.60003">
        <ele>799</ele>
        <time>2017-12-15T21:00:45Z</time>
      </trkpt>
      <trkpt lat="44.8328" lon="5.60027">
        <ele>797</ele>
        <time>2017-12-15T21:00:59Z</time>
      </trkpt>
      <trkpt lat="44.83294" lon="5.60071">
        <ele>797</ele>
        <time>2017-12-15T21:01:14Z</time>
      </trkpt>
      <trkpt lat="44.83302" lon="5.60113">
        <ele>802</ele>
        <time>2017-12-15T21:01:19Z</time>
      </trkpt>
      <trkpt lat="44.83306" lon="5.60142">
        <ele>803</ele>
        <time>2017-12-15T21:01:28Z</time>
      </trkpt>
      <trkpt lat="44.833" lon="5.60204">
        <ele>808</ele>
        <time>2017-12-15T21:01:47Z</time>
      </trkpt>
      <trkpt lat="44.83295" lon="5.6024">
        <ele>809</ele>
        <time>2017-12-15T21:02:04Z</time>
      </trkpt>
      <trkpt lat="44.8329" lon="5.60263">
        <ele>809</ele>
        <time>2017-12-15T21:02:13Z</time>
      </trkpt>
      <trkpt lat="44.83275" lon="5.60304">
        <ele>811</ele>
        <time>2017-12-15T21:02:15Z</time>
      </trkpt>
      <trkpt lat="44.83256" lon="5.60354">
        <ele>811</ele>
        <time>2017-12-15T21:02:22Z</time>
      </trkpt>
      <trkpt lat="44.83247" lon="5.60386">
        <ele>826</ele>
        <time>2017-12-15T21:02:32Z</time>
      </trkpt>
      <trkpt lat="44.83238" lon="5.60423">
        <ele>822</ele>
        <time>2017-12-15T21:02:40Z</time>
      </trkpt>
      <trkpt lat="44.83235" lon="5.60458">
        <ele>824</ele>
        <time>2017-12-15T21:02:47Z</time>
      </trkpt>
      <trkpt lat="44.83235" lon="5.60537">
        <ele>823</ele>
        <time>2017-12-15T21:02:52Z</time>
      </trkpt>
      <trkpt lat="44.83237" lon="5.60572">
        <ele>823</ele>
        <time>2017-12-15T21:03:04Z</time>
      </trkpt>
      <trkpt lat="44.83229" lon="5.60683">
        <ele>825</ele>
        <time>2017-12-15T21:03:16Z</time>
      </trkpt>
      <trkpt lat="44.83224" lon="5.60698">
        <ele>826</ele>
        <time>2017-12-15T21:03:30Z</time>
      </trkpt>
      <trkpt lat="44.83215" lon="5.60711">
        <ele>826</ele>
        <time>2017-12-15T21:03:44Z</time>
      </trkpt>
      <trkpt lat="44.832" lon="5.60723">
        <ele>827</ele>
        <time>2017-12-15T21:04:03Z</time>
      </trkpt>
      <trkpt lat="44.83185" lon="5.60729">
        <ele>827</ele>
        <time>2017-12-15T21:04:11Z</time>
      </trkpt>
      <trkpt lat="44.83178" lon="5.6073">
        <ele>828</ele>
        <time>2017-12-15T21:04:17Z</time>
      </trkpt>
      <trkpt lat="44.83151" lon="5.60729">
        <ele>830</ele>
        <time>2017-12-15T21:04:22Z</time>
      </trkpt>
      <trkpt lat="44.83096" lon="5.60721">
        <ele>831</ele>
        <time>2017-12-15T21:04:33Z</time>
      </trkpt>
      <trkpt lat="44.83081" lon="5.6072">
        <ele>831</ele>
        <time>2017-12-15T21:04:36Z</time>
      </trkpt>
      <trkpt lat="44.83061" lon="5.60718">
        <ele>831</ele>
        <time>2017-12-15T21:04:51Z</time>
      </trkpt>
      <trkpt lat="44.83056" lon="5.60713">
        <ele>831</ele>
        <time>2017-12-15T21:04:59Z</time>
      </trkpt>
      <trkpt lat="44.83027" lon="5.60712">
        <ele>831</ele>
        <time>2017-12-15T21:05:06Z</time>
      </trkpt>
      <trkpt lat="44.83006" lon="5.60708">
        <ele>831</ele>
        <time>2017-12-15T21:05:24Z</time>
      </trkpt>
      <trkpt lat="44.83003" lon="5.60694">
        <ele>831</ele>
        <time>2017-12-15T21:05:30Z</time>
      </trkpt>
      <trkpt lat="44.82962" lon="5.60563">
        <ele>835</ele>
        <time>2017-12-15T21:05:46Z</time>
      </trkpt>
      <trkpt lat="44.82933" lon="5.60469">
        <ele>838</ele>
        <time>2017-12-15T21:06:02Z</time>
      </trkpt>
      <trkpt lat="44.8287" lon="5.6027">
        <ele>847</ele>
        <time>2017-12-15T21:06:10Z</time>
      </trkpt>
      <trkpt lat="44.82854" lon="5.60214">
        <ele>851</ele>
        <time>2017-12-15T21:06:30Z</time>
      </trkpt>
      <trkpt lat="44.82852" lon="5.60184">
        <ele>852</ele>
        <time>2017-12-15T21:06:34Z</time>
      </trkpt>
      <trkpt lat="44.82855" lon="5.60149">
        <ele>854</ele>
        <time>2017-12-15T21:06:51Z</time>
      </trkpt>
      <trkpt lat="44.82865" lon="5.60105">
        <ele>855</ele>
        <time>2017-12-15T21:07:05Z</time>
      </trkpt>
      <trkpt lat="44.82875" lon="5.60054">
        <ele>858</ele>
        <time>2017-12-15T21:07:22Z</time>
      </trkpt>
      <trkpt lat="44.82877" lon="5.59989">
        <ele>862</ele>
        <time>2017-12-15T21:07:37Z</time>
      </trkpt>
      <trkpt lat="44.82873" lon="5.59944">
        <ele>863</ele>
        <time>2017-12-15T21:07:40Z</time>
      </trkpt>
      <trkpt lat="44.82865" lon="5.5991">
        <ele>866</ele>
        <time>2017-12-15T21:07:59Z</time>
      </trkpt>
      <trkpt lat="44.82855" lon="5.59878">
        <ele>866</ele>
        <time>2017-12-15T21:08:04Z</time>
      </trkpt>
      <trkpt lat="44.82786" lon="5.59731">
        <ele>876</ele>
        <time>2017-12-15T21:08:14Z</time>
      </trkpt>
      <trkpt lat="44.82729" lon="5.59614">
        <ele>887</ele>
        <time>2017-12-15T21:08:27Z</time>
      </trkpt>
      <trkpt lat="44.82718" lon="5.59591">
        <ele>888</ele>
        <time>2017-12-15T21:08:46Z</time>
      </trkpt>
      <trkpt lat="44.82706" lon="5.59556">
        <ele>892</ele>
        <time>2017-12-15T21:09:05Z</time>
      </trkpt>
      <trkpt lat="44.82694" lon="5.5946">
        <ele>899</ele>
        <time>2017-12-15T21:09:21Z</time>
      </trkpt>
      <trkpt lat="44.82674" lon="5.59272">
        <ele>903</ele>
        <time>2017-12-15T21:09:24Z</time>
      </trkpt>
      <trkpt lat="44.82666" lon="5.59206">
        <ele>924</ele>
        <time>2017-12-15T21:09:27Z</time>
      </trkpt>
      <trkpt lat="44.82652" lon="5.59143">
        <ele>915</ele>
        <time>2017-12-15T21:09:45Z</time>
      </trkpt>
      <trkpt lat="44.82637" lon="5.59085">
        <ele>914</ele>
        <time>2017-12-15T21:09:57Z</time>
      </trkpt>
      <trkpt lat="44.82625" lon="5.5905">
        <ele>906</ele>
        <time>2017-12-15T21:10:07Z</time>
      </trkpt>
      <trkpt lat="44.82584" lon="5.58976">
        <ele>899</ele>
        <time>2017-12-15T21:10:23Z</time>
      </trkpt>
      <trkpt lat="44.82565" lon="5.58943">
        <ele>917</ele>
        <time>2017-12-15T21:10:43Z</time>
      </trkpt>
      <trkpt lat="44.82523" lon="5.58864">
        <ele>905</ele>
        <time>2017-12-15T21:10:49Z</time>
      </trkpt>
      <trkpt lat="44.82487" lon="5.58816">
        <ele>915</ele>
        <time>2017-12-15T21:11:07Z</time>
      </trkpt>
      <trkpt lat="44.8247" lon="5.58798">
        <ele>918</ele>
        <time>2017-12-15T21:11:27Z</time>
      </trkpt>
      <trkpt lat="44.82457" lon="5.58786">
        <ele>920</ele>
        <time>2017-12-15T21:11:39Z</time>
      </trkpt>
      <trkpt lat="44.82448" lon="5.58775">
        <ele>922</ele>
        <time>2017-12-15T21:11:46Z</time>
      </trkpt>
      <trkpt lat="44.82442" lon="5.58763">
        <ele>924</ele>
        <time>2017-12-15T21:11:48Z</time>
      </trkpt>
      <trkpt lat="44.82434" lon="5.58723">
        <ele>912</ele>
        <time>2017-12-15T21:11:57Z</time>
      </trkpt>
      <trkpt lat="44.82412" lon="5.58628">
        <ele>932</ele>
        <time>2017-12-15T21:12:12Z</time>
      </trkpt>
      <trkpt lat="44.82383" lon="5.58539">
        <ele>926</ele>
        <time>2017-12-15T21:12:29Z</time>
      </trkpt>
      <trkpt lat="44.82358" lon="5.58459">
        <ele>923</ele>
        <time>2017-12-15T21:12:47Z</time>
      </trkpt>
      <trkpt lat="44.82347" lon="5.58432">
        <ele>923</ele>
        <time>2017-12-15T21:13:06Z</time>
      </trkpt>
      <trkpt lat="44.82323" lon="5.58379">
        <ele>933</ele>
        <time>2017-12-15T21:13:09Z</time>
      </trkpt>
      <trkpt lat="44.82308" lon="5.58354">
        <ele>932</ele>
        <time>2017-12-15T21:13:16Z</time>
      </trkpt>
      <trkpt lat="44.82293" lon="5.58338">
        <ele>933</ele>
        <time>2017-12-15T21:13:23Z</time>
      </trkpt>
      <trkpt lat="44.82278" lon="5.58329">
        <ele>926</ele>
        <time>2017-12-15T21:13:31Z</time>
      </trkpt>
      <trkpt lat="44.82256" lon="5.58315">
        <ele>928</ele>
        <time>2017-12-15T21:13:45Z</time>
      </trkpt>
      <trkpt lat="44.82242" lon="5.58305">
        <ele>935</ele>
        <time>2017-12-15T21:13:59Z</time>
      </trkpt>
      <trkpt lat="44.82229" lon="5.5829">
        <ele>934</ele>
        <time>2017-12-15T21:14:14Z</time>
      </trkpt>
      <trkpt lat="44.82214" lon="5.58266">
        <ele>932</ele>
        <time>2017-12-15T21:14:19Z</time>
      </trkpt>
      <trkpt lat="44.82206" lon="5.5825">
        <ele>925</ele>
        <time>2017-12-15T21:14:23Z</time>
      </trkpt>
      <trkpt lat="44.82196" lon="5.58238">
        <ele>925</ele>
        <time>2017-12-15T21:14:33Z</time>
      </trkpt>
      <trkpt lat="44.82181" lon="5.58229">
        <ele>926</ele>
        <time>2017-12-15T21:14:39Z</time>
      </trkpt>
      <trkpt lat="44.82135" lon="5.58207">
        <ele>928</ele>
        <time>2017-12-15T21:14:47Z</time>
      </trkpt>
      <trkpt lat="44.82077" lon="5.58178">
        <ele>932</ele>
        <time>2017-12-15T21:14:51Z</time>
      </trkpt>
      <trkpt lat="44.82061" lon="5.58175">
        <ele>934</ele>
        <time>2017-12-15T21:14:58Z</time>
      </trkpt>
      <trkpt lat="44.82052" lon="5.58176">
        <ele>936</ele>
        <time>2017-12-15T21:15:12Z</time>
      </trkpt>
      <trkpt lat="44.82042" lon="5.58183">
        <ele>938</ele>
        <time>2017-12-15T21:15:18Z</time>
      </trkpt>
      <trkpt lat="44.82036" lon="5.5819">
        <ele>938</ele>
        <time>2017-12-15T21:15:28Z</time>
      </trkpt>
      <trkpt lat="44.82024" lon="5.5822">
        <ele>938</ele>
        <time>2017-12-15T21:15:44Z</time>
      </trkpt>
      <trkpt lat="44.82012" lon="5.58263">
        <ele>938</ele>
        <time>2017-12-15T21:15:52Z</time>
      </trkpt>
      <trkpt lat="44.82" lon="5.58288">
        <ele>939</ele>
        <time>2017-12-15T21:15:58Z</time>
      </trkpt>
      <trkpt lat="44.81996" lon="5.58295">
        <ele>941</ele>
        <time>2017-12-15T21:16:01Z</time>
      </trkpt>
      <trkpt lat="44.81986" lon="5.58301">
        <ele>941</ele>
        <time>2017-12-15T21:16:11Z</time>
      </trkpt>
      <trkpt lat="44.81976" lon="5.58303">
        <ele>941</ele>
        <time>2017-12-15T21:16:15Z</time>
      </trkpt>
      <trkpt lat="44.81952" lon="5.58301">
        <ele>943</ele>
        <time>2017-12-15T21:16:19Z</time>
      </trkpt>
      <trkpt lat="44.8191" lon="5.58291">
        <ele>947</ele>
        <time>2017-12-15T21:16:33Z</time>
      </trkpt>
      <trkpt lat="44.81846" lon="5.58276">
        <ele>947</ele>
        <time>2017-12-15T21:16:40Z</time>
      </trkpt>
      <trkpt lat="44.81772" lon="5.58267">
        <ele>946</ele>
        <time>2017-12-15T21:16:45Z</time>
      </trkpt>
      <trkpt lat="44.81741" lon="5.58251">
        <ele>947</ele>
        <time>2017-12-15T21:16:58Z</time>
      </trkpt>
      <trkpt lat="44.81667" lon="5.58198">
        <ele>948</ele>
        <time>2017-12-15T21:17:15Z</time>
      </trkpt>
      <trkpt lat="44.81632" lon="5.58173">
        <ele>947</ele>
        <time>2017-12-15T21:17:27Z</time>
      </trkpt>
      <trkpt lat="44.81602" lon="5.5816">
        <ele>952</ele>
        <time>2017-12-15T21:17:40Z</time>
      </trkpt>
      <trkpt lat="44.81582" lon="5.58156">
        <ele>952</ele>
        <time>2017-12-15T21:17:55Z</time>
      </trkpt>
      <trkpt lat="44.81559" lon="5.58155">
        <ele>955</ele>
        <time>2017-12-15T21:18:01Z</time>
      </trkpt>
      <trkpt lat="44.81536" lon="5.58154">
        <ele>956</ele>
        <time>2017-12-15T21:18:13Z</time>
      </trkpt>
      <trkpt lat="44.81512" lon="5.5815">
        <ele>955</ele>
        <time>2017-12-15T21:18:16Z</time>
      </trkpt>
      <trkpt lat="44.8148" lon="5.58137">
        <ele>957</ele>
        <time>2017-12-15T21:18:32Z</time>
      </trkpt>
      <trkpt lat="44.81474" lon="5.58136">
        <ele>957</ele>
        <time>2017-12-15T21:18:49Z</time>
      </trkpt>
      <trkpt lat="44.81465" lon="5.5814">
        <ele>957</ele>
        <time>2017-12-15T21:19:08Z</time>
      </trkpt>
      <trkpt lat="44.81453" lon="5.58152">
        <ele>957</ele>
        <time>2017-12-15T21:19:17Z</time>
      </trkpt>
      <trkpt lat="44.81436" lon="5.5817">
        <ele>954</ele>
        <time>2017-12-15T21:19:20Z</time>
      </trkpt>
      <trkpt lat="44.81407" lon="5.58188">
        <ele>956</ele>
        <time>2017-12-15T21:19:31Z</time>
      </trkpt>
      <trkpt lat="44.81347" lon="5.58214">
        <ele>957</ele>
        <time>2017-12-15T21:19:39Z</time>
      </trkpt>
      <trkpt lat="44.81301" lon="5.5823">
        <ele>960</ele>
        <time>2017-12-15T21:19:51Z</time>
      </trkpt>
      <trkpt lat="44.81259" lon="5.58239">
        <ele>961</ele>
        <time>2017-12-15T21:19:54Z</time>
      </trkpt>
      <trkpt lat="44.81157" lon="5.58259">
        <ele>965</ele>
        <time>2017-12-15T21:20:06Z</time>
      </trkpt>
      <trkpt lat="44.8114" lon="5.5826">
        <ele>966</ele>
        <time>2017-12-15T21:20:16Z</time>
      </trkpt>
      <trkpt lat="44.81116" lon="5.5827">
        <ele>967</ele>
        <time>2017-12-15T21:20:34Z</time>
      </trkpt>
      <trkpt lat="44.81092" lon="5.5829">
        <ele>967</ele>
        <time>2017-12-15T21:20:44Z</time>
      </trkpt>
      <trkpt lat="44.81078" lon="5.58306">
        <ele>969</ele>
        <time>2017-12-15T21:20:54Z</time>
      </trkpt>
      <trkpt lat="44.81037" lon="5.58372">
        <ele>971</ele>
        <time>2017-12-15T21:20:57Z</time>
      </trkpt>
      <trkpt lat="44.80965" lon="5.58483">
        <ele>980</ele>
        <time>2017-12-15T21:21:06Z</time>
      </trkpt>
      <trkpt lat="44.80957" lon="5.58495">
        <ele>981</ele>
        <time>2017-12-15T21:21:25Z</time>
      </trkpt>
      <trkpt lat="44.8094" lon="5.5851">
        <ele>990</ele>
        <time>2017-12-15T21:21:31Z</time>
      </trkpt>
      <trkpt lat="44.80904" lon="5.58532">
        <ele>986</ele>
        <time>2017-12-15T21:21:36Z</time>
      </trkpt>
      <trkpt lat="44.80857" lon="5.58569">
        <ele>987</ele>
        <time>2017-12-15T21:21:45Z</time>
      </trkpt>
      <trkpt lat="44.80797" lon="5.58622">
        <ele>995</ele>
        <time>2017-12-15T21:21:54Z</time>
      </trkpt>
      <trkpt lat="44.80756" lon="5.58659">
        <ele>999</ele>
        <time>2017-12-15T21:22:01Z</time>
      </trkpt>
      <trkpt lat="44.80726" lon="5.58682">
        <ele>1008</ele>
        <time>2017-12-15T21:22:20Z</time>
      </trkpt>
      <trkpt lat="44.80682" lon="5.58701">
        <ele>1010</ele>
        <time>2017-12-15T21:22:23Z</time>
      </trkpt>
      <trkpt lat="44.80629" lon="5.58719">
        <ele>1010</ele>
        <time>2017-12-15T21:22:36Z</time>
      </trkpt>
      <trkpt lat="44.80581" lon="5.58728">
        <ele>1012</ele>
        <time>2017-12-15T21:22:54Z</time>
      </trkpt>
      <trkpt lat="44.80555" lon="5.58732">
        <ele>1011</ele>
        <time>2017-12-15T21:22:56Z</time>
      </trkpt>
      <trkpt lat="44.80532" lon="5.58734">
        <ele>1010</ele>
        <time>2017-12-15T21:23:12Z</time>
      </trkpt>
      <trkpt lat="44.80511" lon="5.5874">
        <ele>1013</ele>
        <time>2017-12-15T21:23:17Z</time>
      </trkpt>
      <trkpt lat="44.80481" lon="5.58754">
        <ele>1020</ele>
        <time>2017-12-15T21:23:31Z</time>
      </trkpt>
      <trkpt lat="44.80457" lon="5.5877">
        <ele>1021</ele>
        <time>2017-12-15T21:23:49Z</time>
      </trkpt>
      <trkpt lat="44.80445" lon="5.58783">
        <ele>1021</ele>
        <time>2017-12-15T21:23:58Z</time>
      </trkpt>
      <trkpt lat="44.80437" lon="5.58796">
        <ele>1023</ele>
        <time>2017-12-15T21:24:05Z</time>
      </trkpt>
      <trkpt lat="44.80422" lon="5.58831">
        <ele>1026</ele>
        <time>2017-12-15T21:24:18Z</time>
      </trkpt>
      <trkpt lat="44.80413" lon="5.5885">
        <ele>1030</ele>
        <time>2017-12-15T21:24:30Z</time>
      </trkpt>
      <trkpt lat="44.80404" lon="5.5886">
        <ele>1031</ele>
        <time>2017-12-15T21:24:43Z</time>
      </trkpt>
      <trkpt lat="44.80377" lon="5.58881">
        <ele>1032</ele>
        <time>2017-12-15T21:24:54Z</time>
      </trkpt>
      <trkpt lat="44.80332" lon="5.5891">
        <ele>1034</ele>
        <time>2017-12-15T21:25:07Z</time>
      </trkpt>
      <trkpt lat="44.80271" lon="5.58947">
        <ele>1041</ele>
        <time>2017-12-15T21:25:19Z</time>
      </trkpt>
      <trkpt lat="44.80257" lon="5.58956">
        <ele>1041</ele>
        <time>2017-12-15T21:25:25Z</time>
      </trkpt>
      <trkpt lat="44.80243" lon="5.58972">
        <ele>1039</ele>
        <time>2017-12-15T21:25:31Z</time>
      </trkpt>
      <trkpt lat="44.80217" lon="5.59003">
        <ele>1052</ele>
        <time>2017-12-15T21:25:46Z</time>
      </trkpt>
      <trkpt lat="44.80189" lon="5.59027">
        <ele>1052</ele>
        <time>2017-12-15T21:26:06Z</time>
      </trkpt>
      <trkpt lat="44.80145" lon="5.59053">
        <ele>1053</ele>
        <time>2017-12-15T21:26:26Z</time>
      </trkpt>
      <trkpt lat="44.80132" lon="5.59062">
        <ele>1053</ele>
        <time>2017-12-15T21:26:39Z</time>
      </trkpt>
      <trkpt lat="44.80113" lon="5.59083">
        <ele>1054</ele>
        <time>2017-12-15T21:26:46Z</time>
      </trkpt>
      <trkpt lat="44.80104" lon="5.59094">
        <ele>1062</ele>
        <time>2017-12-15T21:26:51Z</time>
      </trkpt>
      <trkpt lat="44.80084" lon="5.59107">
        <ele>1062</ele>
        <time>2017-12-15T21:27:04Z</time>
      </trkpt>
      <trkpt lat="44.80051" lon="5.59109">
        <ele>1070</ele>
        <time>2017-12-15T21:27:08Z</time>
      </trkpt>
      <trkpt lat="44.80035" lon="5.59107">
        <ele>1073</ele>
        <time>2017-12-15T21:27:21Z</time>
      </trkpt>
      <trkpt lat="44.80025" lon="5.59102">
        <ele>1074</ele>
        <time>2017-12-15T21:27:30Z</time>
      </trkpt>
      <trkpt lat="44.80017" lon="5.59092">
        <ele>1076</ele>
        <time>2017-12-15T21:27:42Z</time>
      </trkpt>
      <trkpt lat="44.80012" lon="5.59077">
        <ele>1072</ele>
        <time>2017-12-15T21:27:58Z</time>
      </trkpt>
      <trkpt lat="44.80008" lon="5.59054">
        <ele>1067</ele>
        <time>2017-12-15T21:28:00Z</time>
      </trkpt>
      <trkpt lat="44.79994" lon="5.59029">
        <ele>1080</ele>
        <time>2017-12-15T21:28:10Z</time>
      </trkpt>
      <trkpt lat="44.7998" lon="5.59008">
        <ele>1079</ele>
        <time>2017-12-15T21:28:22Z</time>
      </trkpt>
      <trkpt lat="44.79965" lon="5.5898">
        <ele>1074</ele>
        <time>2017-12-15T21:28:31Z</time>
      </trkpt>
      <trkpt lat="44.79947" lon="5.5894">
        <ele>1074</ele>
        <time>2017-12-15T21:28:40Z</time>
      </trkpt>
      <trkpt lat="44.7994" lon="5.58927">
        <ele>1075</ele>
        <time>2017-12-15T21:28:50Z</time>
      </trkpt>
      <trkpt lat="44.7993" lon="5.58916">
        <ele>1072</ele>
        <time>2017-12-15T21:29:08Z</time>
      </trkpt>
      <trkpt lat="44.79914" lon="5.58909">
        <ele>1075</ele>
        <time>2017-12-15T21:29:17Z</time>
      </trkpt>
      <trkpt lat="44.79901" lon="5.5891">
        <ele>1073</ele>
        <time>2017-12-15T21:29:24Z</time>
      </trkpt>
      <trkpt lat="44.79861" lon="5.58929">
        <ele>1082</ele>
        <time>2017-12-15T21:29:36Z</time>
      </trkpt>
      <trkpt lat="44.79849" lon="5.58939">
        <ele>1082</ele>
        <time>2017-12-15T21:29:42Z</time>
      </trkpt>
      <trkpt lat="44.79831" lon="5.5896">
        <ele>1082</ele>
        <time>2017-12-15T21:29:53Z</time>
      </trkpt>
      <trkpt lat="44.79801" lon="5.58992">
        <ele>1084</ele>
        <time>2017-12-15T21:30:01Z</time>
      </trkpt>
      <trkpt lat="44.79743" lon="5.5903">
        <ele>1089</ele>
        <time>2017-12-15T21:30:07Z</time>
      </trkpt>
      <trkpt lat="44.79728" lon="5.59046">
        <ele>1090</ele>
        <time>2017-12-15T21:30:24Z</time>
      </trkpt>
      <trkpt lat="44.7971" lon="5.59073">
        <ele>1092</ele>
        <time>2017-12-15T21:30:37Z</time>
      </trkpt>
      <trkpt lat="44.79692" lon="5.59094">
        <ele>1104</ele>
        <time>2017-12-15T21:30:57Z</time>
      </trkpt>
      <trkpt lat="44.79657" lon="5.59119">
        <ele>1099</ele>
        <time>2017-12-15T21:31:12Z</time>
      </trkpt>
      <trkpt lat="44.79602" lon="5.59159">
        <ele>1102</ele>
        <time>2017-12-15T21:31:26Z</time>
      </trkpt>
      <trkpt lat="44.79563" lon="5.59189">
        <ele>1107</ele>
        <time>2017-12-15T21:31:45Z</time>
      </trkpt>
      <trkpt lat="44.79528" lon="5.59227">
        <ele>1108</ele>
        <time>2017-12-15T21:32:05Z</time>
      </trkpt>
      <trkpt lat="44.79519" lon="5.59238">
        <ele>1109</ele>
        <time>2017-12-15T21:32:21Z</time>
      </trkpt>
      <trkpt lat="44.79511" lon="5.59254">
        <ele>1116</ele>
        <time>2017-12-15T21:32:33Z</time>
      </trkpt>
      <trkpt lat="44.79502" lon="5.59292">
        <ele>1123</ele>
        <time>2017-12-15T21:32:51Z</time>
      </trkpt>
      <trkpt lat="44.79495" lon="5.59308">
        <ele>1119</ele>
        <time>2017-12-15T21:33:02Z</time>
      </trkpt>
      <trkpt lat="44.79485" lon="5.59325">
        <ele>1121</ele>
        <time>2017-12-15T21:33:04Z</time>
      </trkpt>
      <trkpt lat="44.79465" lon="5.59346">
        <ele>1131</ele>
        <time>2017-12-15T21:33:06Z</time>
      </trkpt>
      <trkpt lat="44.79454" lon="5.59356">
        <ele>1132</ele>
        <time>2017-12-15T21:33:17Z</time>
      </trkpt>
      <trkpt lat="44.79441" lon="5.59363">
        <ele>1132</ele>
        <time>2017-12-15T21:33:25Z</time>
      </trkpt>
      <trkpt lat="44.79428" lon="5.59366">
        <ele>1132</ele>
        <time>2017-12-15T21:33:31Z</time>
      </trkpt>
      <trkpt lat="44.79415" lon="5.59364">
        <ele>1132</ele>
        <time>2017-12-15T21:33:44Z</time>
      </trkpt>
      <trkpt lat="44.79405" lon="5.5936">
        <ele>1131</ele>
        <time>2017-12-15T21:33:56Z</time>
      </trkpt>
      <trkpt lat="44.79394" lon="5.5935">
        <ele>1131</ele>
        <time>2017-12-15T21:34:01Z</time>
      </trkpt>
      <trkpt lat="44.79379" lon="5.59331">
        <ele>1118</ele>
        <time>2017-12-15T21:34:19Z</time>
      </trkpt>
      <trkpt lat="44.79367" lon="5.59325">
        <ele>1118</ele>
        <time>2017-12-15T21:34:24Z</time>
      </trkpt>
      <trkpt lat="44.79348" lon="5.59327">
        <ele>1122</ele>
        <time>2017-12-15T21:34:40Z</time>
      </trkpt>
      <trkpt lat="44.79305" lon="5.59346">
        <ele>1133</ele>
        <time>2017-12-15T21:34:59Z</time>
      </trkpt>
      <trkpt lat="44.79262" lon="5.59371">
        <ele>1135</ele>
        <time>2017-12-15T21:35:02Z</time>
      </trkpt>
      <trkpt lat="44.79155" lon="5.59447">
        <ele>1145</ele>
        <time>2017-12-15T21:35:07Z</time>
      </trkpt>
      <trkpt lat="44.791" lon="5.59491">
        <ele>1151</ele>
        <time>2017-12-15T21:35:12Z</time>
      </trkpt>
      <trkpt lat="44.79076" lon="5.59506">
        <ele>1158</ele>
        <time>2017-12-15T21:35:32Z</time>
      </trkpt>
      <trkpt lat="44.79061" lon="5.5951">
        <ele>1160</ele>
        <time>2017-12-15T21:35:38Z</time>
      </trkpt>
      <trkpt lat="44.79048" lon="5.59511">
        <ele>1160</ele>
        <time>2017-12-15T21:35:48Z</time>
      </trkpt>
      <trkpt lat="44.79025" lon="5.59505">
        <ele>1158</ele>
        <time>2017-12-15T21:36:01Z</time>
      </trkpt>
      <trkpt lat="44.7901" lon="5.59504">
        <ele>1155</ele>
        <time>2017-12-15T21:36:03Z</time>
      </trkpt>
      <trkpt lat="44.79003" lon="5.59504">
        <ele>1153</ele>
        <time>2017-12-15T21:36:07Z</time>
      </trkpt>
      <trkpt lat="44.78995" lon="5.59511">
        <ele>1153</ele>
        <time>2017-12-15T21:36:23Z</time>
      </trkpt>
      <trkpt lat="44.78976" lon="5.59536">
        <ele>1157</ele>
        <time>2017-12-15T21:36:30Z</time>
      </trkpt>
      <trkpt lat="44.78965" lon="5.59548">
        <ele>1158</ele>
        <time>2017-12-15T21:36:35Z</time>
      </trkpt>
      <trkpt lat="44.78925" lon="5.59576">
        <ele>1160</ele>
        <time>2017-12-15T21:36:51Z</time>
      </trkpt>
      <trkpt lat="44.78904" lon="5.59598">
        <ele>1164</ele>
        <time>2017-12-15T21:36:53Z</time>
      </trkpt>
      <trkpt lat="44.78843" lon="5.59702">
        <ele>1182</ele>
        <time>2017-12-15T21:37:11Z</time>
      </trkpt>
      <trkpt lat="44.7883" lon="5.59722">
        <ele>1177</ele>
        <time>2017-12-15T21:37:27Z</time>
      </trkpt>
      <trkpt lat="44.78798" lon="5.5976">
        <ele>1186</ele>
        <time>2017-12-15T21:37:32Z</time>
      </trkpt>
      <trkpt lat="44.78783" lon="5.59779">
        <ele>1185</ele>
        <time>2017-12-15T21:37:37Z</time>
      </trkpt>
      <trkpt lat="44.78776" lon="5.59795">
        <ele>1186</ele>
        <time>2017-12-15T21:37:45Z</time>
      </trkpt>
      <trkpt lat="44.7877" lon="5.59811">
        <ele>1187</ele>
        <time>2017-12-15T21:37:50Z</time>
      </trkpt>
      <trkpt lat="44.7876" lon="5.59824">
        <ele>1188</ele>
        <time>2017-12-15T21:38:06Z</time>
      </trkpt>
      <trkpt lat="44.78727" lon="5.59851">
        <ele>1191</ele>
        <time>2017-12-15T21:38:16Z</time>
      </trkpt>
      <trkpt lat="44.78713" lon="5.5986">
        <ele>1192</ele>
        <time>2017-12-15T21:38:18Z</time>
      </trkpt>
      <trkpt lat="44.7868" lon="5.59871">
        <ele>1192</ele>
        <time>2017-12-15T21:38:21Z</time>
      </trkpt>
      <trkpt lat="44.78645" lon="5.59876">
        <ele>1194</ele>
        <time>2017-12-15T21:38:23Z</time>
      </trkpt>
      <trkpt lat="44.78544" lon="5.59875">
        <ele>1200</ele>
        <time>2017-12-15T21:38:34Z</time>
      </trkpt>
      <trkpt lat="44.78522" lon="5.59874">
        <ele>1201</ele>
        <time>2017-12-15T21:38:53Z</time>
      </trkpt>
      <trkpt lat="44.78514" lon="5.59871">
        <ele>1201</ele>
        <time>2017-12-15T21:39:13Z</time>
      </trkpt>
      <trkpt lat="44.78502" lon="5.59861">
        <ele>1201</ele>
        <time>2017-12-15T21:39:21Z</time>
      </trkpt>
      <trkpt lat="44.78482" lon="5.59825">
        <ele>1203</ele>
        <time>2017-12-15T21:39:32Z</time>
      </trkpt>
      <trkpt lat="44.78459" lon="5.5979">
        <ele>1204</ele>
        <time>2017-12-15T21:39:38Z</time>
      </trkpt>
      <trkpt lat="44.7844" lon="5.59771">
        <ele>1204</ele>
        <time>2017-12-15T21:39:50Z</time>
      </trkpt>
      <trkpt lat="44.78405" lon="5.5975">
        <ele>1202</ele>
        <time>2017-12-15T21:40:01Z</time>
      </trkpt>
      <trkpt lat="44.78374" lon="5.59729">
        <ele>1207</ele>
        <time>2017-12-15T21:40:14Z</time>
      </trkpt>
      <trkpt lat="44.78359" lon="5.59711">
        <ele>1207</ele>
        <time>2017-12-15T21:40:22Z</time>
      </trkpt>
      <trkpt lat="44.78349" lon="5.59688">
        <ele>1208</ele>
        <time>2017-12-15T21:40:35Z</time>
      </trkpt>
      <trkpt lat="44.78334" lon="5.59632">
        <ele>1220</ele>
        <time>2017-12-15T21:40:54Z</time>
      </trkpt>
      <trkpt lat="44.78325" lon="5.59598">
        <ele>1215</ele>
        <time>2017-12-15T21:41:07Z</time>
      </trkpt>
      <trkpt lat="44.78324" lon="5.59564">
        <ele>1223</ele>
        <time>2017-12-15T21:41:27Z</time>
      </trkpt>
      <trkpt lat="44.78326" lon="5.59526">
        <ele>1227</ele>
        <time>2017-12-15T21:41:42Z</time>
      </trkpt>
      <trkpt lat="44.78327" lon="5.59468">
        <ele>1239</ele>
        <time>2017-12-15T21:41:58Z</time>
      </trkpt>
      <trkpt lat="44.78322" lon="5.59456">
        <ele>1241</ele>
        <time>2017-12-15T21:42:16Z</time>
      </trkpt>
      <trkpt lat="44.78313" lon="5.59452">
        <ele>1242</ele>
        <time>2017-12-15T21:42:18Z</time>
      </trkpt>
      <trkpt lat="44.78307" lon="5.59453">
        <ele>1242</ele>
        <time>2017-12-15T21:42:23Z</time>
      </trkpt>
      <trkpt lat="44.78297" lon="5.5946">
        <ele>1241</ele>
        <time>2017-12-15T21:42:35Z</time>
      </trkpt>
      <trkpt lat="44.78274" lon="5.59488">
        <ele>1239</ele>
        <time>2017-12-15T21:42:43Z</time>
      </trkpt>
      <trkpt lat="44.78258" lon="5.59515">
        <ele>1231</ele>
        <time>2017-12-15T21:42:56Z</time>
      </trkpt>
      <trkpt lat="44.78238" lon="5.59536">
        <ele>1229</ele>
        <time>2017-12-15T21:43:05Z</time>
      </trkpt>
      <trkpt lat="44.78217" lon="5.59553">
        <ele>1228</ele>
        <time>2017-12-15T21:43:13Z</time>
      </trkpt>
      <trkpt lat="44.78172" lon="5.59593">
        <ele>1221</ele>
        <time>2017-12-15T21:43:17Z</time>
      </trkpt>
      <trkpt lat="44.78162" lon="5.59597">
        <ele>1221</ele>
        <time>2017-12-15T21:43:33Z</time>
      </trkpt>
      <trkpt lat="44.7815" lon="5.59597">
        <ele>1220</ele>
        <time>2017-12-15T21:43:52Z</time>
      </trkpt>
      <trkpt lat="44.7814" lon="5.59591">
        <ele>1220</ele>
        <time>2017-12-15T21:43:59Z</time>
      </trkpt>
      <trkpt lat="44.78132" lon="5.59579">
        <ele>1227</ele>
        <time>2017-12-15T21:44:10Z</time>
      </trkpt>
      <trkpt lat="44.78126" lon="5.59557">
        <ele>1228</ele>
        <time>2017-12-15T21:44:27Z</time>
      </trkpt>
      <trkpt lat="44.78126" lon="5.59519">
        <ele>1231</ele>
        <time>2017-12-15T21:44:43Z</time>
      </trkpt>
      <trkpt lat="44.78123" lon="5.59485">
        <ele>1239</ele>
        <time>2017-12-15T21:44:53Z</time>
      </trkpt>
      <trkpt lat="44.78119" lon="5.59468">
        <ele>1239</ele>
        <time>2017-12-15T21:45:12Z</time>
      </trkpt>
      <trkpt lat="44.781" lon="5.59393">
        <ele>1248</ele>
        <time>2017-12-15T21:45:31Z</time>
      </trkpt>
      <trkpt lat="44.7809" lon="5.59351">
        <ele>1253</ele>
        <time>2017-12-15T21:45:39Z</time>
      </trkpt>
      <trkpt lat="44.78082" lon="5.59344">
        <ele>1254</ele>
        <time>2017-12-15T21:45:57Z</time>
      </trkpt>
      <trkpt lat="44.78078" lon="5.59344">
        <ele>1254</ele>
        <time>2017-12-15T21:46:17Z</time>
      </trkpt>
      <trkpt lat="44.78068" lon="5.59359">
        <ele>1254</ele>
        <time>2017-12-15T21:46:23Z</time>
      </trkpt>
      <trkpt lat="44.78064" lon="5.59391">
        <ele>1250</ele>
        <time>2017-12-15T21:46:38Z</time>
      </trkpt>
      <trkpt lat="44.78059" lon="5.59409">
        <ele>1249</ele>
        <time>2017-12-15T21:46:48Z</time>
      </trkpt>
      <trkpt lat="44.78027" lon="5.59474">
        <ele>1247</ele>
        <time>2017-12-15T21:47:02Z</time>
      </trkpt>
      <trkpt lat="44.78012" lon="5.59516">
        <ele>1243</ele>
        <time>2017-12-15T21:47:13Z</time>
      </trkpt>
      <trkpt lat="44.78004" lon="5.5955">
        <ele>1238</ele>
        <time>2017-12-15T21:47:15Z</time>
      </trkpt>
      <trkpt lat="44.77985" lon="5.59625">
        <ele>1230</ele>
        <time>2017-12-15T21:47:18Z</time>
      </trkpt>
      <trkpt lat="44.77979" lon="5.59644">
        <ele>1228</ele>
        <time>2017-12-15T21:47:31Z</time>
      </trkpt>
      <trkpt lat="44.77972" lon="5.59649">
        <ele>1228</ele>
        <time>2017-12-15T21:47:36Z</time>
      </trkpt>
      <trkpt lat="44.77965" lon="5.59649">
        <ele>1228</ele>
        <time>2017-12-15T21:47:44Z</time>
      </trkpt>
      <trkpt lat="44.77958" lon="5.59643">
        <ele>1227</ele>
        <time>2017-12-15T21:48:02Z</time>
      </trkpt>
      <trkpt lat="44.77949" lon="5.59621">
        <ele>1228</ele>
        <time>2017-12-15T21:48:18Z</time>
      </trkpt>
      <trkpt lat="44.77917" lon="5.5945">
        <ele>1248</ele>
        <time>2017-12-15T21:48:38Z</time>
      </trkpt>
      <trkpt lat="44.77913" lon="5.59419">
        <ele>1245</ele>
        <time>2017-12-15T21:48:53Z</time>
      </trkpt>
      <trkpt lat="44.77915" lon="5.59386">
        <ele>1241</ele>
        <time>2017-12-15T21:49:05Z</time>
      </trkpt>
      <trkpt lat="44.77916" lon="5.59362">
        <ele>1242</ele>
        <time>2017-12-15T21:49:14Z</time>
      </trkpt>
      <trkpt lat="44.7791" lon="5.59336">
        <ele>1248</ele>
        <time>2017-12-15T21:49:17Z</time>
      </trkpt>
      <trkpt lat="44.77897" lon="5.59311">
        <ele>1247</ele>
        <time>2017-12-15T21:49:33Z</time>
      </trkpt>
      <trkpt lat="44.77894" lon="5.5929">
        <ele>1247</ele>
        <time>2017-12-15T21:49:41Z</time>
      </trkpt>
      <trkpt lat="44.77897" lon="5.59263">
        <ele>1250</ele>
        <time>2017-12-15T21:49:53Z</time>
      </trkpt>
      <trkpt lat="44.77903" lon="5.59232">
        <ele>1258</ele>
        <time>2017-12-15T21:49:57Z</time>
      </trkpt>
      <trkpt lat="44.77903" lon="5.59192">
        <ele>1260</ele>
        <time>2017-12-15T21:50:10Z</time>
      </trkpt>
      <trkpt lat="44.77901" lon="5.59162">
        <ele>1270</ele>
        <time>2017-12-15T21:50:20Z</time>
      </trkpt>
      <trkpt lat="44.77898" lon="5.5915">
        <ele>1270</ele>
        <time>2017-12-15T21:50:28Z</time>
      </trkpt>
      <trkpt lat="44.77892" lon="5.5914">
        <ele>1271</ele>
        <time>2017-12-15T21:50:33Z</time>
      </trkpt>
      <trkpt lat="44.77883" lon="5.59128">
        <ele>1272</ele>
        <time>2017-12-15T21:50:53Z</time>
      </trkpt>
      <trkpt lat="44.77875" lon="5.59123">
        <ele>1272</ele>
        <time>2017-12-15T21:51:07Z</time>
      </trkpt>
      <trkpt lat="44.77869" lon="5.59125">
        <ele>1272</ele>
        <time>2017-12-15T21:51:23Z</time>
      </trkpt>
      <trkpt lat="44.77861" lon="5.59133">
        <ele>1271</ele>
        <time>2017-12-15T21:51:43Z</time>
      </trkpt>
      <trkpt lat="44.77859" lon="5.59139">
        <ele>1270</ele>
        <time>2017-12-15T21:52:01Z</time>
      </trkpt>
      <trkpt lat="44.77852" lon="5.59153">
        <ele>1267</ele>
        <time>2017-12-15T21:52:05Z</time>
      </trkpt>
      <trkpt lat="44.77846" lon="5.59158">
        <ele>1265</ele>
        <time>2017-12-15T21:52:11Z</time>
      </trkpt>
      <trkpt lat="44.77834" lon="5.5916">
        <ele>1261</ele>
        <time>2017-12-15T21:52:17Z</time>
      </trkpt>
      <trkpt lat="44.77826" lon="5.59161">
        <ele>1261</ele>
        <time>2017-12-15T21:52:34Z</time>
      </trkpt>
      <trkpt lat="44.77818" lon="5.59166">
        <ele>1262</ele>
        <time>2017-12-15T21:52:43Z</time>
      </trkpt>
      <trkpt lat="44.77797" lon="5.59184">
        <ele>1250</ele>
        <time>2017-12-15T21:53:00Z</time>
      </trkpt>
      <trkpt lat="44.77791" lon="5.59185">
        <ele>1250</ele>
        <time>2017-12-15T21:53:08Z</time>
      </trkpt>
      <trkpt lat="44.77785" lon="5.59181">
        <ele>1250</ele>
        <time>2017-12-15T21:53:21Z</time>
      </trkpt>
      <trkpt lat="44.77777" lon="5.59169">
        <ele>1251</ele>
        <time>2017-12-15T21:53:24Z</time>
      </trkpt>
      <trkpt lat="44.77766" lon="5.59142">
        <ele>1264</ele>
        <time>2017-12-15T21:53:41Z</time>
      </trkpt>
      <trkpt lat="44.77752" lon="5.59114">
        <ele>1270</ele>
        <time>2017-12-15T21:53:59Z</time>
      </trkpt>
      <trkpt lat="44.7774" lon="5.591">
        <ele>1272</ele>
        <time>2017-12-15T21:54:03Z</time>
      </trkpt>
      <trkpt lat="44.77722" lon="5.59084">
        <ele>1272</ele>
        <time>2017-12-15T21:54:08Z</time>
      </trkpt>
      <trkpt lat="44.77687" lon="5.59062">
        <ele>1283</ele>
        <time>2017-12-15T21:54:23Z</time>
      </trkpt>
      <trkpt lat="44.77673" lon="5.5906">
        <ele>1282</ele>
        <time>2017-12-15T21:54:30Z</time>
      </trkpt>
      <trkpt lat="44.77668" lon="5.59064">
        <ele>1281</ele>
        <time>2017-12-15T21:54:43Z</time>
      </trkpt>
      <trkpt lat="44.77662" lon="5.59072">
        <ele>1280</ele>
        <time>2017-12-15T21:54:46Z</time>
      </trkpt>
      <trkpt lat="44.77659" lon="5.59086">
        <ele>1274</ele>
        <time>2017-12-15T21:54:48Z</time>
      </trkpt>
      <trkpt lat="44.77663" lon="5.59116">
        <ele>1276</ele>
        <time>2017-12-15T21:54:50Z</time>
      </trkpt>
      <trkpt lat="44.77664" lon="5.5913">
        <ele>1276</ele>
        <time>2017-12-15T21:54:53Z</time>
      </trkpt>
      <trkpt lat="44.77661" lon="5.59139">
        <ele>1275</ele>
        <time>2017-12-15T21:54:57Z</time>
      </trkpt>
      <trkpt lat="44.77655" lon="5.59146">
        <ele>1274</ele>
        <time>2017-12-15T21:55:00Z</time>
      </trkpt>
      <trkpt lat="44.77644" lon="5.59147">
        <ele>1276</ele>
        <time>2017-12-15T21:55:04Z</time>
      </trkpt>
      <trkpt lat="44.77637" lon="5.59143">
        <ele>1278</ele>
        <time>2017-12-15T21:55:13Z</time>
      </trkpt>
      <trkpt lat="44.7763" lon="5.59134">
        <ele>1280</ele>
        <time>2017-12-15T21:55:16Z</time>
      </trkpt>
      <trkpt lat="44.77623" lon="5.59127">
        <ele>1281</ele>
        <time>2017-12-15T21:55:36Z</time>
      </trkpt>
      <trkpt lat="44.77617" lon="5.59126">
        <ele>1282</ele>
        <time>2017-12-15T21:55:48Z</time>
      </trkpt>
      <trkpt lat="44.7761" lon="5.59131">
        <ele>1283</ele>
        <time>2017-12-15T21:56:03Z</time>
      </trkpt>
      <trkpt lat="44.77606" lon="5.59145">
        <ele>1283</ele>
        <time>2017-12-15T21:56:06Z</time>
      </trkpt>
      <trkpt lat="44.77606" lon="5.5918">
        <ele>1281</ele>
        <time>2017-12-15T21:56:15Z</time>
      </trkpt>
      <trkpt lat="44.77616" lon="5.59225">
        <ele>1277</ele>
        <time>2017-12-15T21:56:25Z</time>
      </trkpt>
      <trkpt lat="44.77625" lon="5.59261">
        <ele>1272</ele>
        <time>2017-12-15T21:56:45Z</time>
      </trkpt>
      <trkpt lat="44.77627" lon="5.5928">
        <ele>1271</ele>
        <time>2017-12-15T21:56:49Z</time>
      </trkpt>
      <trkpt lat="44.77627" lon="5.5929">
        <ele>1270</ele>
        <time>2017-12-15T21:56:58Z</time>
      </trkpt>
      <trkpt lat="44.77621" lon="5.59301">
        <ele>1271</ele>
        <time>2017-12-15T21:57:16Z</time>
      </trkpt>
      <trkpt lat="44.77611" lon="5.59307">
        <ele>1272</ele>
        <time>2017-12-15T21:57:35Z</time>
      </trkpt>
      <trkpt lat="44.77602" lon="5.59312">
        <ele>1274</ele>
        <time>2017-12-15T21:57:45Z</time>
      </trkpt>
      <trkpt lat="44.77595" lon="5.5932">
        <ele>1275</ele>
        <time>2017-12-15T21:58:01Z</time>
      </trkpt>
      <trkpt lat="44.77589" lon="5.5933">
        <ele>1278</ele>
        <time>2017-12-15T21:58:08Z</time>
      </trkpt>
      <trkpt lat="44.77578" lon="5.59372">
        <ele>1270</ele>
        <time>2017-12-15T21:58:27Z</time>
      </trkpt>
      <trkpt lat="44.77574" lon="5.59386">
        <ele>1269</ele>
        <time>2017-12-15T21:58:37Z</time>
      </trkpt>
      <trkpt lat="44.77568" lon="5.59397">
        <ele>1268</ele>
        <time>2017-12-15T21:58:43Z</time>
      </trkpt>
      <trkpt lat="44.7756" lon="5.594">
        <ele>1268</ele>
        <time>2017-12-15T21:58:53Z</time>
      </trkpt>
      <trkpt lat="44.77552" lon="5.5939">
        <ele>1268</ele>
        <time>2017-12-15T21:59:05Z</time>
      </trkpt>
      <trkpt lat="44.77547" lon="5.59374">
        <ele>1268</ele>
        <time>2017-12-15T21:59:13Z</time>
      </trkpt>
      <trkpt lat="44.77543" lon="5.59344">
        <ele>1270</ele>
        <time>2017-12-15T21:59:16Z</time>
      </trkpt>
      <trkpt lat="44.77539" lon="5.59327">
        <ele>1279</ele>
        <time>2017-12-15T21:59:33Z</time>
      </trkpt>
      <trkpt lat="44.77533" lon="5.59315">
        <ele>1279</ele>
        <time>2017-12-15T21:59:47Z</time>
      </trkpt>
      <trkpt lat="44.77517" lon="5.59296">
        <ele>1281</ele>
        <time>2017-12-15T21:59:50Z</time>
      </trkpt>
      <trkpt lat="44.77498" lon="5.59278">
        <ele>1272</ele>
        <time>2017-12-15T21:59:57Z</time>
      </trkpt>
      <trkpt lat="44.77491" lon="5.59267">
        <ele>1275</ele>
        <time>2017-12-15T22:00:11Z</time>
      </trkpt>
      <trkpt lat="44.77487" lon="5.59241">
        <ele>1285</ele>
        <time>2017-12-15T22:00:26Z</time>
      </trkpt>
      <trkpt lat="44.77481" lon="5.59223">
        <ele>1284</ele>
        <time>2017-12-15T22:00:28Z</time>
      </trkpt>
      <trkpt lat="44.77465" lon="5.59199">
        <ele>1284</ele>
        <time>2017-12-15T22:00:42Z</time>
      </trkpt>
      <trkpt lat="44.77456" lon="5.59181">
        <ele>1283</ele>
        <time>2017-12-15T22:00:51Z</time>
      </trkpt>
      <trkpt lat="44.7745" lon="5.59163">
        <ele>1294</ele>
        <time>2017-12-15T22:01:07Z</time>
      </trkpt>
      <trkpt lat="44.77444" lon="5.5914">
        <ele>1295</ele>
        <time>2017-12-15T22:01:20Z</time>
      </trkpt>
      <trkpt lat="44.77438" lon="5.59121">
        <ele>1297</ele>
        <time>2017-12-15T22:01:24Z</time>
      </trkpt>
      <trkpt lat="44.77425" lon="5.59104">
        <ele>1298</ele>
        <time>2017-12-15T22:01:40Z</time>
      </trkpt>
      <trkpt lat="44.77409" lon="5.59092">
        <ele>1290</ele>
        <time>2017-12-15T22:01:48Z</time>
      </trkpt>
      <trkpt lat="44.77397" lon="5.59086">
        <ele>1286</ele>
        <time>2017-12-15T22:02:03Z</time>
      </trkpt>
      <trkpt lat="44.77384" lon="5.59083">
        <ele>1293</ele>
        <time>2017-12-15T22:02:06Z</time>
      </trkpt>
      <trkpt lat="44.7737" lon="5.59078">
        <ele>1289</ele>
        <time>2017-12-15T22:02:19Z</time>
      </trkpt>
      <trkpt lat="44.77362" lon="5.59069">
        <ele>1288</ele>
        <time>2017-12-15T22:02:32Z</time>
      </trkpt>
      <trkpt lat="44.77352" lon="5.59042">
        <ele>1290</ele>
        <time>2017-12-15T22:02:38Z</time>
      </trkpt>
      <trkpt lat="44.77346" lon="5.59013">
        <ele>1290</ele>
        <time>2017-12-15T22:02:54Z</time>
      </trkpt>
      <trkpt lat="44.77345" lon="5.59">
        <ele>1293</ele>
        <time>2017-12-15T22:02:57Z</time>
      </trkpt>
      <trkpt lat="44.77347" lon="5.58989">
        <ele>1295</ele>
        <time>2017-12-15T22:03:13Z</time>
      </trkpt>
      <trkpt lat="44.77357" lon="5.58965">
        <ele>1301</ele>
        <time>2017-12-15T22:03:33Z</time>
      </trkpt>
      <trkpt lat="44.77358" lon="5.58952">
        <ele>1302</ele>
        <time>2017-12-15T22:03:50Z</time>
      </trkpt>
      <trkpt lat="44.77353" lon="5.58926">
        <ele>1299</ele>
        <time>2017-12-15T22:03:58Z</time>
      </trkpt>
      <trkpt lat="44.77353" lon="5.5889">
        <ele>1308</ele>
        <time>2017-12-15T22:04:12Z</time>
      </trkpt>
      <trkpt lat="44.77348" lon="5.58861">
        <ele>1310</ele>
        <time>2017-12-15T22:04:18Z</time>
      </trkpt>
      <trkpt lat="44.77343" lon="5.58833">
        <ele>1311</ele>
        <time>2017-12-15T22:04:36Z</time>
      </trkpt>
      <trkpt lat="44.77327" lon="5.58783">
        <ele>1317</ele>
        <time>2017-12-15T22:04:47Z</time>
      </trkpt>
      <trkpt lat="44.7732" lon="5.58777">
        <ele>1318</ele>
        <time>2017-12-15T22:05:01Z</time>
      </trkpt>
      <trkpt lat="44.77308" lon="5.58777">
        <ele>1320</ele>
        <time>2017-12-15T22:05:03Z</time>
      </trkpt>
      <trkpt lat="44.77301" lon="5.5878">
        <ele>1321</ele>
        <time>2017-12-15T22:05:07Z</time>
      </trkpt>
      <trkpt lat="44.77298" lon="5.58785">
        <ele>1321</ele>
        <time>2017-12-15T22:05:17Z</time>
      </trkpt>
      <trkpt lat="44.77295" lon="5.58793">
        <ele>1321</ele>
        <time>2017-12-15T22:05:35Z</time>
      </trkpt>
      <trkpt lat="44.77299" lon="5.58816">
        <ele>1318</ele>
        <time>2017-12-15T22:05:54Z</time>
      </trkpt>
      <trkpt lat="44.77299" lon="5.58831">
        <ele>1317</ele>
        <time>2017-12-15T22:06:04Z</time>
      </trkpt>
      <trkpt lat="44.77287" lon="5.58866">
        <ele>1308</ele>
        <time>2017-12-15T22:06:07Z</time>
      </trkpt>
      <trkpt lat="44.77284" lon="5.58898">
        <ele>1306</ele>
        <time>2017-12-15T22:06:12Z</time>
      </trkpt>
      <trkpt lat="44.77283" lon="5.58914">
        <ele>1305</ele>
        <time>2017-12-15T22:06:14Z</time>
      </trkpt>
      <trkpt lat="44.7728" lon="5.58925">
        <ele>1299</ele>
        <time>2017-12-15T22:06:23Z</time>
      </trkpt>
      <trkpt lat="44.77275" lon="5.58937">
        <ele>1299</ele>
        <time>2017-12-15T22:06:36Z</time>
      </trkpt>
      <trkpt lat="44.7727" lon="5.58942">
        <ele>1299</ele>
        <time>2017-12-15T22:06:38Z</time>
      </trkpt>
      <trkpt lat="44.77265" lon="5.58943">
        <ele>1299</ele>
        <time>2017-12-15T22:06:56Z</time>
      </trkpt>
      <trkpt lat="44.77254" lon="5.58932">
        <ele>1303</ele>
        <time>2017-12-15T22:07:03Z</time>
      </trkpt>
      <trkpt lat="44.77243" lon="5.58924">
        <ele>1315</ele>
        <time>2017-12-15T22:07:17Z</time>
      </trkpt>
      <trkpt lat="44.77236" lon="5.58927">
        <ele>1318</ele>
        <time>2017-12-15T22:07:26Z</time>
      </trkpt>
      <trkpt lat="44.77231" lon="5.58934">
        <ele>1320</ele>
        <time>2017-12-15T22:07:31Z</time>
      </trkpt>
      <trkpt lat="44.77229" lon="5.58942">
        <ele>1321</ele>
        <time>2017-12-15T22:07:33Z</time>
      </trkpt>
      <trkpt lat="44.77223" lon="5.58959">
        <ele>1322</ele>
        <time>2017-12-15T22:07:44Z</time>
      </trkpt>
      <trkpt lat="44.77213" lon="5.58976">
        <ele>1323</ele>
        <time>2017-12-15T22:07:46Z</time>
      </trkpt>
      <trkpt lat="44.77209" lon="5.58987">
        <ele>1323</ele>
        <time>2017-12-15T22:08:02Z</time>
      </trkpt>
      <trkpt lat="44.77208" lon="5.59">
        <ele>1323</ele>
        <time>2017-12-15T22:08:14Z</time>
      </trkpt>
      <trkpt lat="44.77207" lon="5.59048">
        <ele>1308</ele>
        <time>2017-12-15T22:08:20Z</time>
      </trkpt>
      <trkpt lat="44.77203" lon="5.59079">
        <ele>1307</ele>
        <time>2017-12-15T22:08:39Z</time>
      </trkpt>
      <trkpt lat="44.77195" lon="5.59105">
        <ele>1298</ele>
        <time>2017-12-15T22:08:53Z</time>
      </trkpt>
      <trkpt lat="44.77191" lon="5.59113">
        <ele>1297</ele>
        <time>2017-12-15T22:09:06Z</time>
      </trkpt>
      <trkpt lat="44.77186" lon="5.59117">
        <ele>1297</ele>
        <time>2017-12-15T22:09:14Z</time>
      </trkpt>
      <trkpt lat="44.7718" lon="5.59116">
        <ele>1298</ele>
        <time>2017-12-15T22:09:16Z</time>
      </trkpt>
      <trkpt lat="44.77171" lon="5.59105">
        <ele>1302</ele>
        <time>2017-12-15T22:09:27Z</time>
      </trkpt>
      <trkpt lat="44.77161" lon="5.59083">
        <ele>1316</ele>
        <time>2017-12-15T22:09:41Z</time>
      </trkpt>
      <trkpt lat="44.77152" lon="5.59067">
        <ele>1320</ele>
        <time>2017-12-15T22:10:00Z</time>
      </trkpt>
      <trkpt lat="44.77133" lon="5.59046">
        <ele>1323</ele>
        <time>2017-12-15T22:10:06Z</time>
      </trkpt>
      <trkpt lat="44.77124" lon="5.59031">
        <ele>1325</ele>
        <time>2017-12-15T22:10:17Z</time>
      </trkpt>
      <trkpt lat="44.77118" lon="5.59022">
        <ele>1326</ele>
        <time>2017-12-15T22:10:24Z</time>
      </trkpt>
      <trkpt lat="44.77111" lon="5.59018">
        <ele>1326</ele>
        <time>2017-12-15T22:10:27Z</time>
      </trkpt>
      <trkpt lat="44.77103" lon="5.59018">
        <ele>1326</ele>
        <time>2017-12-15T22:10:43Z</time>
      </trkpt>
      <trkpt lat="44.77094" lon="5.59015">
        <ele>1327</ele>
        <time>2017-12-15T22:10:45Z</time>
      </trkpt>
      <trkpt lat="44.77087" lon="5.5901">
        <ele>1329</ele>
        <time>2017-12-15T22:10:56Z</time>
      </trkpt>
      <trkpt lat="44.77077" lon="5.58995">
        <ele>1336</ele>
        <time>2017-12-15T22:11:06Z</time>
      </trkpt>
      <trkpt lat="44.77069" lon="5.5898">
        <ele>1341</ele>
        <time>2017-12-15T22:11:26Z</time>
      </trkpt>
      <trkpt lat="44.77064" lon="5.58973">
        <ele>1342</ele>
        <time>2017-12-15T22:11:28Z</time>
      </trkpt>
      <trkpt lat="44.77055" lon="5.5897">
        <ele>1344</ele>
        <time>2017-12-15T22:11:47Z</time>
      </trkpt>
      <trkpt lat="44.77049" lon="5.58972">
        <ele>1344</ele>
        <time>2017-12-15T22:12:07Z</time>
      </trkpt>
      <trkpt lat="44.77044" lon="5.58978">
        <ele>1343</ele>
        <time>2017-12-15T22:12:18Z</time>
      </trkpt>
      <trkpt lat="44.77036" lon="5.58998">
        <ele>1342</ele>
        <time>2017-12-15T22:12:22Z</time>
      </trkpt>
      <trkpt lat="44.7703" lon="5.59007">
        <ele>1328</ele>
        <time>2017-12-15T22:12:24Z</time>
      </trkpt>
      <trkpt lat="44.77024" lon="5.59011">
        <ele>1328</ele>
        <time>2017-12-15T22:12:35Z</time>
      </trkpt>
      <trkpt lat="44.77008" lon="5.59009">
        <ele>1332</ele>
        <time>2017-12-15T22:12:51Z</time>
      </trkpt>
      <trkpt lat="44.76999" lon="5.5901">
        <ele>1337</ele>
        <time>2017-12-15T22:13:00Z</time>
      </trkpt>
      <trkpt lat="44.7699" lon="5.59014">
        <ele>1336</ele>
        <time>2017-12-15T22:13:19Z</time>
      </trkpt>
      <trkpt lat="44.76975" lon="5.5903">
        <ele>1336</ele>
        <time>2017-12-15T22:13:38Z</time>
      </trkpt>
      <trkpt lat="44.76965" lon="5.59041">
        <ele>1336</ele>
        <time>2017-12-15T22:13:41Z</time>
      </trkpt>
      <trkpt lat="44.76952" lon="5.59043">
        <ele>1337</ele>
        <time>2017-12-15T22:13:44Z</time>
      </trkpt>
      <trkpt lat="44.76938" lon="5.59048">
        <ele>1338</ele>
        <time>2017-12-15T22:14:03Z</time>
      </trkpt>
      <trkpt lat="44.76931" lon="5.59061">
        <ele>1336</ele>
        <time>2017-12-15T22:14:09Z</time>
      </trkpt>
      <trkpt lat="44.76922" lon="5.59072">
        <ele>1335</ele>
        <time>2017-12-15T22:14:15Z</time>
      </trkpt>
      <trkpt lat="44.76914" lon="5.59075">
        <ele>1341</ele>
        <time>2017-12-15T22:14:23Z</time>
      </trkpt>
      <trkpt lat="44.76906" lon="5.59073">
        <ele>1345</ele>
        <time>2017-12-15T22:14:27Z</time>
      </trkpt>
      <trkpt lat="44.76891" lon="5.59062">
        <ele>1352</ele>
        <time>2017-12-15T22:14:47Z</time>
      </trkpt>
      <trkpt lat="44.76877" lon="5.59054">
        <ele>1356</ele>
        <time>2017-12-15T22:14:52Z</time>
      </trkpt>
      <trkpt lat="44.76869" lon="5.59056">
        <ele>1357</ele>
        <time>2017-12-15T22:15:04Z</time>
      </trkpt>
      <trkpt lat="44.76864" lon="5.59062">
        <ele>1357</ele>
        <time>2017-12-15T22:15:18Z</time>
      </trkpt>
      <trkpt lat="44.7686" lon="5.5907">
        <ele>1357</ele>
        <time>2017-12-15T22:15:21Z</time>
      </trkpt>
      <trkpt lat="44.76859" lon="5.59078">
        <ele>1356</ele>
        <time>2017-12-15T22:15:39Z</time>
      </trkpt>
      <trkpt lat="44.7686" lon="5.59099">
        <ele>1341</ele>
        <time>2017-12-15T22:15:57Z</time>
      </trkpt>
      <trkpt lat="44.76857" lon="5.59108">
        <ele>1340</ele>
        <time>2017-12-15T22:16:11Z</time>
      </trkpt>
      <trkpt lat="44.76852" lon="5.59116">
        <ele>1339</ele>
        <time>2017-12-15T22:16:16Z</time>
      </trkpt>
      <trkpt lat="44.76832" lon="5.59135">
        <ele>1356</ele>
        <time>2017-12-15T22:16:29Z</time>
      </trkpt>
      <trkpt lat="44.76816" lon="5.59158">
        <ele>1351</ele>
        <time>2017-12-15T22:16:41Z</time>
      </trkpt>
      <trkpt lat="44.76798" lon="5.59193">
        <ele>1340</ele>
        <time>2017-12-15T22:16:48Z</time>
      </trkpt>
      <trkpt lat="44.76783" lon="5.59223">
        <ele>1338</ele>
        <time>2017-12-15T22:16:52Z</time>
      </trkpt>
      <trkpt lat="44.7677" lon="5.59236">
        <ele>1337</ele>
        <time>2017-12-15T22:17:08Z</time>
      </trkpt>
      <trkpt lat="44.76756" lon="5.59239">
        <ele>1337</ele>
        <time>2017-12-15T22:17:28Z</time>
      </trkpt>
      <trkpt lat="44.76742" lon="5.59238">
        <ele>1339</ele>
        <time>2017-12-15T22:17:38Z</time>
      </trkpt>
      <trkpt lat="44.76727" lon="5.59233">
        <ele>1339</ele>
        <time>2017-12-15T22:17:46Z</time>
      </trkpt>
      <trkpt lat="44.76715" lon="5.59222">
        <ele>1340</ele>
        <time>2017-12-15T22:17:50Z</time>
      </trkpt>
      <trkpt lat="44.76697" lon="5.59201">
        <ele>1341</ele>
        <time>2017-12-15T22:18:04Z</time>
      </trkpt>
      <trkpt lat="44.76678" lon="5.59175">
        <ele>1344</ele>
        <time>2017-12-15T22:18:12Z</time>
      </trkpt>
      <trkpt lat="44.76645" lon="5.59113">
        <ele>1358</ele>
        <time>2017-12-15T22:18:24Z</time>
      </trkpt>
      <trkpt lat="44.76634" lon="5.59083">
        <ele>1378</ele>
        <time>2017-12-15T22:18:41Z</time>
      </trkpt>
      <trkpt lat="44.76618" lon="5.5905">
        <ele>1380</ele>
        <time>2017-12-15T22:18:59Z</time>
      </trkpt>
      <trkpt lat="44.76608" lon="5.59042">
        <ele>1380</ele>
        <time>2017-12-15T22:19:03Z</time>
      </trkpt>
      <trkpt lat="44.76602" lon="5.59041">
        <ele>1380</ele>
        <time>2017-12-15T22:19:15Z</time>
      </trkpt>
      <trkpt lat="44.76596" lon="5.59042">
        <ele>1379</ele>
        <time>2017-12-15T22:19:28Z</time>
      </trkpt>
      <trkpt lat="44.76585" lon="5.59052">
        <ele>1375</ele>
        <time>2017-12-15T22:19:44Z</time>
      </trkpt>
      <trkpt lat="44.76575" lon="5.59065">
        <ele>1373</ele>
        <time>2017-12-15T22:19:46Z</time>
      </trkpt>
      <trkpt lat="44.76568" lon="5.5908">
        <ele>1371</ele>
        <time>2017-12-15T22:20:06Z</time>
      </trkpt>
      <trkpt lat="44.76562" lon="5.5911">
        <ele>1366</ele>
        <time>2017-12-15T22:20:14Z</time>
      </trkpt>
      <trkpt lat="44.76554" lon="5.59134">
        <ele>1366</ele>
        <time>2017-12-15T22:20:33Z</time>
      </trkpt>
      <trkpt lat="44.76552" lon="5.59145">
        <ele>1365</ele>
        <time>2017-12-15T22:20:42Z</time>
      </trkpt>
      <trkpt lat="44.76553" lon="5.59157">
        <ele>1363</ele>
        <time>2017-12-15T22:20:54Z</time>
      </trkpt>
      <trkpt lat="44.76555" lon="5.59164">
        <ele>1362</ele>
        <time>2017-12-15T22:20:56Z</time>
      </trkpt>
      <trkpt lat="44.76557" lon="5.5918">
        <ele>1357</ele>
        <time>2017-12-15T22:21:08Z</time>
      </trkpt>
      <trkpt lat="44.76551" lon="5.59205">
        <ele>1361</ele>
        <time>2017-12-15T22:21:11Z</time>
      </trkpt>
      <trkpt lat="44.7654" lon="5.59241">
        <ele>1365</ele>
        <time>2017-12-15T22:21:30Z</time>
      </trkpt>
      <trkpt lat="44.76532" lon="5.59296">
        <ele>1364</ele>
        <time>2017-12-15T22:21:49Z</time>
      </trkpt>
      <trkpt lat="44.76516" lon="5.59367">
        <ele>1359</ele>
        <time>2017-12-15T22:22:07Z</time>
      </trkpt>
      <trkpt lat="44.765" lon="5.59423">
        <ele>1360</ele>
        <time>2017-12-15T22:22:25Z</time>
      </trkpt>
      <trkpt lat="44.76493" lon="5.59444">
        <ele>1374</ele>
        <time>2017-12-15T22:22:30Z</time>
      </trkpt>
      <trkpt lat="44.76486" lon="5.59454">
        <ele>1374</ele>
        <time>2017-12-15T22:22:46Z</time>
      </trkpt>
      <trkpt lat="44.76478" lon="5.5946">
        <ele>1374</ele>
        <time>2017-12-15T22:23:05Z</time>
      </trkpt>
      <trkpt lat="44.76456" lon="5.59463">
        <ele>1380</ele>
        <time>2017-12-15T22:23:25Z</time>
      </trkpt>
      <trkpt lat="44.76428" lon="5.59477">
        <ele>1385</ele>
        <time>2017-12-15T22:23:39Z</time>
      </trkpt>
      <trkpt lat="44.76409" lon="5.59491">
        <ele>1407</ele>
        <time>2017-12-15T22:23:43Z</time>
      </trkpt>
      <trkpt lat="44.76396" lon="5.59506">
        <ele>1402</ele>
        <time>2017-12-15T22:23:56Z</time>
      </trkpt>
      <trkpt lat="44.76391" lon="5.59518">
        <ele>1405</ele>
        <time>2017-12-15T22:24:05Z</time>
      </trkpt>
      <trkpt lat="44.76388" lon="5.59533">
        <ele>1405</ele>
        <time>2017-12-15T22:24:19Z</time>
      </trkpt>
      <trkpt lat="44.76386" lon="5.59561">
        <ele>1401</ele>
        <time>2017-12-15T22:24:29Z</time>
      </trkpt>
      <trkpt lat="44.76389" lon="5.59578">
        <ele>1396</ele>
        <time>2017-12-15T22:24:38Z</time>
      </trkpt>
      <trkpt lat="44.764" lon="5.596">
        <ele>1382</ele>
        <time>2017-12-15T22:24:46Z</time>
      </trkpt>
      <trkpt lat="44.76402" lon="5.59609">
        <ele>1382</ele>
        <time>2017-12-15T22:24:49Z</time>
      </trkpt>
      <trkpt lat="44.76402" lon="5.59621">
        <ele>1382</ele>
        <time>2017-12-15T22:24:53Z</time>
      </trkpt>
      <trkpt lat="44.764" lon="5.59629">
        <ele>1382</ele>
        <time>2017-12-15T22:25:07Z</time>
      </trkpt>
      <trkpt lat="44.76387" lon="5.59655">
        <ele>1382</ele>
        <time>2017-12-15T22:25:11Z</time>
      </trkpt>
      <trkpt lat="44.76334" lon="5.59752">
        <ele>1385</ele>
        <time>2017-12-15T22:25:31Z</time>
      </trkpt>
      <trkpt lat="44.76279" lon="5.59857">
        <ele>1381</ele>
        <time>2017-12-15T22:25:41Z</time>
      </trkpt>
      <trkpt lat="44.76272" lon="5.59869">
        <ele>1380</ele>
        <time>2017-12-15T22:25:48Z</time>
      </trkpt>
      <trkpt lat="44.76263" lon="5.59876">
        <ele>1381</ele>
        <time>2017-12-15T22:26:02Z</time>
      </trkpt>
      <trkpt lat="44.7625" lon="5.59883">
        <ele>1382</ele>
        <time>2017-12-15T22:26:06Z</time>
      </trkpt>
      <trkpt lat="44.76242" lon="5.5989">
        <ele>1410</ele>
        <time>2017-12-15T22:26:20Z</time>
      </trkpt>
      <trkpt lat="44.76238" lon="5.59899">
        <ele>1408</ele>
        <time>2017-12-15T22:26:32Z</time>
      </trkpt>
      <trkpt lat="44.76236" lon="5.59916">
        <ele>1403</ele>
        <time>2017-12-15T22:26:36Z</time>
      </trkpt>
      <trkpt lat="44.76241" lon="5.59946">
        <ele>1396</ele>
        <time>2017-12-15T22:26:43Z</time>
      </trkpt>
      <trkpt lat="44.76243" lon="5.59966">
        <ele>1393</ele>
        <time>2017-12-15T22:26:59Z</time>
      </trkpt>
      <trkpt lat="44.76242" lon="5.59977">
        <ele>1390</ele>
        <time>2017-12-15T22:27:03Z</time>
      </trkpt>
      <trkpt lat="44.76238" lon="5.59988">
        <ele>1387</ele>
        <time>2017-12-15T22:27:21Z</time>
      </trkpt>
      <trkpt lat="44.76231" lon="5.59996">
        <ele>1389</ele>
        <time>2017-12-15T22:27:40Z</time>
      </trkpt>
      <trkpt lat="44.76206" lon="5.60014">
        <ele>1387</ele>
        <time>2017-12-15T22:27:44Z</time>
      </trkpt>
      <trkpt lat="44.76196" lon="5.60025">
        <ele>1389</ele>
        <time>2017-12-15T22:28:04Z</time>
      </trkpt>
      <trkpt lat="44.7619" lon="5.60038">
        <ele>1388</ele>
        <time>2017-12-15T22:28:06Z</time>
      </trkpt>
      <trkpt lat="44.76182" lon="5.60063">
        <ele>1387</ele>
        <time>2017-12-15T22:28:10Z</time>
      </trkpt>
      <trkpt lat="44.76178" lon="5.60071">
        <ele>1389</ele>
        <time>2017-12-15T22:28:25Z</time>
      </trkpt>
      <trkpt lat="44.7617" lon="5.60081">
        <ele>1392</ele>
        <time>2017-12-15T22:28:37Z</time>
      </trkpt>
      <trkpt lat="44.76154" lon="5.60093">
        <ele>1402</ele>
        <time>2017-12-15T22:28:51Z</time>
      </trkpt>
      <trkpt lat="44.76147" lon="5.60103">
        <ele>1405</ele>
        <time>2017-12-15T22:29:01Z</time>
      </trkpt>
      <trkpt lat="44.76142" lon="5.6012">
        <ele>1407</ele>
        <time>2017-12-15T22:29:17Z</time>
      </trkpt>
      <trkpt lat="44.76133" lon="5.6014">
        <ele>1408</ele>
        <time>2017-12-15T22:29:21Z</time>
      </trkpt>
      <trkpt lat="44.7613" lon="5.6015">
        <ele>1408</ele>
        <time>2017-12-15T22:29:23Z</time>
      </trkpt>
      <trkpt lat="44.76131" lon="5.60163">
        <ele>1407</ele>
        <time>2017-12-15T22:29:40Z</time>
      </trkpt>
      <trkpt lat="44.76146" lon="5.60189">
        <ele>1399</ele>
        <time>2017-12-15T22:29:50Z</time>
      </trkpt>
      <trkpt lat="44.76152" lon="5.60204">
        <ele>1399</ele>
        <time>2017-12-15T22:29:53Z</time>
      </trkpt>
      <trkpt lat="44.76153" lon="5.60224">
        <ele>1397</ele>
        <time>2017-12-15T22:30:05Z</time>
      </trkpt>
      <trkpt lat="44.7615" lon="5.60243">
        <ele>1394</ele>
        <time>2017-12-15T22:30:09Z</time>
      </trkpt>
      <trkpt lat="44.7614" lon="5.60259">
        <ele>1396</ele>
        <time>2017-12-15T22:30:26Z</time>
      </trkpt>
      <trkpt lat="44.76135" lon="5.60268">
        <ele>1398</ele>
        <time>2017-12-15T22:30:46Z</time>
      </trkpt>
      <trkpt lat="44.76132" lon="5.6028">
        <ele>1398</ele>
        <time>2017-12-15T22:30:55Z</time>
      </trkpt>
      <trkpt lat="44.7613" lon="5.60313">
        <ele>1397</ele>
        <time>2017-12-15T22:30:57Z</time>
      </trkpt>
      <trkpt lat="44.76124" lon="5.60346">
        <ele>1392</ele>
        <time>2017-12-15T22:31:03Z</time>
      </trkpt>
      <trkpt lat="44.76119" lon="5.60405">
        <ele>1389</ele>
        <time>2017-12-15T22:31:18Z</time>
      </trkpt>
      <trkpt lat="44.76116" lon="5.6042">
        <ele>1382</ele>
        <time>2017-12-15T22:31:25Z</time>
      </trkpt>
      <trkpt lat="44.76103" lon="5.60447">
        <ele>1382</ele>
        <time>2017-12-15T22:31:27Z</time>
      </trkpt>
      <trkpt lat="44.76092" lon="5.60463">
        <ele>1381</ele>
        <time>2017-12-15T22:31:39Z</time>
      </trkpt>
      <trkpt lat="44.76085" lon="5.6047">
        <ele>1381</ele>
        <time>2017-12-15T22:31:44Z</time>
      </trkpt>
      <trkpt lat="44.76076" lon="5.60472">
        <ele>1394</ele>
        <time>2017-12-15T22:31:46Z</time>
      </trkpt>
      <trkpt lat="44.76065" lon="5.60467">
        <ele>1395</ele>
        <time>2017-12-15T22:32:01Z</time>
      </trkpt>
      <trkpt lat="44.7606" lon="5.60457">
        <ele>1397</ele>
        <time>2017-12-15T22:32:05Z</time>
      </trkpt>
      <trkpt lat="44.7606" lon="5.60434">
        <ele>1400</ele>
        <time>2017-12-15T22:32:21Z</time>
      </trkpt>
      <trkpt lat="44.76059" lon="5.60419">
        <ele>1401</ele>
        <time>2017-12-15T22:32:40Z</time>
      </trkpt>
      <trkpt lat="44.76057" lon="5.60405">
        <ele>1414</ele>
        <time>2017-12-15T22:32:51Z</time>
      </trkpt>
      <trkpt lat="44.7605" lon="5.60397">
        <ele>1416</ele>
        <time>2017-12-15T22:33:06Z</time>
      </trkpt>
      <trkpt lat="44.76041" lon="5.60393">
        <ele>1418</ele>
        <time>2017-12-15T22:33:08Z</time>
      </trkpt>
      <trkpt lat="44.76028" lon="5.60396">
        <ele>1418</ele>
        <time>2017-12-15T22:33:24Z</time>
      </trkpt>
      <trkpt lat="44.76001" lon="5.60413">
        <ele>1414</ele>
        <time>2017-12-15T22:33:43Z</time>
      </trkpt>
      <trkpt lat="44.75949" lon="5.60442">
        <ele>1416</ele>
        <time>2017-12-15T22:34:03Z</time>
      </trkpt>
      <trkpt lat="44.75929" lon="5.60459">
        <ele>1415</ele>
        <time>2017-12-15T22:34:05Z</time>
      </trkpt>
      <trkpt lat="44.75917" lon="5.60474">
        <ele>1414</ele>
        <time>2017-12-15T22:34:24Z</time>
      </trkpt>
      <trkpt lat="44.7591" lon="5.60482">
        <ele>1424</ele>
        <time>2017-12-15T22:34:32Z</time>
      </trkpt>
      <trkpt lat="44.75905" lon="5.60484">
        <ele>1424</ele>
        <time>2017-12-15T22:34:51Z</time>
      </trkpt>
      <trkpt lat="44.759" lon="5.60483">
        <ele>1426</ele>
        <time>2017-12-15T22:35:09Z</time>
      </trkpt>
      <trkpt lat="44.75891" lon="5.60476">
        <ele>1429</ele>
        <time>2017-12-15T22:35:12Z</time>
      </trkpt>
      <trkpt lat="44.75726" lon="5.60248">
        <ele>1415</ele>
        <time>2017-12-15T22:35:27Z</time>
      </trkpt>
      <trkpt lat="44.75714" lon="5.60225">
        <ele>1411</ele>
        <time>2017-12-15T22:35:47Z</time>
      </trkpt>
      <trkpt lat="44.75705" lon="5.60188">
        <ele>1407</ele>
        <time>2017-12-15T22:35:58Z</time>
      </trkpt>
      <trkpt lat="44.75685" lon="5.60022">
        <ele>1401</ele>
        <time>2017-12-15T22:36:18Z</time>
      </trkpt>
      <trkpt lat="44.75681" lon="5.6001">
        <ele>1398</ele>
        <time>2017-12-15T22:36:26Z</time>
      </trkpt>
      <trkpt lat="44.75672" lon="5.59997">
        <ele>1394</ele>
        <time>2017-12-15T22:36:46Z</time>
      </trkpt>
      <trkpt lat="44.75647" lon="5.59971">
        <ele>1378</ele>
        <time>2017-12-15T22:36:59Z</time>
      </trkpt>
      <trkpt lat="44.75642" lon="5.59961">
        <ele>1377</ele>
        <time>2017-12-15T22:37:15Z</time>
      </trkpt>
      <trkpt lat="44.75632" lon="5.59915">
        <ele>1388</ele>
        <time>2017-12-15T22:37:29Z</time>
      </trkpt>
      <trkpt lat="44.75608" lon="5.59857">
        <ele>1384</ele>
        <time>2017-12-15T22:37:48Z</time>
      </trkpt>
      <trkpt lat="44.75577" lon="5.59814">
        <ele>1366</ele>
        <time>2017-12-15T22:37:59Z</time>
      </trkpt>
      <trkpt lat="44.7557" lon="5.59794">
        <ele>1364</ele>
        <time>2017-12-15T22:38:07Z</time>
      </trkpt>
      <trkpt lat="44.75569" lon="5.59781">
        <ele>1365</ele>
        <time>2017-12-15T22:38:27Z</time>
      </trkpt>
      <trkpt lat="44.75572" lon="5.59766">
        <ele>1368</ele>
        <time>2017-12-15T22:38:31Z</time>
      </trkpt>
      <trkpt lat="44.75593" lon="5.5966">
        <ele>1379</ele>
        <time>2017-12-15T22:38:42Z</time>
      </trkpt>
      <trkpt lat="44.75591" lon="5.5962">
        <ele>1383</ele>
        <time>2017-12-15T22:38:57Z</time>
      </trkpt>
      <trkpt lat="44.75588" lon="5.59601">
        <ele>1379</ele>
        <time>2017-12-15T22:39:12Z</time>
      </trkpt>
      <trkpt lat="44.75565" lon="5.59535">
        <ele>1364</ele>
        <time>2017-12-15T22:39:29Z</time>
      </trkpt>
      <trkpt lat="44.75548" lon="5.59498">
        <ele>1364</ele>
        <time>2017-12-15T22:39:46Z</time>
      </trkpt>
      <trkpt lat="44.75542" lon="5.59487">
        <ele>1363</ele>
        <time>2017-12-15T22:39:59Z</time>
      </trkpt>
      <trkpt lat="44.75501" lon="5.59446">
        <ele>1360</ele>
        <time>2017-12-15T22:40:09Z</time>
      </trkpt>
      <trkpt lat="44.75493" lon="5.59436">
        <ele>1348</ele>
        <time>2017-12-15T22:40:14Z</time>
      </trkpt>
      <trkpt lat="44.75485" lon="5.59417">
        <ele>1349</ele>
        <time>2017-12-15T22:40:33Z</time>
      </trkpt>
      <trkpt lat="44.75478" lon="5.59394">
        <ele>1344</ele>
        <time>2017-12-15T22:40:52Z</time>
      </trkpt>
      <trkpt lat="44.75473" lon="5.59357">
        <ele>1341</ele>
        <time>2017-12-15T22:41:04Z</time>
      </trkpt>
      <trkpt lat="44.75478" lon="5.59328">
        <ele>1340</ele>
        <time>2017-12-15T22:41:18Z</time>
      </trkpt>
      <trkpt lat="44.75498" lon="5.59297">
        <ele>1339</ele>
        <time>2017-12-15T22:41:20Z</time>
      </trkpt>
      <trkpt lat="44.75503" lon="5.59284">
        <ele>1356</ele>
        <time>2017-12-15T22:41:25Z</time>
      </trkpt>
      <trkpt lat="44.75505" lon="5.59267">
        <ele>1353</ele>
        <time>2017-12-15T22:41:36Z</time>
      </trkpt>
      <trkpt lat="44.755" lon="5.59232">
        <ele>1355</ele>
        <time>2017-12-15T22:41:55Z</time>
      </trkpt>
      <trkpt lat="44.75495" lon="5.59217">
        <ele>1338</ele>
        <time>2017-12-15T22:42:12Z</time>
      </trkpt>
      <trkpt lat="44.75484" lon="5.59197">
        <ele>1339</ele>
        <time>2017-12-15T22:42:18Z</time>
      </trkpt>
      <trkpt lat="44.75464" lon="5.59167">
        <ele>1336</ele>
        <time>2017-12-15T22:42:34Z</time>
      </trkpt>
      <trkpt lat="44.7546" lon="5.59155">
        <ele>1338</ele>
        <time>2017-12-15T22:42:42Z</time>
      </trkpt>
      <trkpt lat="44.75457" lon="5.59123">
        <ele>1337</ele>
        <time>2017-12-15T22:42:47Z</time>
      </trkpt>
      <trkpt lat="44.75458" lon="5.59098">
        <ele>1338</ele>
        <time>2017-12-15T22:43:05Z</time>
      </trkpt>
      <trkpt lat="44.75456" lon="5.59018">
        <ele>1342</ele>
        <time>2017-12-15T22:43:13Z</time>
      </trkpt>
      <trkpt lat="44.75456" lon="5.58988">
        <ele>1345</ele>
        <time>2017-12-15T22:43:32Z</time>
      </trkpt>
      <trkpt lat="44.75458" lon="5.5897">
        <ele>1346</ele>
        <time>2017-12-15T22:43:36Z</time>
      </trkpt>
      <trkpt lat="44.75472" lon="5.58918">
        <ele>1350</ele>
        <time>2017-12-15T22:43:56Z</time>
      </trkpt>
      <trkpt lat="44.75478" lon="5.58882">
        <ele>1357</ele>
        <time>2017-12-15T22:44:15Z</time>
      </trkpt>
      <trkpt lat="44.75474" lon="5.58866">
        <ele>1358</ele>
        <time>2017-12-15T22:44:22Z</time>
      </trkpt>
      <trkpt lat="44.75469" lon="5.5886">
        <ele>1358</ele>
        <time>2017-12-15T22:44:36Z</time>
      </trkpt>
      <trkpt lat="44.75461" lon="5.58856">
        <ele>1359</ele>
        <time>2017-12-15T22:44:46Z</time>
      </trkpt>
      <trkpt lat="44.75446" lon="5.58859">
        <ele>1358</ele>
        <time>2017-12-15T22:44:49Z</time>
      </trkpt>
      <trkpt lat="44.75425" lon="5.58878">
        <ele>1354</ele>
        <time>2017-12-15T22:44:54Z</time>
      </trkpt>
      <trkpt lat="44.75391" lon="5.58901">
        <ele>1348</ele>
        <time>2017-12-15T22:45:12Z</time>
      </trkpt>
      <trkpt lat="44.75373" lon="5.58915">
        <ele>1348</ele>
        <time>2017-12-15T22:45:19Z</time>
      </trkpt>
      <trkpt lat="44.75321" lon="5.58973">
        <ele>1319</ele>
        <time>2017-12-15T22:45:38Z</time>
      </trkpt>
      <trkpt lat="44.75309" lon="5.58986">
        <ele>1317</ele>
        <time>2017-12-15T22:45:41Z</time>
      </trkpt>
      <trkpt lat="44.75301" lon="5.5899">
        <ele>1316</ele>
        <time>2017-12-15T22:45:45Z</time>
      </trkpt>
      <trkpt lat="44.75284" lon="5.58991">
        <ele>1315</ele>
        <time>2017-12-15T22:45:51Z</time>
      </trkpt>
      <trkpt lat="44.75273" lon="5.58985">
        <ele>1314</ele>
        <time>2017-12-15T22:46:01Z</time>
      </trkpt>
      <trkpt lat="44.75266" lon="5.58974">
        <ele>1315</ele>
        <time>2017-12-15T22:46:13Z</time>
      </trkpt>
      <trkpt lat="44.75206" lon="5.5885">
        <ele>1319</ele>
        <time>2017-12-15T22:46:20Z</time>
      </trkpt>
      <trkpt lat="44.75157" lon="5.5877">
        <ele>1314</ele>
        <time>2017-12-15T22:46:24Z</time>
      </trkpt>
      <trkpt lat="44.75136" lon="5.58741">
        <ele>1324</ele>
        <time>2017-12-15T22:46:32Z</time>
      </trkpt>
      <trkpt lat="44.75072" lon="5.58681">
        <ele>1301</ele>
        <time>2017-12-15T22:46:34Z</time>
      </trkpt>
      <trkpt lat="44.75064" lon="5.58667">
        <ele>1301</ele>
        <time>2017-12-15T22:46:44Z</time>
      </trkpt>
      <trkpt lat="44.75051" lon="5.58625">
        <ele>1307</ele>
        <time>2017-12-15T22:46:55Z</time>
      </trkpt>
      <trkpt lat="44.75047" lon="5.58616">
        <ele>1307</ele>
        <time>2017-12-15T22:47:13Z</time>
      </trkpt>
      <trkpt lat="44.75039" lon="5.5861">
        <ele>1305</ele>
        <time>2017-12-15T22:47:21Z</time>
      </trkpt>
      <trkpt lat="44.75034" lon="5.58619">
        <ele>1303</ele>
        <time>2017-12-15T22:47:28Z</time>
      </trkpt>
      <trkpt lat="44.75034" lon="5.58627">
        <ele>1302</ele>
        <time>2017-12-15T22:47:48Z</time>
      </trkpt>
      <trkpt lat="44.75038" lon="5.58638">
        <ele>1302</ele>
        <time>2017-12-15T22:48:00Z</time>
      </trkpt>
      <trkpt lat="44.75053" lon="5.58668">
        <ele>1295</ele>
        <time>2017-12-15T22:48:17Z</time>
      </trkpt>
      <trkpt lat="44.75068" lon="5.58704">
        <ele>1293</ele>
        <time>2017-12-15T22:48:19Z</time>
      </trkpt>
      <trkpt lat="44.75083" lon="5.5873">
        <ele>1291</ele>
        <time>2017-12-15T22:48:35Z</time>
      </trkpt>
      <trkpt lat="44.75112" lon="5.58769">
        <ele>1301</ele>
        <time>2017-12-15T22:48:51Z</time>
      </trkpt>
      <trkpt lat="44.75134" lon="5.58806">
        <ele>1302</ele>
        <time>2017-12-15T22:49:06Z</time>
      </trkpt>
      <trkpt lat="44.75169" lon="5.58885">
        <ele>1307</ele>
        <time>2017-12-15T22:49:20Z</time>
      </trkpt>
      <trkpt lat="44.75183" lon="5.58925">
        <ele>1291</ele>
        <time>2017-12-15T22:49:38Z</time>
      </trkpt>
      <trkpt lat="44.75193" lon="5.58963">
        <ele>1291</ele>
        <time>2017-12-15T22:49:50Z</time>
      </trkpt>
      <trkpt lat="44.75215" lon="5.59046">
        <ele>1274</ele>
        <time>2017-12-15T22:50:09Z</time>
      </trkpt>
      <trkpt lat="44.75222" lon="5.59074">
        <ele>1274</ele>
        <time>2017-12-15T22:50:20Z</time>
      </trkpt>
      <trkpt lat="44.7523" lon="5.59091">
        <ele>1264</ele>
        <time>2017-12-15T22:50:33Z</time>
      </trkpt>
      <trkpt lat="44.75238" lon="5.59098">
        <ele>1265</ele>
        <time>2017-12-15T22:50:46Z</time>
      </trkpt>
      <trkpt lat="44.75248" lon="5.59101">
        <ele>1266</ele>
        <time>2017-12-15T22:50:59Z</time>
      </trkpt>
      <trkpt lat="44.7526" lon="5.591">
        <ele>1276</ele>
        <time>2017-12-15T22:51:01Z</time>
      </trkpt>
      <trkpt lat="44.7528" lon="5.59092">
        <ele>1276</ele>
        <time>2017-12-15T22:51:21Z</time>
      </trkpt>
      <trkpt lat="44.75319" lon="5.5908">
        <ele>1287</ele>
        <time>2017-12-15T22:51:34Z</time>
      </trkpt>
      <trkpt lat="44.75343" lon="5.59076">
        <ele>1292</ele>
        <time>2017-12-15T22:51:50Z</time>
      </trkpt>
      <trkpt lat="44.75349" lon="5.5908">
        <ele>1294</ele>
        <time>2017-12-15T22:51:58Z</time>
      </trkpt>
      <trkpt lat="44.75353" lon="5.59088">
        <ele>1291</ele>
        <time>2017-12-15T22:52:18Z</time>
      </trkpt>
      <trkpt lat="44.75351" lon="5.59097">
        <ele>1291</ele>
        <time>2017-12-15T22:52:26Z</time>
      </trkpt>
      <trkpt lat="44.75345" lon="5.59103">
        <ele>1291</ele>
        <time>2017-12-15T22:52:44Z</time>
      </trkpt>
      <trkpt lat="44.75337" lon="5.59105">
        <ele>1290</ele>
        <time>2017-12-15T22:52:48Z</time>
      </trkpt>
      <trkpt lat="44.75325" lon="5.59102">
        <ele>1278</ele>
        <time>2017-12-15T22:52:51Z</time>
      </trkpt>
      <trkpt lat="44.75308" lon="5.59098">
        <ele>1277</ele>
        <time>2017-12-15T22:53:10Z</time>
      </trkpt>
      <trkpt lat="44.75291" lon="5.59102">
        <ele>1276</ele>
        <time>2017-12-15T22:53:25Z</time>
      </trkpt>
      <trkpt lat="44.7526" lon="5.59123">
        <ele>1272</ele>
        <time>2017-12-15T22:53:27Z</time>
      </trkpt>
      <trkpt lat="44.75245" lon="5.59127">
        <ele>1257</ele>
        <time>2017-12-15T22:53:43Z</time>
      </trkpt>
      <trkpt lat="44.75228" lon="5.59124">
        <ele>1256</ele>
        <time>2017-12-15T22:53:51Z</time>
      </trkpt>
      <trkpt lat="44.75211" lon="5.59114">
        <ele>1254</ele>
        <time>2017-12-15T22:54:00Z</time>
      </trkpt>
      <trkpt lat="44.75202" lon="5.591">
        <ele>1253</ele>
        <time>2017-12-15T22:54:09Z</time>
      </trkpt>
      <trkpt lat="44.75192" lon="5.59075">
        <ele>1264</ele>
        <time>2017-12-15T22:54:27Z</time>
      </trkpt>
      <trkpt lat="44.75184" lon="5.59062">
        <ele>1264</ele>
        <time>2017-12-15T22:54:35Z</time>
      </trkpt>
      <trkpt lat="44.75166" lon="5.59045">
        <ele>1246</ele>
        <time>2017-12-15T22:54:46Z</time>
      </trkpt>
      <trkpt lat="44.75153" lon="5.59028">
        <ele>1248</ele>
        <time>2017-12-15T22:55:01Z</time>
      </trkpt>
      <trkpt lat="44.75145" lon="5.5901">
        <ele>1251</ele>
        <time>2017-12-15T22:55:07Z</time>
      </trkpt>
      <trkpt lat="44.7513" lon="5.5898">
        <ele>1262</ele>
        <time>2017-12-15T22:55:12Z</time>
      </trkpt>
      <trkpt lat="44.75119" lon="5.58964">
        <ele>1262</ele>
        <time>2017-12-15T22:55:16Z</time>
      </trkpt>
      <trkpt lat="44.75103" lon="5.58949">
        <ele>1262</ele>
        <time>2017-12-15T22:55:21Z</time>
      </trkpt>
      <trkpt lat="44.75091" lon="5.58945">
        <ele>1261</ele>
        <time>2017-12-15T22:55:35Z</time>
      </trkpt>
      <trkpt lat="44.75082" lon="5.5895">
        <ele>1247</ele>
        <time>2017-12-15T22:55:46Z</time>
      </trkpt>
      <trkpt lat="44.75076" lon="5.58963">
        <ele>1244</ele>
        <time>2017-12-15T22:56:04Z</time>
      </trkpt>
      <trkpt lat="44.75073" lon="5.58972">
        <ele>1243</ele>
        <time>2017-12-15T22:56:18Z</time>
      </trkpt>
      <trkpt lat="44.75069" lon="5.58978">
        <ele>1242</ele>
        <time>2017-12-15T22:56:30Z</time>
      </trkpt>
      <trkpt lat="44.75063" lon="5.5898">
        <ele>1241</ele>
        <time>2017-12-15T22:56:42Z</time>
      </trkpt>
      <trkpt lat="44.75057" lon="5.58979">
        <ele>1241</ele>
        <time>2017-12-15T22:56:45Z</time>
      </trkpt>
      <trkpt lat="44.75037" lon="5.58964">
        <ele>1241</ele>
        <time>2017-12-15T22:56:51Z</time>
      </trkpt>
      <trkpt lat="44.75006" lon="5.58934">
        <ele>1243</ele>
        <time>2017-12-15T22:56:57Z</time>
      </trkpt>
      <trkpt lat="44.74957" lon="5.58878">
        <ele>1233</ele>
        <time>2017-12-15T22:57:10Z</time>
      </trkpt>
      <trkpt lat="44.74946" lon="5.5886">
        <ele>1232</ele>
        <time>2017-12-15T22:57:21Z</time>
      </trkpt>
      <trkpt lat="44.74937" lon="5.58837">
        <ele>1230</ele>
        <time>2017-12-15T22:57:33Z</time>
      </trkpt>
      <trkpt lat="44.74931" lon="5.5882">
        <ele>1234</ele>
        <time>2017-12-15T22:57:35Z</time>
      </trkpt>
      <trkpt lat="44.74931" lon="5.58803">
        <ele>1237</ele>
        <time>2017-12-15T22:57:47Z</time>
      </trkpt>
      <trkpt lat="44.74935" lon="5.58776">
        <ele>1237</ele>
        <time>2017-12-15T22:58:07Z</time>
      </trkpt>
      <trkpt lat="44.74934" lon="5.58754">
        <ele>1234</ele>
        <time>2017-12-15T22:58:13Z</time>
      </trkpt>
      <trkpt lat="44.74922" lon="5.58684">
        <ele>1237</ele>
        <time>2017-12-15T22:58:30Z</time>
      </trkpt>
      <trkpt lat="44.74911" lon="5.58598">
        <ele>1221</ele>
        <time>2017-12-15T22:58:39Z</time>
      </trkpt>
      <trkpt lat="44.74902" lon="5.58532">
        <ele>1219</ele>
        <time>2017-12-15T22:58:46Z</time>
      </trkpt>
      <trkpt lat="44.74901" lon="5.58487">
        <ele>1221</ele>
        <time>2017-12-15T22:58:53Z</time>
      </trkpt>
      <trkpt lat="44.74907" lon="5.5842">
        <ele>1222</ele>
        <time>2017-12-15T22:59:07Z</time>
      </trkpt>
      <trkpt lat="44.74902" lon="5.58358">
        <ele>1215</ele>
        <time>2017-12-15T22:59:17Z</time>
      </trkpt>
      <trkpt lat="44.74896" lon="5.58303">
        <ele>1212</ele>
        <time>2017-12-15T22:59:31Z</time>
      </trkpt>
      <trkpt lat="44.74897" lon="5.58288">
        <ele>1212</ele>
        <time>2017-12-15T22:59:47Z</time>
      </trkpt>
      <trkpt lat="44.74901" lon="5.58271">
        <ele>1214</ele>
        <time>2017-12-15T22:59:58Z</time>
      </trkpt>
      <trkpt lat="44.74901" lon="5.58264">
        <ele>1215</ele>
        <time>2017-12-15T23:00:11Z</time>
      </trkpt>
      <trkpt lat="44.74898" lon="5.58248">
        <ele>1217</ele>
        <time>2017-12-15T23:00:30Z</time>
      </trkpt>
      <trkpt lat="44.74881" lon="5.58226">
        <ele>1213</ele>
        <time>2017-12-15T23:00:47Z</time>
      </trkpt>
      <trkpt lat="44.74876" lon="5.58214">
        <ele>1212</ele>
        <time>2017-12-15T23:00:52Z</time>
      </trkpt>
      <trkpt lat="44.7487" lon="5.58187">
        <ele>1212</ele>
        <time>2017-12-15T23:01:11Z</time>
      </trkpt>
      <trkpt lat="44.74861" lon="5.58123">
        <ele>1219</ele>
        <time>2017-12-15T23:01:26Z</time>
      </trkpt>
      <trkpt lat="44.74851" lon="5.58097">
        <ele>1218</ele>
        <time>2017-12-15T23:01:44Z</time>
      </trkpt>
      <trkpt lat="44.74843" lon="5.58092">
        <ele>1216</ele>
        <time>2017-12-15T23:01:57Z</time>
      </trkpt>
      <trkpt lat="44.74834" lon="5.5809">
        <ele>1215</ele>
        <time>2017-12-15T23:02:04Z</time>
      </trkpt>
      <trkpt lat="44.74826" lon="5.58091">
        <ele>1207</ele>
        <time>2017-12-15T23:02:13Z</time>
      </trkpt>
      <trkpt lat="44.74817" lon="5.58096">
        <ele>1203</ele>
        <time>2017-12-15T23:02:17Z</time>
      </trkpt>
      <trkpt lat="44.74794" lon="5.58115">
        <ele>1197</ele>
        <time>2017-12-15T23:02:19Z</time>
      </trkpt>
      <trkpt lat="44.74782" lon="5.5812">
        <ele>1195</ele>
        <time>2017-12-15T23:02:22Z</time>
      </trkpt>
      <trkpt lat="44.74772" lon="5.58121">
        <ele>1193</ele>
        <time>2017-12-15T23:02:27Z</time>
      </trkpt>
      <trkpt lat="44.74767" lon="5.58119">
        <ele>1193</ele>
        <time>2017-12-15T23:02:31Z</time>
      </trkpt>
      <trkpt lat="44.74761" lon="5.58104">
        <ele>1193</ele>
        <time>2017-12-15T23:02:50Z</time>
      </trkpt>
      <trkpt lat="44.74755" lon="5.58069">
        <ele>1199</ele>
        <time>2017-12-15T23:02:57Z</time>
      </trkpt>
      <trkpt lat="44.74751" lon="5.5805">
        <ele>1204</ele>
        <time>2017-12-15T23:03:14Z</time>
      </trkpt>
      <trkpt lat="44.74744" lon="5.58034">
        <ele>1189</ele>
        <time>2017-12-15T23:03:27Z</time>
      </trkpt>
      <trkpt lat="44.74723" lon="5.58">
        <ele>1195</ele>
        <time>2017-12-15T23:03:44Z</time>
      </trkpt>
      <trkpt lat="44.74687" lon="5.57954">
        <ele>1193</ele>
        <time>2017-12-15T23:04:04Z</time>
      </trkpt>
      <trkpt lat="44.74674" lon="5.57938">
        <ele>1193</ele>
        <time>2017-12-15T23:04:14Z</time>
      </trkpt>
      <trkpt lat="44.74659" lon="5.57927">
        <ele>1183</ele>
        <time>2017-12-15T23:04:29Z</time>
      </trkpt>
      <trkpt lat="44.74632" lon="5.57914">
        <ele>1185</ele>
        <time>2017-12-15T23:04:46Z</time>
      </trkpt>
      <trkpt lat="44.74594" lon="5.57899">
        <ele>1180</ele>
        <time>2017-12-15T23:05:03Z</time>
      </trkpt>
      <trkpt lat="44.74564" lon="5.57878">
        <ele>1164</ele>
        <time>2017-12-15T23:05:12Z</time>
      </trkpt>
      <trkpt lat="44.74545" lon="5.5786">
        <ele>1162</ele>
        <time>2017-12-15T23:05:24Z</time>
      </trkpt>
      <trkpt lat="44.74536" lon="5.5785">
        <ele>1162</ele>
        <time>2017-12-15T23:05:34Z</time>
      </trkpt>
      <trkpt lat="44.7453" lon="5.57839">
        <ele>1161</ele>
        <time>2017-12-15T23:05:40Z</time>
      </trkpt>
      <trkpt lat="44.74527" lon="5.57827">
        <ele>1166</ele>
        <time>2017-12-15T23:05:55Z</time>
      </trkpt>
      <trkpt lat="44.74528" lon="5.57815">
        <ele>1166</ele>
        <time>2017-12-15T23:06:14Z</time>
      </trkpt>
      <trkpt lat="44.74531" lon="5.57804">
        <ele>1167</ele>
        <time>2017-12-15T23:06:19Z</time>
      </trkpt>
      <trkpt lat="44.74536" lon="5.57795">
        <ele>1167</ele>
        <time>2017-12-15T23:06:22Z</time>
      </trkpt>
      <trkpt lat="44.74542" lon="5.57787">
        <ele>1168</ele>
        <time>2017-12-15T23:06:31Z</time>
      </trkpt>
      <trkpt lat="44.74549" lon="5.57782">
        <ele>1168</ele>
        <time>2017-12-15T23:06:39Z</time>
      </trkpt>
      <trkpt lat="44.74562" lon="5.57777">
        <ele>1169</ele>
        <time>2017-12-15T23:06:57Z</time>
      </trkpt>
      <trkpt lat="44.74566" lon="5.57773">
        <ele>1169</ele>
        <time>2017-12-15T23:07:06Z</time>
      </trkpt>
      <trkpt lat="44.74567" lon="5.57765">
        <ele>1169</ele>
        <time>2017-12-15T23:07:25Z</time>
      </trkpt>
      <trkpt lat="44.74564" lon="5.57758">
        <ele>1168</ele>
        <time>2017-12-15T23:07:27Z</time>
      </trkpt>
      <trkpt lat="44.74558" lon="5.57753">
        <ele>1168</ele>
        <time>2017-12-15T23:07:38Z</time>
      </trkpt>
      <trkpt lat="44.74538" lon="5.5775">
        <ele>1163</ele>
        <time>2017-12-15T23:07:40Z</time>
      </trkpt>
      <trkpt lat="44.74523" lon="5.57755">
        <ele>1166</ele>
        <time>2017-12-15T23:08:00Z</time>
      </trkpt>
      <trkpt lat="44.74513" lon="5.57761">
        <ele>1165</ele>
        <time>2017-12-15T23:08:20Z</time>
      </trkpt>
      <trkpt lat="44.7449" lon="5.57779">
        <ele>1151</ele>
        <time>2017-12-15T23:08:26Z</time>
      </trkpt>
      <trkpt lat="44.74481" lon="5.57784">
        <ele>1149</ele>
        <time>2017-12-15T23:08:34Z</time>
      </trkpt>
      <trkpt lat="44.74471" lon="5.57784">
        <ele>1147</ele>
        <time>2017-12-15T23:08:50Z</time>
      </trkpt>
      <trkpt lat="44.74462" lon="5.5778">
        <ele>1146</ele>
        <time>2017-12-15T23:08:55Z</time>
      </trkpt>
      <trkpt lat="44.74452" lon="5.57769">
        <ele>1146</ele>
        <time>2017-12-15T23:08:58Z</time>
      </trkpt>
      <trkpt lat="44.74426" lon="5.57728">
        <ele>1149</ele>
        <time>2017-12-15T23:09:16Z</time>
      </trkpt>
      <trkpt lat="44.7442" lon="5.57714">
        <ele>1149</ele>
        <time>2017-12-15T23:09:27Z</time>
      </trkpt>
      <trkpt lat="44.74418" lon="5.57703">
        <ele>1149</ele>
        <time>2017-12-15T23:09:29Z</time>
      </trkpt>
      <trkpt lat="44.74418" lon="5.57691">
        <ele>1149</ele>
        <time>2017-12-15T23:09:41Z</time>
      </trkpt>
      <trkpt lat="44.74421" lon="5.57675">
        <ele>1147</ele>
        <time>2017-12-15T23:09:51Z</time>
      </trkpt>
      <trkpt lat="44.74441" lon="5.57623">
        <ele>1142</ele>
        <time>2017-12-15T23:10:11Z</time>
      </trkpt>
      <trkpt lat="44.74454" lon="5.576">
        <ele>1142</ele>
        <time>2017-12-15T23:10:25Z</time>
      </trkpt>
      <trkpt lat="44.74473" lon="5.57574">
        <ele>1133</ele>
        <time>2017-12-15T23:10:32Z</time>
      </trkpt>
      <trkpt lat="44.74517" lon="5.57524">
        <ele>1138</ele>
        <time>2017-12-15T23:10:44Z</time>
      </trkpt>
      <trkpt lat="44.74537" lon="5.57507">
        <ele>1138</ele>
        <time>2017-12-15T23:11:04Z</time>
      </trkpt>
      <trkpt lat="44.7455" lon="5.57502">
        <ele>1138</ele>
        <time>2017-12-15T23:11:07Z</time>
      </trkpt>
      <trkpt lat="44.74571" lon="5.57503">
        <ele>1138</ele>
        <time>2017-12-15T23:11:23Z</time>
      </trkpt>
      <trkpt lat="44.74587" lon="5.57506">
        <ele>1140</ele>
        <time>2017-12-15T23:11:42Z</time>
      </trkpt>
      <trkpt lat="44.74617" lon="5.57508">
        <ele>1147</ele>
        <time>2017-12-15T23:12:01Z</time>
      </trkpt>
      <trkpt lat="44.74657" lon="5.575">
        <ele>1147</ele>
        <time>2017-12-15T23:12:19Z</time>
      </trkpt>
      <trkpt lat="44.7467" lon="5.57492">
        <ele>1149</ele>
        <time>2017-12-15T23:12:37Z</time>
      </trkpt>
      <trkpt lat="44.74677" lon="5.57482">
        <ele>1153</ele>
        <time>2017-12-15T23:12:43Z</time>
      </trkpt>
      <trkpt lat="44.74681" lon="5.57463">
        <ele>1156</ele>
        <time>2017-12-15T23:12:47Z</time>
      </trkpt>
      <trkpt lat="44.74675" lon="5.57438">
        <ele>1151</ele>
        <time>2017-12-15T23:12:58Z</time>
      </trkpt>
      <trkpt lat="44.74663" lon="5.57411">
        <ele>1134</ele>
        <time>2017-12-15T23:13:08Z</time>
      </trkpt>
      <trkpt lat="44.74607" lon="5.5729">
        <ele>1136</ele>
        <time>2017-12-15T23:13:25Z</time>
      </trkpt>
      <trkpt lat="44.74562" lon="5.57202">
        <ele>1119</ele>
        <time>2017-12-15T23:13:44Z</time>
      </trkpt>
      <trkpt lat="44.74485" lon="5.57061">
        <ele>1123</ele>
        <time>2017-12-15T23:13:58Z</time>
      </trkpt>
      <trkpt lat="44.74394" lon="5.56941">
        <ele>1101</ele>
        <time>2017-12-15T23:14:01Z</time>
      </trkpt>
      <trkpt lat="44.74379" lon="5.56912">
        <ele>1097</ele>
        <time>2017-12-15T23:14:10Z</time>
      </trkpt>
      <trkpt lat="44.74373" lon="5.56894">
        <ele>1093</ele>
        <time>2017-12-15T23:14:28Z</time>
      </trkpt>
      <trkpt lat="44.74372" lon="5.56869">
        <ele>1092</ele>
        <time>2017-12-15T23:14:30Z</time>
      </trkpt>
      <trkpt lat="44.74377" lon="5.56833">
        <ele>1083</ele>
        <time>2017-12-15T23:14:38Z</time>
      </trkpt>
      <trkpt lat="44.7439" lon="5.56814">
        <ele>1086</ele>
        <time>2017-12-15T23:14:47Z</time>
      </trkpt>
      <trkpt lat="44.74401" lon="5.56805">
        <ele>1088</ele>
        <time>2017-12-15T23:15:04Z</time>
      </trkpt>
      <trkpt lat="44.74434" lon="5.56788">
        <ele>1107</ele>
        <time>2017-12-15T23:15:15Z</time>
      </trkpt>
      <trkpt lat="44.74459" lon="5.56781">
        <ele>1109</ele>
        <time>2017-12-15T23:15:23Z</time>
      </trkpt>
      <trkpt lat="44.74471" lon="5.56779">
        <ele>1110</ele>
        <time>2017-12-15T23:15:36Z</time>
      </trkpt>
      <trkpt lat="44.74479" lon="5.56775">
        <ele>1110</ele>
        <time>2017-12-15T23:15:42Z</time>
      </trkpt>
      <trkpt lat="44.74484" lon="5.56767">
        <ele>1110</ele>
        <time>2017-12-15T23:15:50Z</time>
      </trkpt>
      <trkpt lat="44.74486" lon="5.56755">
        <ele>1110</ele>
        <time>2017-12-15T23:16:08Z</time>
      </trkpt>
      <trkpt lat="44.7448" lon="5.5673">
        <ele>1100</ele>
        <time>2017-12-15T23:16:13Z</time>
      </trkpt>
      <trkpt lat="44.74469" lon="5.56705">
        <ele>1097</ele>
        <time>2017-12-15T23:16:31Z</time>
      </trkpt>
      <trkpt lat="44.74459" lon="5.56655">
        <ele>1094</ele>
        <time>2017-12-15T23:16:36Z</time>
      </trkpt>
      <trkpt lat="44.74451" lon="5.566">
        <ele>1093</ele>
        <time>2017-12-15T23:16:51Z</time>
      </trkpt>
      <trkpt lat="44.74447" lon="5.56559">
        <ele>1092</ele>
        <time>2017-12-15T23:16:56Z</time>
      </trkpt>
      <trkpt lat="44.74449" lon="5.56532">
        <ele>1092</ele>
        <time>2017-12-15T23:17:03Z</time>
      </trkpt>
      <trkpt lat="44.74458" lon="5.56493">
        <ele>1087</ele>
        <time>2017-12-15T23:17:08Z</time>
      </trkpt>
      <trkpt lat="44.74478" lon="5.56424">
        <ele>1090</ele>
        <time>2017-12-15T23:17:19Z</time>
      </trkpt>
      <trkpt lat="44.74486" lon="5.56387">
        <ele>1080</ele>
        <time>2017-12-15T23:17:35Z</time>
      </trkpt>
      <trkpt lat="44.74496" lon="5.56333">
        <ele>1083</ele>
        <time>2017-12-15T23:17:39Z</time>
      </trkpt>
      <trkpt lat="44.74512" lon="5.56269">
        <ele>1093</ele>
        <time>2017-12-15T23:17:47Z</time>
      </trkpt>
      <trkpt lat="44.74514" lon="5.56237">
        <ele>1087</ele>
        <time>2017-12-15T23:17:55Z</time>
      </trkpt>
      <trkpt lat="44.74513" lon="5.5621">
        <ele>1092</ele>
        <time>2017-12-15T23:18:15Z</time>
      </trkpt>
      <trkpt lat="44.74505" lon="5.56184">
        <ele>1087</ele>
        <time>2017-12-15T23:18:25Z</time>
      </trkpt>
      <trkpt lat="44.7449" lon="5.56145">
        <ele>1070</ele>
        <time>2017-12-15T23:18:38Z</time>
      </trkpt>
      <trkpt lat="44.74474" lon="5.56099">
        <ele>1071</ele>
        <time>2017-12-15T23:18:44Z</time>
      </trkpt>
      <trkpt lat="44.74456" lon="5.56063">
        <ele>1071</ele>
        <time>2017-12-15T23:18:51Z</time>
      </trkpt>
      <trkpt lat="44.74439" lon="5.56031">
        <ele>1069</ele>
        <time>2017-12-15T23:19:03Z</time>
      </trkpt>
      <trkpt lat="44.74431" lon="5.56007">
        <ele>1066</ele>
        <time>2017-12-15T23:19:08Z</time>
      </trkpt>
      <trkpt lat="44.74428" lon="5.55983">
        <ele>1069</ele>
        <time>2017-12-15T23:19:14Z</time>
      </trkpt>
      <trkpt lat="44.74426" lon="5.55947">
        <ele>1072</ele>
        <time>2017-12-15T23:19:23Z</time>
      </trkpt>
      <trkpt lat="44.74419" lon="5.55923">
        <ele>1068</ele>
        <time>2017-12-15T23:19:33Z</time>
      </trkpt>
      <trkpt lat="44.74414" lon="5.55917">
        <ele>1065</ele>
        <time>2017-12-15T23:19:36Z</time>
      </trkpt>
      <trkpt lat="44.74405" lon="5.55911">
        <ele>1064</ele>
        <time>2017-12-15T23:19:45Z</time>
      </trkpt>
      <trkpt lat="44.74381" lon="5.55902">
        <ele>1060</ele>
        <time>2017-12-15T23:19:47Z</time>
      </trkpt>
      <trkpt lat="44.74372" lon="5.55898">
        <ele>1059</ele>
        <time>2017-12-15T23:20:02Z</time>
      </trkpt>
      <trkpt lat="44.74361" lon="5.55889">
        <ele>1058</ele>
        <time>2017-12-15T23:20:07Z</time>
      </trkpt>
      <trkpt lat="44.7434" lon="5.55859">
        <ele>1058</ele>
        <time>2017-12-15T23:20:18Z</time>
      </trkpt>
      <trkpt lat="44.74326" lon="5.5583">
        <ele>1051</ele>
        <time>2017-12-15T23:20:24Z</time>
      </trkpt>
      <trkpt lat="44.74301" lon="5.5574">
        <ele>1052</ele>
        <time>2017-12-15T23:20:38Z</time>
      </trkpt>
      <trkpt lat="44.74286" lon="5.55697">
        <ele>1050</ele>
        <time>2017-12-15T23:20:42Z</time>
      </trkpt>
      <trkpt lat="44.74272" lon="5.55666">
        <ele>1052</ele>
        <time>2017-12-15T23:20:44Z</time>
      </trkpt>
      <trkpt lat="44.7426" lon="5.55622">
        <ele>1054</ele>
        <time>2017-12-15T23:21:04Z</time>
      </trkpt>
      <trkpt lat="44.74252" lon="5.55574">
        <ele>1050</ele>
        <time>2017-12-15T23:21:18Z</time>
      </trkpt>
      <trkpt lat="44.74246" lon="5.55528">
        <ele>1033</ele>
        <time>2017-12-15T23:21:36Z</time>
      </trkpt>
      <trkpt lat="44.74243" lon="5.55489">
        <ele>1037</ele>
        <time>2017-12-15T23:21:45Z</time>
      </trkpt>
      <trkpt lat="44.74247" lon="5.55443">
        <ele>1033</ele>
        <time>2017-12-15T23:21:56Z</time>
      </trkpt>
      <trkpt lat="44.74254" lon="5.55392">
        <ele>1044</ele>
        <time>2017-12-15T23:22:06Z</time>
      </trkpt>
      <trkpt lat="44.74269" lon="5.55327">
        <ele>1036</ele>
        <time>2017-12-15T23:22:19Z</time>
      </trkpt>
      <trkpt lat="44.7428" lon="5.55293">
        <ele>1038</ele>
        <time>2017-12-15T23:22:27Z</time>
      </trkpt>
      <trkpt lat="44.74289" lon="5.55255">
        <ele>1038</ele>
        <time>2017-12-15T23:22:29Z</time>
      </trkpt>
      <trkpt lat="44.74293" lon="5.55216">
        <ele>1035</ele>
        <time>2017-12-15T23:22:46Z</time>
      </trkpt>
      <trkpt lat="44.74294" lon="5.55186">
        <ele>1035</ele>
        <time>2017-12-15T23:22:48Z</time>
      </trkpt>
      <trkpt lat="44.74292" lon="5.55163">
        <ele>1033</ele>
        <time>2017-12-15T23:22:57Z</time>
      </trkpt>
      <trkpt lat="44.74274" lon="5.55103">
        <ele>1028</ele>
        <time>2017-12-15T23:23:03Z</time>
      </trkpt>
      <trkpt lat="44.74274" lon="5.55082">
        <ele>1022</ele>
        <time>2017-12-15T23:23:14Z</time>
      </trkpt>
      <trkpt lat="44.74285" lon="5.5504">
        <ele>1022</ele>
        <time>2017-12-15T23:23:26Z</time>
      </trkpt>
      <trkpt lat="44.74297" lon="5.55004">
        <ele>1022</ele>
        <time>2017-12-15T23:23:30Z</time>
      </trkpt>
      <trkpt lat="44.74308" lon="5.54992">
        <ele>1011</ele>
        <time>2017-12-15T23:23:40Z</time>
      </trkpt>
      <trkpt lat="44.7433" lon="5.54976">
        <ele>1013</ele>
        <time>2017-12-15T23:23:50Z</time>
      </trkpt>
      <trkpt lat="44.74349" lon="5.54949">
        <ele>1028</ele>
        <time>2017-12-15T23:23:53Z</time>
      </trkpt>
      <trkpt lat="44.7437" lon="5.54918">
        <ele>1029</ele>
        <time>2017-12-15T23:24:08Z</time>
      </trkpt>
      <trkpt lat="44.74382" lon="5.54891">
        <ele>1010</ele>
        <time>2017-12-15T23:24:20Z</time>
      </trkpt>
      <trkpt lat="44.74393" lon="5.5487">
        <ele>1007</ele>
        <time>2017-12-15T23:24:30Z</time>
      </trkpt>
      <trkpt lat="44.74415" lon="5.54848">
        <ele>1006</ele>
        <time>2017-12-15T23:24:41Z</time>
      </trkpt>
      <trkpt lat="44.74444" lon="5.54816">
        <ele>1005</ele>
        <time>2017-12-15T23:24:55Z</time>
      </trkpt>
      <trkpt lat="44.7447" lon="5.54785">
        <ele>1004</ele>
        <time>2017-12-15T23:25:00Z</time>
      </trkpt>
      <trkpt lat="44.74489" lon="5.54769">
        <ele>1003</ele>
        <time>2017-12-15T23:25:06Z</time>
      </trkpt>
      <trkpt lat="44.74506" lon="5.54753">
        <ele>1010</ele>
        <time>2017-12-15T23:25:10Z</time>
      </trkpt>
      <trkpt lat="44.7452" lon="5.5473">
        <ele>1004</ele>
        <time>2017-12-15T23:25:19Z</time>
      </trkpt>
      <trkpt lat="44.74538" lon="5.54703">
        <ele>1004</ele>
        <time>2017-12-15T23:25:21Z</time>
      </trkpt>
      <trkpt lat="44.74565" lon="5.54662">
        <ele>993</ele>
        <time>2017-12-15T23:25:27Z</time>
      </trkpt>
      <trkpt lat="44.74586" lon="5.54625">
        <ele>1008</ele>
        <time>2017-12-15T23:25:30Z</time>
      </trkpt>
      <trkpt lat="44.74599" lon="5.54602">
        <ele>1001</ele>
        <time>2017-12-15T23:25:32Z</time>
      </trkpt>
      <trkpt lat="44.74614" lon="5.54585">
        <ele>1004</ele>
        <time>2017-12-15T23:25:39Z</time>
      </trkpt>
      <trkpt lat="44.74633" lon="5.54568">
        <ele>992</ele>
        <time>2017-12-15T23:25:59Z</time>
      </trkpt>
      <trkpt lat="44.74655" lon="5.5454">
        <ele>991</ele>
        <time>2017-12-15T23:26:04Z</time>
      </trkpt>
      <trkpt lat="44.74669" lon="5.5451">
        <ele>999</ele>
        <time>2017-12-15T23:26:06Z</time>
      </trkpt>
      <trkpt lat="44.74675" lon="5.54492">
        <ele>994</ele>
        <time>2017-12-15T23:26:17Z</time>
      </trkpt>
      <trkpt lat="44.74675" lon="5.54473">
        <ele>999</ele>
        <time>2017-12-15T23:26:33Z</time>
      </trkpt>
      <trkpt lat="44.74671" lon="5.54457">
        <ele>1000</ele>
        <time>2017-12-15T23:26:52Z</time>
      </trkpt>
      <trkpt lat="44.74652" lon="5.54429">
        <ele>986</ele>
        <time>2017-12-15T23:27:04Z</time>
      </trkpt>
      <trkpt lat="44.7464" lon="5.54416">
        <ele>993</ele>
        <time>2017-12-15T23:27:11Z</time>
      </trkpt>
      <trkpt lat="44.74633" lon="5.54412">
        <ele>992</ele>
        <time>2017-12-15T23:27:28Z</time>
      </trkpt>
      <trkpt lat="44.74612" lon="5.54406">
        <ele>990</ele>
        <time>2017-12-15T23:27:42Z</time>
      </trkpt>
      <trkpt lat="44.74596" lon="5.54396">
        <ele>989</ele>
        <time>2017-12-15T23:27:46Z</time>
      </trkpt>
      <trkpt lat="44.74585" lon="5.54387">
        <ele>990</ele>
        <time>2017-12-15T23:27:50Z</time>
      </trkpt>
      <trkpt lat="44.74573" lon="5.54381">
        <ele>987</ele>
        <time>2017-12-15T23:28:00Z</time>
      </trkpt>
      <trkpt lat="44.74562" lon="5.54377">
        <ele>988</ele>
        <time>2017-12-15T23:28:14Z</time>
      </trkpt>
      <trkpt lat="44.74549" lon="5.54377">
        <ele>988</ele>
        <time>2017-12-15T23:28:26Z</time>
      </trkpt>
      <trkpt lat="44.74518" lon="5.54385">
        <ele>985</ele>
        <time>2017-12-15T23:28:40Z</time>
      </trkpt>
      <trkpt lat="44.74496" lon="5.5439">
        <ele>982</ele>
        <time>2017-12-15T23:28:45Z</time>
      </trkpt>
      <trkpt lat="44.74484" lon="5.54402">
        <ele>980</ele>
        <time>2017-12-15T23:29:00Z</time>
      </trkpt>
      <trkpt lat="44.74467" lon="5.54422">
        <ele>964</ele>
        <time>2017-12-15T23:29:18Z</time>
      </trkpt>
      <trkpt lat="44.74448" lon="5.54434">
        <ele>963</ele>
        <time>2017-12-15T23:29:27Z</time>
      </trkpt>
      <trkpt lat="44.74425" lon="5.54436">
        <ele>965</ele>
        <time>2017-12-15T23:29:39Z</time>
      </trkpt>
      <trkpt lat="44.74413" lon="5.54433">
        <ele>964</ele>
        <time>2017-12-15T23:29:58Z</time>
      </trkpt>
      <trkpt lat="44.74403" lon="5.54427">
        <ele>964</ele>
        <time>2017-12-15T23:30:08Z</time>
      </trkpt>
      <trkpt lat="44.7438" lon="5.54413">
        <ele>982</ele>
        <time>2017-12-15T23:30:13Z</time>
      </trkpt>
      <trkpt lat="44.74355" lon="5.54414">
        <ele>979</ele>
        <time>2017-12-15T23:30:17Z</time>
      </trkpt>
      <trkpt lat="44.74302" lon="5.54429">
        <ele>958</ele>
        <time>2017-12-15T23:30:22Z</time>
      </trkpt>
      <trkpt lat="44.7428" lon="5.54432">
        <ele>957</ele>
        <time>2017-12-15T23:30:32Z</time>
      </trkpt>
      <trkpt lat="44.74259" lon="5.54428">
        <ele>961</ele>
        <time>2017-12-15T23:30:45Z</time>
      </trkpt>
      <trkpt lat="44.74234" lon="5.54428">
        <ele>959</ele>
        <time>2017-12-15T23:31:00Z</time>
      </trkpt>
      <trkpt lat="44.74216" lon="5.54437">
        <ele>955</ele>
        <time>2017-12-15T23:31:15Z</time>
      </trkpt>
      <trkpt lat="44.74196" lon="5.54453">
        <ele>952</ele>
        <time>2017-12-15T23:31:29Z</time>
      </trkpt>
      <trkpt lat="44.74184" lon="5.54457">
        <ele>951</ele>
        <time>2017-12-15T23:31:39Z</time>
      </trkpt>
      <trkpt lat="44.74167" lon="5.5445">
        <ele>953</ele>
        <time>2017-12-15T23:31:42Z</time>
      </trkpt>
      <trkpt lat="44.74144" lon="5.54437">
        <ele>956</ele>
        <time>2017-12-15T23:31:54Z</time>
      </trkpt>
      <trkpt lat="44.74121" lon="5.54435">
        <ele>956</ele>
        <time>2017-12-15T23:32:02Z</time>
      </trkpt>
      <trkpt lat="44.74104" lon="5.54441">
        <ele>957</ele>
        <time>2017-12-15T23:32:15Z</time>
      </trkpt>
      <trkpt lat="44.74092" lon="5.54447">
        <ele>956</ele>
        <time>2017-12-15T23:32:20Z</time>
      </trkpt>
      <trkpt lat="44.74065" lon="5.54468">
        <ele>955</ele>
        <time>2017-12-15T23:32:31Z</time>
      </trkpt>
      <trkpt lat="44.74038" lon="5.54484">
        <ele>954</ele>
        <time>2017-12-15T23:32:50Z</time>
      </trkpt>
      <trkpt lat="44.7401" lon="5.54495">
        <ele>951</ele>
        <time>2017-12-15T23:33:09Z</time>
      </trkpt>
      <trkpt lat="44.73976" lon="5.54504">
        <ele>945</ele>
        <time>2017-12-15T23:33:23Z</time>
      </trkpt>
      <trkpt lat="44.73964" lon="5.54506">
        <ele>946</ele>
        <time>2017-12-15T23:33:33Z</time>
      </trkpt>
      <trkpt lat="44.73961" lon="5.54512">
        <ele>946</ele>
        <time>2017-12-15T23:33:49Z</time>
      </trkpt>
      <trkpt lat="44.73962" lon="5.5452">
        <ele>945</ele>
        <time>2017-12-15T23:34:09Z</time>
      </trkpt>
      <trkpt lat="44.73963" lon="5.54524">
        <ele>944</ele>
        <time>2017-12-15T23:34:28Z</time>
      </trkpt>
      <trkpt lat="44.73965" lon="5.54525">
        <ele>943</ele>
        <time>2017-12-15T23:34:30Z</time>
      </trkpt>
      <trkpt lat="44.73985" lon="5.54517">
        <ele>943</ele>
        <time>2017-12-15T23:34:44Z</time>
      </trkpt>
      <trkpt lat="44.74057" lon="5.54493">
        <ele>949</ele>
        <time>2017-12-15T23:34:49Z</time>
      </trkpt>
      <trkpt lat="44.74082" lon="5.54482">
        <ele>946</ele>
        <time>2017-12-15T23:35:02Z</time>
      </trkpt>
      <trkpt lat="44.741" lon="5.54477">
        <ele>946</ele>
        <time>2017-12-15T23:35:17Z</time>
      </trkpt>
      <trkpt lat="44.74117" lon="5.54475">
        <ele>947</ele>
        <time>2017-12-15T23:35:35Z</time>
      </trkpt>
      <trkpt lat="44.7413" lon="5.54477">
        <ele>947</ele>
        <time>2017-12-15T23:35:51Z</time>
      </trkpt>
      <trkpt lat="44.74144" lon="5.54484">
        <ele>944</ele>
        <time>2017-12-15T23:35:54Z</time>
      </trkpt>
      <trkpt lat="44.74173" lon="5.54507">
        <ele>927</ele>
        <time>2017-12-15T23:35:57Z</time>
      </trkpt>
      <trkpt lat="44.74186" lon="5.54514">
        <ele>924</ele>
        <time>2017-12-15T23:36:11Z</time>
      </trkpt>
      <trkpt lat="44.74203" lon="5.54519">
        <ele>923</ele>
        <time>2017-12-15T23:36:30Z</time>
      </trkpt>
      <trkpt lat="44.74222" lon="5.54521">
        <ele>924</ele>
        <time>2017-12-15T23:36:43Z</time>
      </trkpt>
      <trkpt lat="44.74241" lon="5.54518">
        <ele>927</ele>
        <time>2017-12-15T23:37:03Z</time>
      </trkpt>
      <trkpt lat="44.74276" lon="5.54507">
        <ele>930</ele>
        <time>2017-12-15T23:37:07Z</time>
      </trkpt>
      <trkpt lat="44.74302" lon="5.54505">
        <ele>931</ele>
        <time>2017-12-15T23:37:20Z</time>
      </trkpt>
      <trkpt lat="44.74312" lon="5.54511">
        <ele>931</ele>
        <time>2017-12-15T23:37:36Z</time>
      </trkpt>
      <trkpt lat="44.74316" lon="5.54517">
        <ele>931</ele>
        <time>2017-12-15T23:37:43Z</time>
      </trkpt>
      <trkpt lat="44.74321" lon="5.54532">
        <ele>929</ele>
        <time>2017-12-15T23:37:58Z</time>
      </trkpt>
      <trkpt lat="44.74328" lon="5.54588">
        <ele>919</ele>
        <time>2017-12-15T23:38:13Z</time>
      </trkpt>
      <trkpt lat="44.74331" lon="5.54624">
        <ele>916</ele>
        <time>2017-12-15T23:38:29Z</time>
      </trkpt>
      <trkpt lat="44.7433" lon="5.54654">
        <ele>918</ele>
        <time>2017-12-15T23:38:47Z</time>
      </trkpt>
      <trkpt lat="44.74325" lon="5.54675">
        <ele>920</ele>
        <time>2017-12-15T23:38:56Z</time>
      </trkpt>
      <trkpt lat="44.74317" lon="5.54705">
        <ele>920</ele>
        <time>2017-12-15T23:39:09Z</time>
      </trkpt>
      <trkpt lat="44.74308" lon="5.54723">
        <ele>920</ele>
        <time>2017-12-15T23:39:17Z</time>
      </trkpt>
      <trkpt lat="44.74288" lon="5.54737">
        <ele>917</ele>
        <time>2017-12-15T23:39:27Z</time>
      </trkpt>
      <trkpt lat="44.74271" lon="5.54747">
        <ele>913</ele>
        <time>2017-12-15T23:39:42Z</time>
      </trkpt>
      <trkpt lat="44.74221" lon="5.54809">
        <ele>905</ele>
        <time>2017-12-15T23:39:54Z</time>
      </trkpt>
      <trkpt lat="44.74193" lon="5.54834">
        <ele>913</ele>
        <time>2017-12-15T23:40:00Z</time>
      </trkpt>
      <trkpt lat="44.74175" lon="5.54859">
        <ele>913</ele>
        <time>2017-12-15T23:40:16Z</time>
      </trkpt>
      <trkpt lat="44.74152" lon="5.54892">
        <ele>897</ele>
        <time>2017-12-15T23:40:19Z</time>
      </trkpt>
      <trkpt lat="44.74138" lon="5.54919">
        <ele>909</ele>
        <time>2017-12-15T23:40:27Z</time>
      </trkpt>
      <trkpt lat="44.7412" lon="5.54951">
        <ele>906</ele>
        <time>2017-12-15T23:40:32Z</time>
      </trkpt>
      <trkpt lat="44.74099" lon="5.54978">
        <ele>903</ele>
        <time>2017-12-15T23:40:52Z</time>
      </trkpt>
      <trkpt lat="44.74081" lon="5.55013">
        <ele>896</ele>
        <time>2017-12-15T23:41:01Z</time>
      </trkpt>
      <trkpt lat="44.74066" lon="5.55033">
        <ele>897</ele>
        <time>2017-12-15T23:41:20Z</time>
      </trkpt>
      <trkpt lat="44.7405" lon="5.55048">
        <ele>897</ele>
        <time>2017-12-15T23:41:35Z</time>
      </trkpt>
      <trkpt lat="44.7403" lon="5.55066">
        <ele>895</ele>
        <time>2017-12-15T23:41:43Z</time>
      </trkpt>
      <trkpt lat="44.74002" lon="5.55079">
        <ele>891</ele>
        <time>2017-12-15T23:42:02Z</time>
      </trkpt>
      <trkpt lat="44.7398" lon="5.55094">
        <ele>892</ele>
        <time>2017-12-15T23:42:09Z</time>
      </trkpt>
      <trkpt lat="44.73971" lon="5.55101">
        <ele>892</ele>
        <time>2017-12-15T23:42:13Z</time>
      </trkpt>
      <trkpt lat="44.73938" lon="5.5514">
        <ele>894</ele>
        <time>2017-12-15T23:42:17Z</time>
      </trkpt>
      <trkpt lat="44.73921" lon="5.55155">
        <ele>894</ele>
        <time>2017-12-15T23:42:32Z</time>
      </trkpt>
      <trkpt lat="44.73908" lon="5.55164">
        <ele>885</ele>
        <time>2017-12-15T23:42:34Z</time>
      </trkpt>
      <trkpt lat="44.7387" lon="5.55187">
        <ele>894</ele>
        <time>2017-12-15T23:42:53Z</time>
      </trkpt>
      <trkpt lat="44.73834" lon="5.55199">
        <ele>891</ele>
        <time>2017-12-15T23:43:11Z</time>
      </trkpt>
      <trkpt lat="44.73811" lon="5.55202">
        <ele>875</ele>
        <time>2017-12-15T23:43:14Z</time>
      </trkpt>
      <trkpt lat="44.73798" lon="5.55206">
        <ele>874</ele>
        <time>2017-12-15T23:43:26Z</time>
      </trkpt>
      <trkpt lat="44.7378" lon="5.55221">
        <ele>874</ele>
        <time>2017-12-15T23:43:41Z</time>
      </trkpt>
      <trkpt lat="44.73764" lon="5.55242">
        <ele>873</ele>
        <time>2017-12-15T23:43:43Z</time>
      </trkpt>
      <trkpt lat="44.7376" lon="5.55259">
        <ele>878</ele>
        <time>2017-12-15T23:44:03Z</time>
      </trkpt>
      <trkpt lat="44.73772" lon="5.55354">
        <ele>881</ele>
        <time>2017-12-15T23:44:15Z</time>
      </trkpt>
      <trkpt lat="44.73777" lon="5.55393">
        <ele>880</ele>
        <time>2017-12-15T23:44:19Z</time>
      </trkpt>
      <trkpt lat="44.73782" lon="5.55409">
        <ele>880</ele>
        <time>2017-12-15T23:44:23Z</time>
      </trkpt>
      <trkpt lat="44.73794" lon="5.55431">
        <ele>875</ele>
        <time>2017-12-15T23:44:29Z</time>
      </trkpt>
      <trkpt lat="44.73809" lon="5.55458">
        <ele>874</ele>
        <time>2017-12-15T23:44:32Z</time>
      </trkpt>
      <trkpt lat="44.73814" lon="5.5547">
        <ele>873</ele>
        <time>2017-12-15T23:44:50Z</time>
      </trkpt>
      <trkpt lat="44.73813" lon="5.55481">
        <ele>873</ele>
        <time>2017-12-15T23:45:10Z</time>
      </trkpt>
      <trkpt lat="44.73802" lon="5.55495">
        <ele>872</ele>
        <time>2017-12-15T23:45:24Z</time>
      </trkpt>
      <trkpt lat="44.73785" lon="5.55513">
        <ele>868</ele>
        <time>2017-12-15T23:45:41Z</time>
      </trkpt>
      <trkpt lat="44.73779" lon="5.55517">
        <ele>867</ele>
        <time>2017-12-15T23:45:59Z</time>
      </trkpt>
      <trkpt lat="44.7377" lon="5.5552">
        <ele>867</ele>
        <time>2017-12-15T23:46:08Z</time>
      </trkpt>
      <trkpt lat="44.7376" lon="5.55521">
        <ele>867</ele>
        <time>2017-12-15T23:46:24Z</time>
      </trkpt>
      <trkpt lat="44.73755" lon="5.5552">
        <ele>867</ele>
        <time>2017-12-15T23:46:34Z</time>
      </trkpt>
      <trkpt lat="44.73747" lon="5.55515">
        <ele>868</ele>
        <time>2017-12-15T23:46:47Z</time>
      </trkpt>
      <trkpt lat="44.73726" lon="5.55492">
        <ele>866</ele>
        <time>2017-12-15T23:46:55Z</time>
      </trkpt>
      <trkpt lat="44.737" lon="5.55448">
        <ele>865</ele>
        <time>2017-12-15T23:47:14Z</time>
      </trkpt>
      <trkpt lat="44.73686" lon="5.55423">
        <ele>863</ele>
        <time>2017-12-15T23:47:24Z</time>
      </trkpt>
      <trkpt lat="44.7366" lon="5.55371">
        <ele>856</ele>
        <time>2017-12-15T23:47:42Z</time>
      </trkpt>
      <trkpt lat="44.73644" lon="5.55322">
        <ele>851</ele>
        <time>2017-12-15T23:47:50Z</time>
      </trkpt>
      <trkpt lat="44.73638" lon="5.55298">
        <ele>850</ele>
        <time>2017-12-15T23:47:58Z</time>
      </trkpt>
      <trkpt lat="44.73636" lon="5.55221">
        <ele>843</ele>
        <time>2017-12-15T23:48:01Z</time>
      </trkpt>
      <trkpt lat="44.73638" lon="5.55205">
        <ele>842</ele>
        <time>2017-12-15T23:48:04Z</time>
      </trkpt>
      <trkpt lat="44.7364" lon="5.552">
        <ele>842</ele>
        <time>2017-12-15T23:48:12Z</time>
      </trkpt>
      <trkpt lat="44.73647" lon="5.55193">
        <ele>842</ele>
        <time>2017-12-15T23:48:16Z</time>
      </trkpt>
      <trkpt lat="44.73657" lon="5.55188">
        <ele>841</ele>
        <time>2017-12-15T23:48:32Z</time>
      </trkpt>
      <trkpt lat="44.73696" lon="5.55188">
        <ele>851</ele>
        <time>2017-12-15T23:48:37Z</time>
      </trkpt>
      <trkpt lat="44.73714" lon="5.55181">
        <ele>852</ele>
        <time>2017-12-15T23:48:41Z</time>
      </trkpt>
      <trkpt lat="44.73736" lon="5.55162">
        <ele>845</ele>
        <time>2017-12-15T23:48:45Z</time>
      </trkpt>
      <trkpt lat="44.73782" lon="5.55105">
        <ele>846</ele>
        <time>2017-12-15T23:48:47Z</time>
      </trkpt>
      <trkpt lat="44.73828" lon="5.55045">
        <ele>834</ele>
        <time>2017-12-15T23:49:04Z</time>
      </trkpt>
      <trkpt lat="44.73845" lon="5.55012">
        <ele>838</ele>
        <time>2017-12-15T23:49:10Z</time>
      </trkpt>
      <trkpt lat="44.73874" lon="5.54939">
        <ele>830</ele>
        <time>2017-12-15T23:49:23Z</time>
      </trkpt>
      <trkpt lat="44.73887" lon="5.54916">
        <ele>828</ele>
        <time>2017-12-15T23:49:32Z</time>
      </trkpt>
      <trkpt lat="44.73905" lon="5.54892">
        <ele>830</ele>
        <time>2017-12-15T23:49:47Z</time>
      </trkpt>
      <trkpt lat="44.7392" lon="5.54875">
        <ele>840</ele>
        <time>2017-12-15T23:49:51Z</time>
      </trkpt>
      <trkpt lat="44.73925" lon="5.54858">
        <ele>840</ele>
        <time>2017-12-15T23:50:04Z</time>
      </trkpt>
      <trkpt lat="44.73925" lon="5.54849">
        <ele>840</ele>
        <time>2017-12-15T23:50:21Z</time>
      </trkpt>
      <trkpt lat="44.7392" lon="5.54838">
        <ele>838</ele>
        <time>2017-12-15T23:50:39Z</time>
      </trkpt>
      <trkpt lat="44.73912" lon="5.54833">
        <ele>838</ele>
        <time>2017-12-15T23:50:44Z</time>
      </trkpt>
      <trkpt lat="44.73887" lon="5.54825">
        <ele>843</ele>
        <time>2017-12-15T23:50:47Z</time>
      </trkpt>
      <trkpt lat="44.73863" lon="5.54818">
        <ele>842</ele>
        <time>2017-12-15T23:50:53Z</time>
      </trkpt>
      <trkpt lat="44.73843" lon="5.54821">
        <ele>837</ele>
        <time>2017-12-15T23:51:02Z</time>
      </trkpt>
      <trkpt lat="44.73794" lon="5.54842">
        <ele>821</ele>
        <time>2017-12-15T23:51:16Z</time>
      </trkpt>
      <trkpt lat="44.73773" lon="5.5485">
        <ele>821</ele>
        <time>2017-12-15T23:51:24Z</time>
      </trkpt>
      <trkpt lat="44.73757" lon="5.54852">
        <ele>822</ele>
        <time>2017-12-15T23:51:44Z</time>
      </trkpt>
      <trkpt lat="44.73739" lon="5.54847">
        <ele>820</ele>
        <time>2017-12-15T23:51:46Z</time>
      </trkpt>
      <trkpt lat="44.73722" lon="5.54846">
        <ele>818</ele>
        <time>2017-12-15T23:51:51Z</time>
      </trkpt>
      <trkpt lat="44.73705" lon="5.54845">
        <ele>817</ele>
        <time>2017-12-15T23:52:06Z</time>
      </trkpt>
      <trkpt lat="44.73691" lon="5.54847">
        <ele>818</ele>
        <time>2017-12-15T23:52:18Z</time>
      </trkpt>
      <trkpt lat="44.73654" lon="5.54856">
        <ele>811</ele>
        <time>2017-12-15T23:52:23Z</time>
      </trkpt>
      <trkpt lat="44.73638" lon="5.54856">
        <ele>809</ele>
        <time>2017-12-15T23:52:39Z</time>
      </trkpt>
      <trkpt lat="44.7362" lon="5.54849">
        <ele>807</ele>
        <time>2017-12-15T23:52:56Z</time>
      </trkpt>
      <trkpt lat="44.73589" lon="5.54826">
        <ele>817</ele>
        <time>2017-12-15T23:53:14Z</time>
      </trkpt>
      <trkpt lat="44.73568" lon="5.54817">
        <ele>813</ele>
        <time>2017-12-15T23:53:16Z</time>
      </trkpt>
      <trkpt lat="44.73552" lon="5.54805">
        <ele>814</ele>
        <time>2017-12-15T23:53:27Z</time>
      </trkpt>
      <trkpt lat="44.73535" lon="5.54789">
        <ele>815</ele>
        <time>2017-12-15T23:53:43Z</time>
      </trkpt>
      <trkpt lat="44.73514" lon="5.54776">
        <ele>816</ele>
        <time>2017-12-15T23:53:45Z</time>
      </trkpt>
      <trkpt lat="44.73477" lon="5.54764">
        <ele>806</ele>
        <time>2017-12-15T23:53:57Z</time>
      </trkpt>
      <trkpt lat="44.7344" lon="5.54755">
        <ele>802</ele>
        <time>2017-12-15T23:54:17Z</time>
      </trkpt>
      <trkpt lat="44.73417" lon="5.54753">
        <ele>805</ele>
        <time>2017-12-15T23:54:26Z</time>
      </trkpt>
      <trkpt lat="44.73394" lon="5.54748">
        <ele>816</ele>
        <time>2017-12-15T23:54:40Z</time>
      </trkpt>
      <trkpt lat="44.73374" lon="5.54747">
        <ele>818</ele>
        <time>2017-12-15T23:55:00Z</time>
      </trkpt>
      <trkpt lat="44.73356" lon="5.54751">
        <ele>798</ele>
        <time>2017-12-15T23:55:09Z</time>
      </trkpt>
      <trkpt lat="44.73335" lon="5.54762">
        <ele>800</ele>
        <time>2017-12-15T23:55:23Z</time>
      </trkpt>
      <trkpt lat="44.73319" lon="5.54776">
        <ele>797</ele>
        <time>2017-12-15T23:55:35Z</time>
      </trkpt>
      <trkpt lat="44.73302" lon="5.54789">
        <ele>794</ele>
        <time>2017-12-15T23:55:49Z</time>
      </trkpt>
      <trkpt lat="44.73289" lon="5.54792">
        <ele>794</ele>
        <time>2017-12-15T23:55:55Z</time>
      </trkpt>
      <trkpt lat="44.7328" lon="5.54798">
        <ele>794</ele>
        <time>2017-12-15T23:56:10Z</time>
      </trkpt>
      <trkpt lat="44.73245" lon="5.54821">
        <ele>788</ele>
        <time>2017-12-15T23:56:22Z</time>
      </trkpt>
      <trkpt lat="44.73228" lon="5.54843">
        <ele>779</ele>
        <time>2017-12-15T23:56:36Z</time>
      </trkpt>
      <trkpt lat="44.73219" lon="5.54849">
        <ele>778</ele>
        <time>2017-12-15T23:56:43Z</time>
      </trkpt>
      <trkpt lat="44.73209" lon="5.54851">
        <ele>777</ele>
        <time>2017-12-15T23:57:03Z</time>
      </trkpt>
      <trkpt lat="44.73198" lon="5.5485">
        <ele>777</ele>
        <time>2017-12-15T23:57:13Z</time>
      </trkpt>
      <trkpt lat="44.73182" lon="5.5484">
        <ele>777</ele>
        <time>2017-12-15T23:57:30Z</time>
      </trkpt>
      <trkpt lat="44.73137" lon="5.54802">
        <ele>782</ele>
        <time>2017-12-15T23:57:39Z</time>
      </trkpt>
      <trkpt lat="44.73101" lon="5.54776">
        <ele>784</ele>
        <time>2017-12-15T23:57:57Z</time>
      </trkpt>
      <trkpt lat="44.7309" lon="5.54771">
        <ele>784</ele>
        <time>2017-12-15T23:58:05Z</time>
      </trkpt>
      <trkpt lat="44.73068" lon="5.54772">
        <ele>780</ele>
        <time>2017-12-15T23:58:10Z</time>
      </trkpt>
      <trkpt lat="44.73022" lon="5.54783">
        <ele>778</ele>
        <time>2017-12-15T23:58:16Z</time>
      </trkpt>
      <trkpt lat="44.72987" lon="5.5479">
        <ele>775</ele>
        <time>2017-12-15T23:58:34Z</time>
      </trkpt>
      <trkpt lat="44.72968" lon="5.548">
        <ele>772</ele>
        <time>2017-12-15T23:58:52Z</time>
      </trkpt>
      <trkpt lat="44.72953" lon="5.54807">
        <ele>771</ele>
        <time>2017-12-15T23:58:57Z</time>
      </trkpt>
      <trkpt lat="44.72939" lon="5.54808">
        <ele>769</ele>
        <time>2017-12-15T23:59:06Z</time>
      </trkpt>
      <trkpt lat="44.72897" lon="5.54798">
        <ele>766</ele>
        <time>2017-12-15T23:59:14Z</time>
      </trkpt>
      <trkpt lat="44.72871" lon="5.54791">
        <ele>766</ele>
        <time>2017-12-15T23:59:16Z</time>
      </trkpt>
      <trkpt lat="44.72838" lon="5.54787">
        <ele>765</ele>
        <time>2017-12-15T23:59:20Z</time>
      </trkpt>
      <trkpt lat="44.72811" lon="5.54783">
        <ele>755</ele>
        <time>2017-12-15T23:59:23Z</time>
      </trkpt>
      <trkpt lat="44.72792" lon="5.54775">
        <ele>754</ele>
        <time>2017-12-15T23:59:36Z</time>
      </trkpt>
      <trkpt lat="44.72771" lon="5.54758">
        <ele>755</ele>
        <time>2017-12-15T23:59:39Z</time>
      </trkpt>
      <trkpt lat="44.72747" lon="5.54741">
        <ele>762</ele>
        <time>2017-12-15T23:59:57Z</time>
      </trkpt>
      <trkpt lat="44.7269" lon="5.54714">
        <ele>765</ele>
        <time>2017-12-16T00:00:09Z</time>
      </trkpt>
      <trkpt lat="44.72674" lon="5.54708">
        <ele>765</ele>
        <time>2017-12-16T00:00:16Z</time>
      </trkpt>
      <trkpt lat="44.72659" lon="5.54706">
        <ele>755</ele>
        <time>2017-12-16T00:00:21Z</time>
      </trkpt>
      <trkpt lat="44.72639" lon="5.54711">
        <ele>752</ele>
        <time>2017-12-16T00:00:25Z</time>
      </trkpt>
      <trkpt lat="44.72618" lon="5.5471">
        <ele>751</ele>
        <time>2017-12-16T00:00:30Z</time>
      </trkpt>
      <trkpt lat="44.72577" lon="5.54697">
        <ele>741</ele>
        <time>2017-12-16T00:00:32Z</time>
      </trkpt>
      <trkpt lat="44.72559" lon="5.54686">
        <ele>741</ele>
        <time>2017-12-16T00:00:47Z</time>
      </trkpt>
      <trkpt lat="44.7255" lon="5.54678">
        <ele>740</ele>
        <time>2017-12-16T00:00:53Z</time>
      </trkpt>
      <trkpt lat="44.72544" lon="5.54669">
        <ele>739</ele>
        <time>2017-12-16T00:00:57Z</time>
      </trkpt>
      <trkpt lat="44.72517" lon="5.54643">
        <ele>753</ele>
        <time>2017-12-16T00:01:06Z</time>
      </trkpt>
      <trkpt lat="44.72484" lon="5.54611">
        <ele>734</ele>
        <time>2017-12-16T00:01:13Z</time>
      </trkpt>
      <trkpt lat="44.72473" lon="5.54595">
        <ele>734</ele>
        <time>2017-12-16T00:01:31Z</time>
      </trkpt>
      <trkpt lat="44.72467" lon="5.54581">
        <ele>740</ele>
        <time>2017-12-16T00:01:41Z</time>
      </trkpt>
      <trkpt lat="44.72463" lon="5.54564">
        <ele>738</ele>
        <time>2017-12-16T00:01:59Z</time>
      </trkpt>
      <trkpt lat="44.72461" lon="5.54543">
        <ele>739</ele>
        <time>2017-12-16T00:02:15Z</time>
      </trkpt>
      <trkpt lat="44.72456" lon="5.5448">
        <ele>745</ele>
        <time>2017-12-16T00:02:26Z</time>
      </trkpt>
      <trkpt lat="44.72452" lon="5.54412">
        <ele>752</ele>
        <time>2017-12-16T00:02:36Z</time>
      </trkpt>
      <trkpt lat="44.72448" lon="5.54391">
        <ele>753</ele>
        <time>2017-12-16T00:02:47Z</time>
      </trkpt>
      <trkpt lat="44.72438" lon="5.54369">
        <ele>752</ele>
        <time>2017-12-16T00:02:50Z</time>
      </trkpt>
      <trkpt lat="44.72423" lon="5.54317">
        <ele>754</ele>
        <time>2017-12-16T00:03:01Z</time>
      </trkpt>
      <trkpt lat="44.72416" lon="5.54298">
        <ele>731</ele>
        <time>2017-12-16T00:03:10Z</time>
      </trkpt>
      <trkpt lat="44.72404" lon="5.54285">
        <ele>731</ele>
        <time>2017-12-16T00:03:14Z</time>
      </trkpt>
      <trkpt lat="44.72386" lon="5.54261">
        <ele>731</ele>
        <time>2017-12-16T00:03:32Z</time>
      </trkpt>
      <trkpt lat="44.72377" lon="5.54243">
        <ele>738</ele>
        <time>2017-12-16T00:03:39Z</time>
      </trkpt>
      <trkpt lat="44.72371" lon="5.54221">
        <ele>738</ele>
        <time>2017-12-16T00:03:41Z</time>
      </trkpt>
      <trkpt lat="44.72367" lon="5.54199">
        <ele>738</ele>
        <time>2017-12-16T00:03:48Z</time>
      </trkpt>
      <trkpt lat="44.72359" lon="5.54182">
        <ele>737</ele>
        <time>2017-12-16T00:04:00Z</time>
      </trkpt>
      <trkpt lat="44.72344" lon="5.54164">
        <ele>736</ele>
        <time>2017-12-16T00:04:09Z</time>
      </trkpt>
      <trkpt lat="44.72312" lon="5.54098">
        <ele>723</ele>
        <time>2017-12-16T00:04:23Z</time>
      </trkpt>
      <trkpt lat="44.72309" lon="5.54094">
        <ele>723</ele>
        <time>2017-12-16T00:04:33Z</time>
      </trkpt>
      <trkpt lat="44.72304" lon="5.54092">
        <ele>721</ele>
        <time>2017-12-16T00:04:50Z</time>
      </trkpt>
      <trkpt lat="44.72299" lon="5.54094">
        <ele>719</ele>
        <time>2017-12-16T00:05:04Z</time>
      </trkpt>
      <trkpt lat="44.72298" lon="5.541">
        <ele>718</ele>
        <time>2017-12-16T00:05:23Z</time>
      </trkpt>
      <trkpt lat="44.72298" lon="5.54105">
        <ele>718</ele>
        <time>2017-12-16T00:05:37Z</time>
      </trkpt>
      <trkpt lat="44.72303" lon="5.54116">
        <ele>718</ele>
        <time>2017-12-16T00:05:57Z</time>
      </trkpt>
      <trkpt lat="44.72315" lon="5.54135">
        <ele>718</ele>
        <time>2017-12-16T00:06:01Z</time>
      </trkpt>
      <trkpt lat="44.72342" lon="5.542">
        <ele>733</ele>
        <time>2017-12-16T00:06:03Z</time>
      </trkpt>
      <trkpt lat="44.72365" lon="5.54274">
        <ele>721</ele>
        <time>2017-12-16T00:06:10Z</time>
      </trkpt>
      <trkpt lat="44.7238" lon="5.54319">
        <ele>722</ele>
        <time>2017-12-16T00:06:18Z</time>
      </trkpt>
      <trkpt lat="44.72389" lon="5.54364">
        <ele>715</ele>
        <time>2017-12-16T00:06:25Z</time>
      </trkpt>
      <trkpt lat="44.72394" lon="5.54401">
        <ele>716</ele>
        <time>2017-12-16T00:06:45Z</time>
      </trkpt>
      <trkpt lat="44.7241" lon="5.54453">
        <ele>714</ele>
        <time>2017-12-16T00:06:52Z</time>
      </trkpt>
      <trkpt lat="44.7241" lon="5.54463">
        <ele>713</ele>
        <time>2017-12-16T00:06:58Z</time>
      </trkpt>
      <trkpt lat="44.72404" lon="5.5447">
        <ele>713</ele>
        <time>2017-12-16T00:07:13Z</time>
      </trkpt>
      <trkpt lat="44.72398" lon="5.54462">
        <ele>712</ele>
        <time>2017-12-16T00:07:18Z</time>
      </trkpt>
      <trkpt lat="44.72392" lon="5.54445">
        <ele>712</ele>
        <time>2017-12-16T00:07:36Z</time>
      </trkpt>
      <trkpt lat="44.72342" lon="5.54298">
        <ele>714</ele>
        <time>2017-12-16T00:07:38Z</time>
      </trkpt>
      <trkpt lat="44.72335" lon="5.54284">
        <ele>715</ele>
        <time>2017-12-16T00:07:47Z</time>
      </trkpt>
      <trkpt lat="44.72316" lon="5.54259">
        <ele>700</ele>
        <time>2017-12-16T00:08:00Z</time>
      </trkpt>
      <trkpt lat="44.72303" lon="5.54236">
        <ele>701</ele>
        <time>2017-12-16T00:08:11Z</time>
      </trkpt>
      <trkpt lat="44.72293" lon="5.54208">
        <ele>701</ele>
        <time>2017-12-16T00:08:19Z</time>
      </trkpt>
      <trkpt lat="44.7227" lon="5.54166">
        <ele>703</ele>
        <time>2017-12-16T00:08:22Z</time>
      </trkpt>
      <trkpt lat="44.72241" lon="5.54124">
        <ele>692</ele>
        <time>2017-12-16T00:08:36Z</time>
      </trkpt>
      <trkpt lat="44.72219" lon="5.54105">
        <ele>692</ele>
        <time>2017-12-16T00:08:47Z</time>
      </trkpt>
      <trkpt lat="44.72209" lon="5.54094">
        <ele>691</ele>
        <time>2017-12-16T00:08:57Z</time>
      </trkpt>
      <trkpt lat="44.72198" lon="5.54071">
        <ele>697</ele>
        <time>2017-12-16T00:09:08Z</time>
      </trkpt>
      <trkpt lat="44.72189" lon="5.54055">
        <ele>698</ele>
        <time>2017-12-16T00:09:12Z</time>
      </trkpt>
      <trkpt lat="44.72162" lon="5.54019">
        <ele>691</ele>
        <time>2017-12-16T00:09:14Z</time>
      </trkpt>
      <trkpt lat="44.72144" lon="5.53973">
        <ele>691</ele>
        <time>2017-12-16T00:09:30Z</time>
      </trkpt>
      <trkpt lat="44.72138" lon="5.53951">
        <ele>691</ele>
        <time>2017-12-16T00:09:38Z</time>
      </trkpt>
      <trkpt lat="44.72131" lon="5.53877">
        <ele>692</ele>
        <time>2017-12-16T00:09:56Z</time>
      </trkpt>
      <trkpt lat="44.7213" lon="5.5385">
        <ele>692</ele>
        <time>2017-12-16T00:10:04Z</time>
      </trkpt>
      <trkpt lat="44.72131" lon="5.53826">
        <ele>692</ele>
        <time>2017-12-16T00:10:07Z</time>
      </trkpt>
      <trkpt lat="44.72139" lon="5.53782">
        <ele>693</ele>
        <time>2017-12-16T00:10:24Z</time>
      </trkpt>
      <trkpt lat="44.72139" lon="5.53764">
        <ele>694</ele>
        <time>2017-12-16T00:10:36Z</time>
      </trkpt>
      <trkpt lat="44.72134" lon="5.53741">
        <ele>698</ele>
        <time>2017-12-16T00:10:45Z</time>
      </trkpt>
      <trkpt lat="44.72121" lon="5.53706">
        <ele>696</ele>
        <time>2017-12-16T00:11:00Z</time>
      </trkpt>
      <trkpt lat="44.72097" lon="5.53667">
        <ele>687</ele>
        <time>2017-12-16T00:11:18Z</time>
      </trkpt>
      <trkpt lat="44.72072" lon="5.53631">
        <ele>686</ele>
        <time>2017-12-16T00:11:35Z</time>
      </trkpt>
      <trkpt lat="44.72057" lon="5.53617">
        <ele>687</ele>
        <time>2017-12-16T00:11:44Z</time>
      </trkpt>
      <trkpt lat="44.72032" lon="5.53605">
        <ele>684</ele>
        <time>2017-12-16T00:11:58Z</time>
      </trkpt>
      <trkpt lat="44.72005" lon="5.53593">
        <ele>679</ele>
        <time>2017-12-16T00:12:14Z</time>
      </trkpt>
      <trkpt lat="44.71995" lon="5.53581">
        <ele>677</ele>
        <time>2017-12-16T00:12:32Z</time>
      </trkpt>
      <trkpt lat="44.71963" lon="5.5352">
        <ele>683</ele>
        <time>2017-12-16T00:12:35Z</time>
      </trkpt>
      <trkpt lat="44.7195" lon="5.53505">
        <ele>680</ele>
        <time>2017-12-16T00:12:47Z</time>
      </trkpt>
      <trkpt lat="44.71921" lon="5.53485">
        <ele>686</ele>
        <time>2017-12-16T00:12:54Z</time>
      </trkpt>
      <trkpt lat="44.71872" lon="5.53462">
        <ele>676</ele>
        <time>2017-12-16T00:13:10Z</time>
      </trkpt>
      <trkpt lat="44.71833" lon="5.53453">
        <ele>666</ele>
        <time>2017-12-16T00:13:16Z</time>
      </trkpt>
      <trkpt lat="44.71814" lon="5.53445">
        <ele>666</ele>
        <time>2017-12-16T00:13:25Z</time>
      </trkpt>
      <trkpt lat="44.71803" lon="5.53435">
        <ele>666</ele>
        <time>2017-12-16T00:13:32Z</time>
      </trkpt>
      <trkpt lat="44.71782" lon="5.53404">
        <ele>675</ele>
        <time>2017-12-16T00:13:47Z</time>
      </trkpt>
      <trkpt lat="44.71746" lon="5.5334">
        <ele>672</ele>
        <time>2017-12-16T00:14:04Z</time>
      </trkpt>
      <trkpt lat="44.71727" lon="5.53313">
        <ele>673</ele>
        <time>2017-12-16T00:14:08Z</time>
      </trkpt>
      <trkpt lat="44.71676" lon="5.53252">
        <ele>663</ele>
        <time>2017-12-16T00:14:17Z</time>
      </trkpt>
      <trkpt lat="44.71659" lon="5.53228">
        <ele>660</ele>
        <time>2017-12-16T00:14:30Z</time>
      </trkpt>
      <trkpt lat="44.7164" lon="5.53211">
        <ele>661</ele>
        <time>2017-12-16T00:14:45Z</time>
      </trkpt>
      <trkpt lat="44.71613" lon="5.5319">
        <ele>658</ele>
        <time>2017-12-16T00:14:52Z</time>
      </trkpt>
      <trkpt lat="44.71601" lon="5.53174">
        <ele>656</ele>
        <time>2017-12-16T00:14:59Z</time>
      </trkpt>
      <trkpt lat="44.71593" lon="5.53153">
        <ele>659</ele>
        <time>2017-12-16T00:15:16Z</time>
      </trkpt>
      <trkpt lat="44.71578" lon="5.53086">
        <ele>653</ele>
        <time>2017-12-16T00:15:36Z</time>
      </trkpt>
      <trkpt lat="44.71564" lon="5.53029">
        <ele>651</ele>
        <time>2017-12-16T00:15:55Z</time>
      </trkpt>
      <trkpt lat="44.71552" lon="5.52967">
        <ele>646</ele>
        <time>2017-12-16T00:16:06Z</time>
      </trkpt>
      <trkpt lat="44.71542" lon="5.52925">
        <ele>644</ele>
        <time>2017-12-16T00:16:11Z</time>
      </trkpt>
      <trkpt lat="44.71518" lon="5.52847">
        <ele>642</ele>
        <time>2017-12-16T00:16:17Z</time>
      </trkpt>
      <trkpt lat="44.7151" lon="5.52834">
        <ele>642</ele>
        <time>2017-12-16T00:16:36Z</time>
      </trkpt>
      <trkpt lat="44.71507" lon="5.52829">
        <ele>647</ele>
        <time>2017-12-16T00:16:38Z</time>
      </trkpt>
      <trkpt lat="44.71497" lon="5.5283">
        <ele>645</ele>
        <time>2017-12-16T00:16:55Z</time>
      </trkpt>
      <trkpt lat="44.71482" lon="5.52831">
        <ele>651</ele>
        <time>2017-12-16T00:17:07Z</time>
      </trkpt>
      <trkpt lat="44.71458" lon="5.52827">
        <ele>655</ele>
        <time>2017-12-16T00:17:16Z</time>
      </trkpt>
      <trkpt lat="44.71421" lon="5.52819">
        <ele>652</ele>
        <time>2017-12-16T00:17:21Z</time>
      </trkpt>
      <trkpt lat="44.71396" lon="5.52818">
        <ele>658</ele>
        <time>2017-12-16T00:17:24Z</time>
      </trkpt>
      <trkpt lat="44.71343" lon="5.52824">
        <ele>656</ele>
        <time>2017-12-16T00:17:33Z</time>
      </trkpt>
      <trkpt lat="44.71309" lon="5.52831">
        <ele>664</ele>
        <time>2017-12-16T00:17:49Z</time>
      </trkpt>
      <trkpt lat="44.71273" lon="5.52844">
        <ele>649</ele>
        <time>2017-12-16T00:18:07Z</time>
      </trkpt>
      <trkpt lat="44.71256" lon="5.52848">
        <ele>650</ele>
        <time>2017-12-16T00:18:13Z</time>
      </trkpt>
      <trkpt lat="44.71232" lon="5.52849">
        <ele>651</ele>
        <time>2017-12-16T00:18:17Z</time>
      </trkpt>
      <trkpt lat="44.712" lon="5.52853">
        <ele>651</ele>
        <time>2017-12-16T00:18:20Z</time>
      </trkpt>
      <trkpt lat="44.71137" lon="5.52853">
        <ele>651</ele>
        <time>2017-12-16T00:18:24Z</time>
      </trkpt>
      <trkpt lat="44.71106" lon="5.52855">
        <ele>650</ele>
        <time>2017-12-16T00:18:26Z</time>
      </trkpt>
      <trkpt lat="44.71091" lon="5.52853">
        <ele>652</ele>
        <time>2017-12-16T00:18:44Z</time>
      </trkpt>
      <trkpt lat="44.71076" lon="5.52849">
        <ele>649</ele>
        <time>2017-12-16T00:19:00Z</time>
      </trkpt>
      <trkpt lat="44.71048" lon="5.52835">
        <ele>645</ele>
        <time>2017-12-16T00:19:06Z</time>
      </trkpt>
      <trkpt lat="44.71028" lon="5.52826">
        <ele>660</ele>
        <time>2017-12-16T00:19:18Z</time>
      </trkpt>
      <trkpt lat="44.71013" lon="5.52822">
        <ele>655</ele>
        <time>2017-12-16T00:19:23Z</time>
      </trkpt>
      <trkpt lat="44.70982" lon="5.52819">
        <ele>647</ele>
        <time>2017-12-16T00:19:43Z</time>
      </trkpt>
      <trkpt lat="44.70962" lon="5.52811">
        <ele>648</ele>
        <time>2017-12-16T00:19:45Z</time>
      </trkpt>
      <trkpt lat="44.70934" lon="5.52787">
        <ele>650</ele>
        <time>2017-12-16T00:19:50Z</time>
      </trkpt>
      <trkpt lat="44.70913" lon="5.52765">
        <ele>647</ele>
        <time>2017-12-16T00:20:01Z</time>
      </trkpt>
      <trkpt lat="44.70901" lon="5.52755">
        <ele>647</ele>
        <time>2017-12-16T00:20:19Z</time>
      </trkpt>
      <trkpt lat="44.70886" lon="5.52748">
        <ele>661</ele>
        <time>2017-12-16T00:20:33Z</time>
      </trkpt>
      <trkpt lat="44.7087" lon="5.52749">
        <ele>660</ele>
        <time>2017-12-16T00:20:35Z</time>
      </trkpt>
      <trkpt lat="44.70833" lon="5.52752">
        <ele>641</ele>
        <time>2017-12-16T00:20:39Z</time>
      </trkpt>
      <trkpt lat="44.70815" lon="5.52754">
        <ele>638</ele>
        <time>2017-12-16T00:20:41Z</time>
      </trkpt>
      <trkpt lat="44.70797" lon="5.52752">
        <ele>637</ele>
        <time>2017-12-16T00:20:49Z</time>
      </trkpt>
      <trkpt lat="44.70742" lon="5.52738">
        <ele>647</ele>
        <time>2017-12-16T00:21:09Z</time>
      </trkpt>
      <trkpt lat="44.70677" lon="5.52721">
        <ele>650</ele>
        <time>2017-12-16T00:21:18Z</time>
      </trkpt>
      <trkpt lat="44.70641" lon="5.52719">
        <ele>652</ele>
        <time>2017-12-16T00:21:35Z</time>
      </trkpt>
      <trkpt lat="44.70627" lon="5.52721">
        <ele>652</ele>
        <time>2017-12-16T00:21:51Z</time>
      </trkpt>
      <trkpt lat="44.70608" lon="5.52731">
        <ele>650</ele>
        <time>2017-12-16T00:22:08Z</time>
      </trkpt>
      <trkpt lat="44.70561" lon="5.52761">
        <ele>631</ele>
        <time>2017-12-16T00:22:25Z</time>
      </trkpt>
      <trkpt lat="44.70542" lon="5.5277">
        <ele>630</ele>
        <time>2017-12-16T00:22:27Z</time>
      </trkpt>
      <trkpt lat="44.70529" lon="5.52773">
        <ele>630</ele>
        <time>2017-12-16T00:22:42Z</time>
      </trkpt>
      <trkpt lat="44.70516" lon="5.52771">
        <ele>630</ele>
        <time>2017-12-16T00:22:46Z</time>
      </trkpt>
      <trkpt lat="44.70504" lon="5.52766">
        <ele>631</ele>
        <time>2017-12-16T00:23:02Z</time>
      </trkpt>
      <trkpt lat="44.70483" lon="5.52752">
        <ele>629</ele>
        <time>2017-12-16T00:23:20Z</time>
      </trkpt>
      <trkpt lat="44.70445" lon="5.52746">
        <ele>638</ele>
        <time>2017-12-16T00:23:40Z</time>
      </trkpt>
      <trkpt lat="44.7042" lon="5.52744">
        <ele>631</ele>
        <time>2017-12-16T00:23:55Z</time>
      </trkpt>
      <trkpt lat="44.70403" lon="5.5274">
        <ele>631</ele>
        <time>2017-12-16T00:23:57Z</time>
      </trkpt>
      <trkpt lat="44.7037" lon="5.52731">
        <ele>633</ele>
        <time>2017-12-16T00:24:04Z</time>
      </trkpt>
      <trkpt lat="44.70354" lon="5.52723">
        <ele>633</ele>
        <time>2017-12-16T00:24:08Z</time>
      </trkpt>
      <trkpt lat="44.70336" lon="5.52708">
        <ele>634</ele>
        <time>2017-12-16T00:24:21Z</time>
      </trkpt>
      <trkpt lat="44.70323" lon="5.52692">
        <ele>631</ele>
        <time>2017-12-16T00:24:23Z</time>
      </trkpt>
      <trkpt lat="44.70309" lon="5.52678">
        <ele>631</ele>
        <time>2017-12-16T00:24:29Z</time>
      </trkpt>
      <trkpt lat="44.703" lon="5.5267">
        <ele>630</ele>
        <time>2017-12-16T00:24:45Z</time>
      </trkpt>
      <trkpt lat="44.70291" lon="5.52667">
        <ele>630</ele>
        <time>2017-12-16T00:25:00Z</time>
      </trkpt>
      <trkpt lat="44.70256" lon="5.52657">
        <ele>632</ele>
        <time>2017-12-16T00:25:12Z</time>
      </trkpt>
      <trkpt lat="44.70217" lon="5.5264">
        <ele>630</ele>
        <time>2017-12-16T00:25:18Z</time>
      </trkpt>
      <trkpt lat="44.70154" lon="5.52604">
        <ele>627</ele>
        <time>2017-12-16T00:25:21Z</time>
      </trkpt>
      <trkpt lat="44.70139" lon="5.52594">
        <ele>626</ele>
        <time>2017-12-16T00:25:31Z</time>
      </trkpt>
      <trkpt lat="44.70103" lon="5.52561">
        <ele>635</ele>
        <time>2017-12-16T00:25:40Z</time>
      </trkpt>
      <trkpt lat="44.7001" lon="5.5247">
        <ele>635</ele>
        <time>2017-12-16T00:25:49Z</time>
      </trkpt>
      <trkpt lat="44.69978" lon="5.5244">
        <ele>627</ele>
        <time>2017-12-16T00:26:08Z</time>
      </trkpt>
      <trkpt lat="44.69957" lon="5.52424">
        <ele>626</ele>
        <time>2017-12-16T00:26:17Z</time>
      </trkpt>
      <trkpt lat="44.69934" lon="5.52412">
        <ele>635</ele>
        <time>2017-12-16T00:26:28Z</time>
      </trkpt>
      <trkpt lat="44.6991" lon="5.52397">
        <ele>625</ele>
        <time>2017-12-16T00:26:46Z</time>
      </trkpt>
      <trkpt lat="44.69902" lon="5.52389">
        <ele>626</ele>
        <time>2017-12-16T00:26:49Z</time>
      </trkpt>
      <trkpt lat="44.69885" lon="5.52368">
        <ele>627</ele>
        <time>2017-12-16T00:26:56Z</time>
      </trkpt>
      <trkpt lat="44.69869" lon="5.5235">
        <ele>627</ele>
        <time>2017-12-16T00:27:01Z</time>
      </trkpt>
      <trkpt lat="44.69846" lon="5.52335">
        <ele>623</ele>
        <time>2017-12-16T00:27:15Z</time>
      </trkpt>
      <trkpt lat="44.69808" lon="5.52317">
        <ele>625</ele>
        <time>2017-12-16T00:27:21Z</time>
      </trkpt>
      <trkpt lat="44.69768" lon="5.52301">
        <ele>626</ele>
        <time>2017-12-16T00:27:23Z</time>
      </trkpt>
      <trkpt lat="44.69747" lon="5.52296">
        <ele>623</ele>
        <time>2017-12-16T00:27:41Z</time>
      </trkpt>
      <trkpt lat="44.6972" lon="5.52295">
        <ele>623</ele>
        <time>2017-12-16T00:28:00Z</time>
      </trkpt>
      <trkpt lat="44.69698" lon="5.52298">
        <ele>622</ele>
        <time>2017-12-16T00:28:18Z</time>
      </trkpt>
      <trkpt lat="44.69672" lon="5.52305">
        <ele>619</ele>
        <time>2017-12-16T00:28:24Z</time>
      </trkpt>
      <trkpt lat="44.69652" lon="5.52302">
        <ele>617</ele>
        <time>2017-12-16T00:28:33Z</time>
      </trkpt>
      <trkpt lat="44.69622" lon="5.52289">
        <ele>618</ele>
        <time>2017-12-16T00:28:48Z</time>
      </trkpt>
      <trkpt lat="44.69604" lon="5.52285">
        <ele>618</ele>
        <time>2017-12-16T00:29:02Z</time>
      </trkpt>
      <trkpt lat="44.69566" lon="5.52295">
        <ele>614</ele>
        <time>2017-12-16T00:29:09Z</time>
      </trkpt>
      <trkpt lat="44.69559" lon="5.52295">
        <ele>614</ele>
        <time>2017-12-16T00:29:15Z</time>
      </trkpt>
      <trkpt lat="44.69546" lon="5.52291">
        <ele>614</ele>
        <time>2017-12-16T00:29:28Z</time>
      </trkpt>
      <trkpt lat="44.69528" lon="5.52281">
        <ele>614</ele>
        <time>2017-12-16T00:29:47Z</time>
      </trkpt>
      <trkpt lat="44.69473" lon="5.52233">
        <ele>615</ele>
        <time>2017-12-16T00:29:49Z</time>
      </trkpt>
      <trkpt lat="44.69442" lon="5.52205">
        <ele>617</ele>
        <time>2017-12-16T00:30:01Z</time>
      </trkpt>
      <trkpt lat="44.69425" lon="5.52198">
        <ele>618</ele>
        <time>2017-12-16T00:30:06Z</time>
      </trkpt>
      <trkpt lat="44.69408" lon="5.52197">
        <ele>613</ele>
        <time>2017-12-16T00:30:15Z</time>
      </trkpt>
      <trkpt lat="44.69391" lon="5.52201">
        <ele>612</ele>
        <time>2017-12-16T00:30:19Z</time>
      </trkpt>
      <trkpt lat="44.69372" lon="5.52203">
        <ele>611</ele>
        <time>2017-12-16T00:30:30Z</time>
      </trkpt>
      <trkpt lat="44.69358" lon="5.52201">
        <ele>611</ele>
        <time>2017-12-16T00:30:47Z</time>
      </trkpt>
      <trkpt lat="44.69335" lon="5.52183">
        <ele>611</ele>
        <time>2017-12-16T00:31:02Z</time>
      </trkpt>
      <trkpt lat="44.69319" lon="5.52165">
        <ele>612</ele>
        <time>2017-12-16T00:31:11Z</time>
      </trkpt>
      <trkpt lat="44.69304" lon="5.52143">
        <ele>614</ele>
        <time>2017-12-16T00:31:23Z</time>
      </trkpt>
      <trkpt lat="44.69285" lon="5.52104">
        <ele>615</ele>
        <time>2017-12-16T00:31:31Z</time>
      </trkpt>
      <trkpt lat="44.69277" lon="5.52086">
        <ele>613</ele>
        <time>2017-12-16T00:31:50Z</time>
      </trkpt>
      <trkpt lat="44.69266" lon="5.52073">
        <ele>622</ele>
        <time>2017-12-16T00:31:58Z</time>
      </trkpt>
      <trkpt lat="44.69248" lon="5.52058">
        <ele>611</ele>
        <time>2017-12-16T00:32:00Z</time>
      </trkpt>
      <trkpt lat="44.69205" lon="5.52033">
        <ele>612</ele>
        <time>2017-12-16T00:32:19Z</time>
      </trkpt>
      <trkpt lat="44.69174" lon="5.52007">
        <ele>609</ele>
        <time>2017-12-16T00:32:27Z</time>
      </trkpt>
      <trkpt lat="44.69142" lon="5.51978">
        <ele>616</ele>
        <time>2017-12-16T00:32:38Z</time>
      </trkpt>
      <trkpt lat="44.69098" lon="5.51942">
        <ele>618</ele>
        <time>2017-12-16T00:32:48Z</time>
      </trkpt>
      <trkpt lat="44.69076" lon="5.51932">
        <ele>614</ele>
        <time>2017-12-16T00:33:07Z</time>
      </trkpt>
      <trkpt lat="44.69048" lon="5.51926">
        <ele>611</ele>
        <time>2017-12-16T00:33:15Z</time>
      </trkpt>
      <trkpt lat="44.69014" lon="5.5192">
        <ele>610</ele>
        <time>2017-12-16T00:33:28Z</time>
      </trkpt>
      <trkpt lat="44.68983" lon="5.5191">
        <ele>616</ele>
        <time>2017-12-16T00:33:34Z</time>
      </trkpt>
      <trkpt lat="44.68931" lon="5.51882">
        <ele>616</ele>
        <time>2017-12-16T00:33:53Z</time>
      </trkpt>
      <trkpt lat="44.68904" lon="5.51863">
        <ele>608</ele>
        <time>2017-12-16T00:34:00Z</time>
      </trkpt>
      <trkpt lat="44.68895" lon="5.51853">
        <ele>609</ele>
        <time>2017-12-16T00:34:08Z</time>
      </trkpt>
      <trkpt lat="44.68875" lon="5.51826">
        <ele>617</ele>
        <time>2017-12-16T00:34:23Z</time>
      </trkpt>
      <trkpt lat="44.68838" lon="5.51771">
        <ele>613</ele>
        <time>2017-12-16T00:34:28Z</time>
      </trkpt>
      <trkpt lat="44.68825" lon="5.51747">
        <ele>605</ele>
        <time>2017-12-16T00:34:42Z</time>
      </trkpt>
      <trkpt lat="44.68819" lon="5.51729">
        <ele>604</ele>
        <time>2017-12-16T00:35:00Z</time>
      </trkpt>
      <trkpt lat="44.68808" lon="5.51682">
        <ele>606</ele>
        <time>2017-12-16T00:35:09Z</time>
      </trkpt>
      <trkpt lat="44.68797" lon="5.51619">
        <ele>607</ele>
        <time>2017-12-16T00:35:19Z</time>
      </trkpt>
      <trkpt lat="44.68792" lon="5.5157">
        <ele>603</ele>
        <time>2017-12-16T00:35:22Z</time>
      </trkpt>
      <trkpt lat="44.68793" lon="5.51547">
        <ele>602</ele>
        <time>2017-12-16T00:35:29Z</time>
      </trkpt>
      <trkpt lat="44.68801" lon="5.51516">
        <ele>601</ele>
        <time>2017-12-16T00:35:38Z</time>
      </trkpt>
      <trkpt lat="44.68811" lon="5.51496">
        <ele>597</ele>
        <time>2017-12-16T00:35:48Z</time>
      </trkpt>
      <trkpt lat="44.68844" lon="5.51449">
        <ele>611</ele>
        <time>2017-12-16T00:35:51Z</time>
      </trkpt>
      <trkpt lat="44.6886" lon="5.51425">
        <ele>611</ele>
        <time>2017-12-16T00:36:02Z</time>
      </trkpt>
      <trkpt lat="44.68867" lon="5.5141">
        <ele>606</ele>
        <time>2017-12-16T00:36:05Z</time>
      </trkpt>
      <trkpt lat="44.68875" lon="5.51373">
        <ele>607</ele>
        <time>2017-12-16T00:36:23Z</time>
      </trkpt>
      <trkpt lat="44.68885" lon="5.51322">
        <ele>604</ele>
        <time>2017-12-16T00:36:41Z</time>
      </trkpt>
      <trkpt lat="44.68903" lon="5.51263">
        <ele>602</ele>
        <time>2017-12-16T00:36:46Z</time>
      </trkpt>
      <trkpt lat="44.68913" lon="5.51242">
        <ele>600</ele>
        <time>2017-12-16T00:36:54Z</time>
      </trkpt>
      <trkpt lat="44.68925" lon="5.51224">
        <ele>607</ele>
        <time>2017-12-16T00:37:07Z</time>
      </trkpt>
      <trkpt lat="44.68964" lon="5.5118">
        <ele>608</ele>
        <time>2017-12-16T00:37:15Z</time>
      </trkpt>
      <trkpt lat="44.68975" lon="5.51166">
        <ele>599</ele>
        <time>2017-12-16T00:37:24Z</time>
      </trkpt>
      <trkpt lat="44.68984" lon="5.51148">
        <ele>599</ele>
        <time>2017-12-16T00:37:29Z</time>
      </trkpt>
      <trkpt lat="44.69" lon="5.5111">
        <ele>595</ele>
        <time>2017-12-16T00:37:35Z</time>
      </trkpt>
      <trkpt lat="44.69011" lon="5.51086">
        <ele>603</ele>
        <time>2017-12-16T00:37:51Z</time>
      </trkpt>
      <trkpt lat="44.6902" lon="5.51072">
        <ele>598</ele>
        <time>2017-12-16T00:38:04Z</time>
      </trkpt>
      <trkpt lat="44.69041" lon="5.51045">
        <ele>601</ele>
        <time>2017-12-16T00:38:22Z</time>
      </trkpt>
      <trkpt lat="44.69066" lon="5.51012">
        <ele>603</ele>
        <time>2017-12-16T00:38:30Z</time>
      </trkpt>
      <trkpt lat="44.69078" lon="5.50985">
        <ele>599</ele>
        <time>2017-12-16T00:38:32Z</time>
      </trkpt>
      <trkpt lat="44.6908" lon="5.50965">
        <ele>595</ele>
        <time>2017-12-16T00:38:37Z</time>
      </trkpt>
      <trkpt lat="44.6908" lon="5.50935">
        <ele>594</ele>
        <time>2017-12-16T00:38:47Z</time>
      </trkpt>
      <trkpt lat="44.69081" lon="5.50911">
        <ele>593</ele>
        <time>2017-12-16T00:38:55Z</time>
      </trkpt>
      <trkpt lat="44.69086" lon="5.50894">
        <ele>602</ele>
        <time>2017-12-16T00:38:58Z</time>
      </trkpt>
      <trkpt lat="44.69094" lon="5.50869">
        <ele>602</ele>
        <time>2017-12-16T00:39:06Z</time>
      </trkpt>
      <trkpt lat="44.69107" lon="5.50809">
        <ele>596</ele>
        <time>2017-12-16T00:39:22Z</time>
      </trkpt>
      <trkpt lat="44.69117" lon="5.50754">
        <ele>595</ele>
        <time>2017-12-16T00:39:29Z</time>
      </trkpt>
      <trkpt lat="44.69128" lon="5.50711">
        <ele>593</ele>
        <time>2017-12-16T00:39:31Z</time>
      </trkpt>
      <trkpt lat="44.69142" lon="5.50674">
        <ele>595</ele>
        <time>2017-12-16T00:39:37Z</time>
      </trkpt>
      <trkpt lat="44.6917" lon="5.50614">
        <ele>609</ele>
        <time>2017-12-16T00:39:50Z</time>
      </trkpt>
      <trkpt lat="44.69179" lon="5.50586">
        <ele>604</ele>
        <time>2017-12-16T00:40:00Z</time>
      </trkpt>
      <trkpt lat="44.69186" lon="5.50537">
        <ele>605</ele>
        <time>2017-12-16T00:40:20Z</time>
      </trkpt>
      <trkpt lat="44.69192" lon="5.50502">
        <ele>603</ele>
        <time>2017-12-16T00:40:39Z</time>
      </trkpt>
      <trkpt lat="44.69199" lon="5.50468">
        <ele>601</ele>
        <time>2017-12-16T00:40:51Z</time>
      </trkpt>
      <trkpt lat="44.69223" lon="5.50405">
        <ele>603</ele>
        <time>2017-12-16T00:41:01Z</time>
      </trkpt>
      <trkpt lat="44.69227" lon="5.50387">
        <ele>602</ele>
        <time>2017-12-16T00:41:07Z</time>
      </trkpt>
      <trkpt lat="44.69229" lon="5.50366">
        <ele>601</ele>
        <time>2017-12-16T00:41:22Z</time>
      </trkpt>
      <trkpt lat="44.69227" lon="5.50346">
        <ele>601</ele>
        <time>2017-12-16T00:41:27Z</time>
      </trkpt>
      <trkpt lat="44.69221" lon="5.50325">
        <ele>599</ele>
        <time>2017-12-16T00:41:40Z</time>
      </trkpt>
      <trkpt lat="44.69209" lon="5.50289">
        <ele>596</ele>
        <time>2017-12-16T00:42:00Z</time>
      </trkpt>
      <trkpt lat="44.69206" lon="5.50256">
        <ele>596</ele>
        <time>2017-12-16T00:42:20Z</time>
      </trkpt>
      <trkpt lat="44.69209" lon="5.50223">
        <ele>596</ele>
        <time>2017-12-16T00:42:37Z</time>
      </trkpt>
      <trkpt lat="44.69219" lon="5.50188">
        <ele>598</ele>
        <time>2017-12-16T00:42:50Z</time>
      </trkpt>
      <trkpt lat="44.69227" lon="5.50151">
        <ele>600</ele>
        <time>2017-12-16T00:43:05Z</time>
      </trkpt>
      <trkpt lat="44.6923" lon="5.50113">
        <ele>599</ele>
        <time>2017-12-16T00:43:23Z</time>
      </trkpt>
      <trkpt lat="44.69229" lon="5.50082">
        <ele>600</ele>
        <time>2017-12-16T00:43:26Z</time>
      </trkpt>
      <trkpt lat="44.69221" lon="5.50013">
        <ele>598</ele>
        <time>2017-12-16T00:43:42Z</time>
      </trkpt>
      <trkpt lat="44.69216" lon="5.49977">
        <ele>593</ele>
        <time>2017-12-16T00:43:53Z</time>
      </trkpt>
      <trkpt lat="44.69215" lon="5.49962">
        <ele>591</ele>
        <time>2017-12-16T00:43:55Z</time>
      </trkpt>
      <trkpt lat="44.69221" lon="5.49937">
        <ele>591</ele>
        <time>2017-12-16T00:44:08Z</time>
      </trkpt>
      <trkpt lat="44.69262" lon="5.49846">
        <ele>596</ele>
        <time>2017-12-16T00:44:27Z</time>
      </trkpt>
      <trkpt lat="44.69326" lon="5.4971">
        <ele>583</ele>
        <time>2017-12-16T00:44:43Z</time>
      </trkpt>
      <trkpt lat="44.6935" lon="5.49658">
        <ele>590</ele>
        <time>2017-12-16T00:44:55Z</time>
      </trkpt>
      <trkpt lat="44.69361" lon="5.49624">
        <ele>593</ele>
        <time>2017-12-16T00:44:59Z</time>
      </trkpt>
      <trkpt lat="44.69367" lon="5.4958">
        <ele>587</ele>
        <time>2017-12-16T00:45:15Z</time>
      </trkpt>
      <trkpt lat="44.69392" lon="5.49306">
        <ele>574</ele>
        <time>2017-12-16T00:45:21Z</time>
      </trkpt>
      <trkpt lat="44.69407" lon="5.49145">
        <ele>570</ele>
        <time>2017-12-16T00:45:37Z</time>
      </trkpt>
      <trkpt lat="44.69412" lon="5.49077">
        <ele>571</ele>
        <time>2017-12-16T00:45:46Z</time>
      </trkpt>
      <trkpt lat="44.69411" lon="5.49054">
        <ele>569</ele>
        <time>2017-12-16T00:45:58Z</time>
      </trkpt>
      <trkpt lat="44.69414" lon="5.49044">
        <ele>568</ele>
        <time>2017-12-16T00:46:16Z</time>
      </trkpt>
      <trkpt lat="44.69422" lon="5.4903">
        <ele>573</ele>
        <time>2017-12-16T00:46:28Z</time>
      </trkpt>
      <trkpt lat="44.69428" lon="5.49017">
        <ele>572</ele>
        <time>2017-12-16T00:46:46Z</time>
      </trkpt>
      <trkpt lat="44.69432" lon="5.49005">
        <ele>571</ele>
        <time>2017-12-16T00:47:01Z</time>
      </trkpt>
      <trkpt lat="44.69434" lon="5.48999">
        <ele>570</ele>
        <time>2017-12-16T00:47:07Z</time>
      </trkpt>
      <trkpt lat="44.69438" lon="5.48998">
        <ele>570</ele>
        <time>2017-12-16T00:47:18Z</time>
      </trkpt>
      <trkpt lat="44.69442" lon="5.48997">
        <ele>571</ele>
        <time>2017-12-16T00:47:38Z</time>
      </trkpt>
      <trkpt lat="44.69443" lon="5.48996">
        <ele>571</ele>
        <time>2017-12-16T00:47:40Z</time>
      </trkpt>
      <trkpt lat="44.69446" lon="5.48992">
        <ele>571</ele>
        <time>2017-12-16T00:47:42Z</time>
      </trkpt>
      <trkpt lat="44.69482" lon="5.48926">
        <ele>574</ele>
        <time>2017-12-16T00:47:48Z</time>
      </trkpt>
      <trkpt lat="44.69493" lon="5.48902">
        <ele>574</ele>
        <time>2017-12-16T00:47:57Z</time>
      </trkpt>
      <trkpt lat="44.69509" lon="5.4887">
        <ele>585</ele>
        <time>2017-12-16T00:48:01Z</time>
      </trkpt>
      <trkpt lat="44.69515" lon="5.48849">
        <ele>583</ele>
        <time>2017-12-16T00:48:07Z</time>
      </trkpt>
      <trkpt lat="44.69522" lon="5.48782">
        <ele>586</ele>
        <time>2017-12-16T00:48:25Z</time>
      </trkpt>
      <trkpt lat="44.6952" lon="5.48713">
        <ele>585</ele>
        <time>2017-12-16T00:48:38Z</time>
      </trkpt>
      <trkpt lat="44.69517" lon="5.48615">
        <ele>584</ele>
        <time>2017-12-16T00:48:42Z</time>
      </trkpt>
      <trkpt lat="44.69515" lon="5.48556">
        <ele>586</ele>
        <time>2017-12-16T00:49:00Z</time>
      </trkpt>
      <trkpt lat="44.69513" lon="5.48514">
        <ele>587</ele>
        <time>2017-12-16T00:49:13Z</time>
      </trkpt>
      <trkpt lat="44.69509" lon="5.48487">
        <ele>590</ele>
        <time>2017-12-16T00:49:20Z</time>
      </trkpt>
      <trkpt lat="44.69501" lon="5.48448">
        <ele>593</ele>
        <time>2017-12-16T00:49:25Z</time>
      </trkpt>
      <trkpt lat="44.69482" lon="5.48358">
        <ele>584</ele>
        <time>2017-12-16T00:49:45Z</time>
      </trkpt>
    </trkseg>
  </trk>
</gpx>